[[{"header":{"parameterUnit":"m.s-1","parameterCategory":1,"la1":31.0,"la2":29.5877,"lo1":-88.7671,"lo2":-86.6584,"dy":0.0162,"dx":0.0185,"nx":115,"ny":88,"refTime":"2026-04-06T12:00:00:Z","depth":0,"parameterNumber":2,"parameterNumberName":"U-component_of_WINDS"},"data":[0.0,0.0,0.0,0.0,0.0,0.0,0.0,0.0,0.0,0.0,0.0,0.0,0.0,0.0,0.0,0.0,0.0,0.0,0.0,0.0,0.0,0.0,0.0,0.0,0.0,0.0,0.0,0.0,0.0,0.0,0.0,0.0,0.0,0.0,0.0,0.0,0.0,0.0,0.0,0.0,0.0,0.0,0.0,0.0,0.0,0.0,0.0,0.0,0.0,0.0,0.0,0.0,0.0,0.0,0.0,0.0,0.0,0.0,0.0,0.0,0.0,0.0,0.0,0.0,0.0,0.0,0.0,0.0,0.0,0.0,0.0,0.0,0.0,0.0,0.0,0.0,0.0,0.0,0.0,0.0,0.0,0.0,0.0,0.0,0.0,0.0,0.0,0.0,0.0,0.0,0.0,0.0,0.0,0.0,0.0,0.0,0.0,0.0,0.0,0.0,0.0,0.0,0.0,0.0,0.0,0.0,0.0,0.0,0.0,0.0,0.0,0.0,0.0,0.0,0.0,0.0,0.0,0.0,0.0,0.0,0.0,0.0,0.0,0.0,0.0,0.0,0.0,0.0,0.0,0.0,0.0,0.0,0.0,0.0,0.0,0.0,0.0,0.0,0.0,0.0,0.0,0.0,0.0,0.0,0.0,0.0,0.0,0.0,0.0,0.0,0.0,0.0,0.0,0.0,0.0,0.0,0.0,0.0,0.0,0.0,0.0,0.0,0.0,0.0,0.0,0.0,0.0,0.0,0.0,0.0,0.0,0.0,0.0,0.0,0.0,0.0,0.0,0.0,0.0,0.0,0.0,0.0,0.0,0.0,0.0,0.0,0.0,0.0,0.0,0.0,0.0,0.0,0.0,0.0,0.0,0.0,0.0,0.0,0.0,0.0,0.0,0.0,0.0,0.0,0.0,0.0,0.0,0.0,0.0,0.0,0.0,0.0,0.0,0.0,0.0,0.0,0.0,0.0,0.0,0.0,0.0,0.0,0.0,0.0,0.0,0.0,0.0,0.0,0.0,0.0,0.0,0.0,0.0,0.0,0.0,0.0,0.0,0.0,0.0,0.0,0.0,0.0,0.0,0.0,0.0,0.0,0.0,0.0,0.0,0.0,0.0,0.0,0.0,0.0,0.0,0.0,0.0,0.0,0.0,0.0,0.0,0.0,0.0,0.0,0.0,0.0,0.0,0.0,0.0,0.0,0.0,0.0,0.0,0.0,0.0,0.0,0.0,0.0,0.0,0.0,0.0,0.0,0.0,0.0,0.0,0.0,0.0,0.0,0.0,0.0,0.0,0.0,0.0,0.0,0.0,0.0,0.0,0.0,0.0,0.0,0.0,0.0,0.0,0.0,0.0,0.0,0.0,0.0,0.0,0.0,0.0,0.0,0.0,0.0,0.0,0.0,0.0,0.0,0.0,0.0,0.0,0.0,0.0,0.0,0.0,0.0,0.0,0.0,0.0,0.0,0.0,0.0,0.0,0.0,0.0,0.0,0.0,0.0,0.0,0.0,0.0,0.0,0.0,0.0,0.0,0.0,0.0,0.0,0.0,0.0,0.0,0.0,0.0,0.0,0.0,0.0,0.0,0.0,0.0,0.0,0.0,0.0,0.0,0.0,0.0,0.0,0.0,0.0,0.0,0.0,0.0,0.0,0.0,0.0,0.0,0.0,0.0,0.0,0.0,0.0,0.0,0.0,0.0,0.0,0.0,0.0,0.0,0.0,0.0,0.0,0.0,0.0,0.0,0.0,0.0,0.0,0.0,0.0,0.0,0.0,0.0,0.0,0.0,0.0,0.0,0.0,0.0,0.0,0.0,0.0,0.0,0.0,0.0,0.0,0.0,0.0,0.0,0.0,0.0,0.0,0.0,0.0,0.0,0.0,0.0,0.0,0.0,0.0,0.0,0.0,0.0,0.0,0.0,0.0,0.0,0.0,0.0,0.0,0.0,0.0,0.0,0.0,0.0,0.0,0.0,0.0,0.0,0.0,0.0,0.0,0.0,0.0,0.0,0.0,0.0,0.0,0.0,0.0,0.0,0.0,0.0,0.0,0.0,0.0,0.0,0.0,0.0,0.0,0.0,0.0,0.0,0.0,0.0,0.0,0.0,0.0,0.0,0.0,0.0,0.0,0.0,0.0,0.0,0.0,0.0,0.0,0.0,0.0,0.0,0.0,0.0,0.0,0.0,0.0,0.0,0.0,0.0,0.0,0.0,0.0,0.0,0.0,0.0,0.0,0.0,0.0,0.0,0.0,0.0,0.0,0.0,0.0,0.0,0.0,0.0,0.0,0.0,0.0,0.0,0.0,0.0,0.0,0.0,0.0,0.0,0.0,0.0,0.0,0.0,0.0,0.0,0.0,0.0,0.0,0.0,0.0,0.0,0.0,0.0,0.0,0.0,0.0,0.0,0.0,0.0,0.0,0.0,0.0,0.0,0.0,0.0,0.0,0.0,0.0,0.0,0.0,0.0,0.0,0.0,0.0,0.0,0.0,0.0,0.0,0.0,0.0,0.0,0.0,0.0,0.0,0.0,0.0,0.0,0.0,0.0,0.0,0.0,0.0,0.0,0.0,0.0,0.0,0.0,0.0,0.0,0.0,0.0,0.0,0.0,0.0,0.0,0.0,0.0,0.0,0.0,0.0,0.0,0.0,0.0,0.0,0.0,0.0,0.0,0.0,0.0,0.0,0.0,0.0,0.0,0.0,0.0,0.0,0.0,0.0,0.0,0.0,0.0,0.0,0.0,0.0,0.0,0.0,0.0,0.0,0.0,0.0,0.0,0.0,0.0,0.0,0.0,0.0,0.0,0.0,0.0,0.0,0.0,0.0,0.0,0.0,0.0,0.0,0.0,0.0,0.0,0.0,0.0,0.0,0.0,0.0,0.0,0.0,0.0,0.0,0.0,0.0,0.0,0.0,0.0,0.0,0.0,0.0,0.0,0.0,0.0,0.0,0.0,0.0,0.0,0.0,0.0,0.0,0.0,0.0,0.0,0.0,0.0,0.0,0.0,0.0,0.0,0.0,0.0,0.0,0.0,0.0,0.0,0.0,0.0,0.0,0.0,0.0,0.0,0.0,0.0,0.0,0.0,0.0,0.0,0.0,0.0,0.0,0.0,0.0,0.0,0.0,0.0,0.0,0.0,0.0,0.0,0.0,0.0,0.0,0.0,0.0,0.0,0.0,0.0,0.0,0.0,0.0,0.0,0.0,0.0,0.0,0.0,0.0,0.0,0.0,0.0,0.0,0.0,0.0,0.0,0.0,0.0,0.0,0.0,0.0,0.0,0.0,0.0,0.0,0.0,0.0,0.0,0.0,0.0,0.0,0.0,0.0,0.0,0.0,0.0,0.0,0.0,0.0,0.0,0.0,0.0,0.0,0.0,0.0,0.0,0.0,0.0,0.0,0.0,0.0,0.0,0.0,0.0,0.0,0.0,0.0,0.0,0.0,0.0,0.0,0.0,0.0,0.0,0.0,0.0,0.0,0.0,0.0,0.0,0.0,0.0,0.0,0.0,0.0,0.0,0.0,0.0,0.0,0.0,0.0,0.0,0.0,0.0,0.0,0.0,0.0,0.0,0.0,0.0,0.0,0.0,0.0,0.0,0.0,0.0,0.0,0.0,0.0,0.0,0.0,0.0,0.0,0.0,0.0,0.0,0.0,0.0,0.0,0.0,0.0,0.0,0.0,0.0,0.0,0.0,0.0,0.0,0.0,0.0,0.0,0.0,0.0,0.0,0.0,0.0,0.0,0.0,0.0,0.0,0.0,0.0,0.0,0.0,0.0,0.0,0.0,0.0,0.0,0.0,0.0,0.0,0.0,0.0,0.0,0.0,0.0,0.0,0.0,0.0,0.0,0.0,0.0,0.0,0.0,0.0,0.0,0.0,0.0,0.0,0.0,0.0,0.0,0.0,0.0,0.0,0.0,0.0,0.0,0.0,0.0,0.0,0.0,0.0,0.0,0.0,0.0,0.0,0.0,0.0,0.0,0.0,0.0,0.0,0.0,0.0,0.0,0.0,0.0,0.0,0.0,0.0,0.0,0.0,0.0,0.0,0.0,0.0,0.0,0.0,0.0,0.0,0.0,0.0,0.0,0.0,0.0,0.0,0.0,0.0,0.0,0.0,0.0,0.0,0.0,0.0,0.0,0.0,0.0,0.0,0.0,0.0,0.0,0.0,0.0,0.0,0.0,0.0,0.0,0.0,0.0,0.0,0.0,0.0,0.0,0.0,0.0,0.0,0.0,0.0,0.0,0.0,0.0,0.0,0.0,0.0,0.0,-3.1769,0.0,0.0,0.0,0.0,0.0,0.0,0.0,0.0,0.0,0.0,0.0,0.0,0.0,0.0,0.0,0.0,0.0,0.0,0.0,0.0,0.0,0.0,0.0,0.0,0.0,0.0,0.0,0.0,0.0,0.0,0.0,0.0,0.0,0.0,0.0,0.0,0.0,0.0,0.0,0.0,0.0,0.0,0.0,0.0,0.0,0.0,0.0,0.0,0.0,0.0,0.0,0.0,0.0,0.0,0.0,0.0,0.0,0.0,0.0,0.0,0.0,0.0,0.0,0.0,0.0,0.0,0.0,0.0,0.0,0.0,0.0,0.0,0.0,0.0,0.0,0.0,0.0,0.0,0.0,0.0,0.0,0.0,0.0,0.0,0.0,0.0,0.0,0.0,0.0,0.0,0.0,0.0,0.0,0.0,0.0,0.0,0.0,0.0,0.0,0.0,0.0,0.0,0.0,0.0,0.0,0.0,0.0,0.0,0.0,0.0,-3.3514,-3.3662,-3.3662,-3.3506,-3.3093,0.0,0.0,0.0,0.0,0.0,0.0,0.0,0.0,0.0,0.0,0.0,0.0,0.0,0.0,0.0,0.0,0.0,0.0,0.0,0.0,0.0,0.0,0.0,0.0,0.0,0.0,0.0,0.0,0.0,0.0,0.0,0.0,0.0,0.0,0.0,0.0,0.0,0.0,0.0,0.0,0.0,0.0,0.0,0.0,0.0,0.0,0.0,0.0,0.0,0.0,0.0,0.0,0.0,0.0,0.0,0.0,0.0,0.0,0.0,0.0,0.0,0.0,0.0,0.0,0.0,0.0,0.0,0.0,0.0,0.0,0.0,0.0,0.0,0.0,0.0,0.0,0.0,0.0,0.0,0.0,0.0,0.0,0.0,0.0,0.0,0.0,0.0,0.0,0.0,0.0,0.0,0.0,0.0,0.0,0.0,0.0,0.0,0.0,0.0,0.0,0.0,0.0,0.0,0.0,0.0,0.0,0.0,0.0,0.0,0.0,0.0,0.0,-3.435,-3.3915,-3.3122,0.0,0.0,0.0,0.0,0.0,0.0,0.0,0.0,0.0,0.0,0.0,0.0,0.0,0.0,0.0,0.0,0.0,0.0,0.0,0.0,0.0,0.0,0.0,0.0,0.0,0.0,0.0,0.0,0.0,0.0,0.0,0.0,0.0,0.0,0.0,0.0,0.0,0.0,0.0,0.0,0.0,0.0,0.0,0.0,0.0,0.0,0.0,0.0,0.0,0.0,0.0,0.0,0.0,0.0,0.0,0.0,0.0,0.0,0.0,0.0,0.0,0.0,0.0,0.0,0.0,0.0,0.0,0.0,0.0,0.0,0.0,0.0,0.0,0.0,0.0,0.0,0.0,0.0,0.0,0.0,0.0,0.0,0.0,0.0,0.0,0.0,0.0,0.0,0.0,0.0,0.0,0.0,0.0,0.0,0.0,0.0,0.0,0.0,0.0,0.0,0.0,0.0,0.0,0.0,0.0,0.0,0.0,0.0,0.0,0.0,-3.4659,-3.5413,-3.4824,0.0,-3.0093,0.0,0.0,0.0,0.0,0.0,0.0,0.0,0.0,0.0,0.0,0.0,0.0,0.0,0.0,0.0,0.0,0.0,0.0,0.0,0.0,0.0,0.0,0.0,0.0,0.0,0.0,0.0,0.0,0.0,0.0,0.0,0.0,0.0,0.0,0.0,0.0,0.0,0.0,0.0,0.0,0.0,0.0,0.0,0.0,0.0,0.0,0.0,0.0,0.0,0.0,0.0,0.0,0.0,0.0,0.0,0.0,0.0,0.0,0.0,0.0,0.0,0.0,0.0,0.0,0.0,0.0,0.0,0.0,0.0,0.0,0.0,0.0,0.0,0.0,0.0,0.0,0.0,0.0,0.0,0.0,0.0,0.0,0.0,0.0,0.0,0.0,0.0,0.0,0.0,0.0,0.0,0.0,0.0,0.0,0.0,0.0,0.0,0.0,0.0,0.0,0.0,0.0,0.0,0.0,0.0,0.0,0.0,0.0,0.0,0.0,-3.5523,-3.5952,-3.4813,-3.2873,0.0,0.0,0.0,0.0,0.0,0.0,0.0,0.0,0.0,0.0,0.0,0.0,0.0,0.0,0.0,0.0,0.0,0.0,0.0,0.0,0.0,0.0,0.0,0.0,0.0,0.0,0.0,0.0,0.0,0.0,0.0,0.0,0.0,0.0,0.0,0.0,0.0,0.0,0.0,0.0,0.0,0.0,0.0,0.0,0.0,0.0,0.0,0.0,0.0,0.0,0.0,0.0,0.0,0.0,0.0,0.0,0.0,0.0,0.0,0.0,0.0,0.0,0.0,0.0,0.0,0.0,0.0,0.0,0.0,0.0,0.0,0.0,0.0,0.0,0.0,0.0,0.0,0.0,0.0,0.0,0.0,0.0,0.0,0.0,0.0,0.0,0.0,0.0,0.0,0.0,0.0,0.0,0.0,0.0,0.0,0.0,0.0,0.0,0.0,0.0,0.0,0.0,0.0,0.0,0.0,0.0,0.0,0.0,0.0,0.0,-3.5323,-3.578,-3.5889,-3.4481,-3.26,-3.0311,0.0,0.0,0.0,0.0,0.0,0.0,0.0,0.0,0.0,0.0,0.0,0.0,0.0,0.0,0.0,0.0,0.0,0.0,0.0,0.0,0.0,0.0,0.0,0.0,0.0,0.0,0.0,0.0,0.0,0.0,0.0,0.0,0.0,0.0,0.0,0.0,0.0,0.0,0.0,0.0,0.0,0.0,0.0,0.0,0.0,0.0,0.0,0.0,0.0,0.0,0.0,0.0,0.0,0.0,0.0,0.0,0.0,0.0,0.0,0.0,0.0,0.0,0.0,0.0,0.0,0.0,0.0,0.0,0.0,0.0,0.0,0.0,0.0,0.0,0.0,0.0,0.0,0.0,0.0,0.0,0.0,0.0,0.0,0.0,0.0,0.0,0.0,0.0,0.0,0.0,0.0,0.0,0.0,0.0,0.0,0.0,0.0,0.0,0.0,0.0,0.0,0.0,0.0,0.0,0.0,0.0,0.0,0.0,-3.4706,-3.4945,-3.5127,-3.5324,-3.3768,-3.2103,0.0,0.0,0.0,0.0,0.0,0.0,0.0,0.0,0.0,0.0,0.0,0.0,0.0,0.0,0.0,0.0,0.0,0.0,0.0,0.0,0.0,0.0,0.0,0.0,0.0,0.0,0.0,0.0,0.0,0.0,0.0,0.0,0.0,0.0,0.0,0.0,0.0,0.0,0.0,0.0,0.0,0.0,0.0,0.0,0.0,0.0,0.0,0.0,0.0,0.0,0.0,0.0,0.0,0.0,0.0,0.0,0.0,0.0,0.0,0.0,0.0,0.0,0.0,0.0,0.0,0.0,0.0,0.0,0.0,0.0,0.0,0.0,0.0,0.0,0.0,0.0,0.0,0.0,0.0,0.0,0.0,0.0,0.0,0.0,0.0,0.0,0.0,0.0,0.0,0.0,0.0,0.0,0.0,0.0,0.0,0.0,0.0,0.0,0.0,0.0,0.0,0.0,0.0,0.0,0.0,0.0,0.0,0.0,0.0,-3.4868,-3.5547,-3.5799,-3.5366,-3.3356,-3.1378,0.0,0.0,0.0,0.0,0.0,0.0,0.0,0.0,0.0,0.0,0.0,0.0,0.0,0.0,0.0,0.0,0.0,0.0,0.0,0.0,0.0,0.0,0.0,0.0,0.0,0.0,0.0,0.0,0.0,0.0,0.0,0.0,0.0,0.0,0.0,0.0,0.0,0.0,0.0,0.0,0.0,0.0,0.0,0.0,0.0,0.0,0.0,0.0,0.0,0.0,0.0,0.0,0.0,0.0,0.0,0.0,0.0,0.0,0.0,0.0,0.0,0.0,0.0,0.0,0.0,0.0,0.0,0.0,0.0,0.0,0.0,0.0,0.0,0.0,0.0,0.0,0.0,0.0,0.0,0.0,0.0,0.0,0.0,0.0,0.0,0.0,0.0,0.0,0.0,0.0,0.0,0.0,0.0,0.0,0.0,0.0,0.0,0.0,0.0,0.0,0.0,0.0,0.0,0.0,0.0,0.0,0.0,0.0,0.0,-3.5473,0.0,-3.6654,-3.5868,-3.3269,-3.113,0.0,0.0,0.0,0.0,0.0,0.0,0.0,0.0,0.0,0.0,0.0,0.0,0.0,0.0,0.0,0.0,0.0,0.0,0.0,0.0,0.0,0.0,0.0,0.0,0.0,0.0,0.0,0.0,0.0,0.0,0.0,0.0,0.0,0.0,0.0,0.0,0.0,0.0,0.0,0.0,0.0,0.0,0.0,0.0,0.0,0.0,0.0,0.0,0.0,0.0,0.0,0.0,0.0,0.0,0.0,0.0,0.0,0.0,0.0,0.0,0.0,0.0,0.0,0.0,0.0,0.0,0.0,0.0,0.0,0.0,0.0,0.0,0.0,0.0,0.0,0.0,0.0,0.0,0.0,0.0,0.0,0.0,0.0,0.0,0.0,0.0,0.0,0.0,0.0,0.0,0.0,0.0,0.0,0.0,0.0,0.0,0.0,0.0,0.0,0.0,0.0,0.0,0.0,0.0,0.0,0.0,0.0,0.0,-3.5564,-3.6573,-3.7516,-3.755,-3.6717,-3.3572,-3.1444,0.0,0.0,0.0,0.0,0.0,0.0,0.0,0.0,0.0,0.0,0.0,0.0,0.0,0.0,0.0,0.0,0.0,0.0,0.0,0.0,0.0,0.0,0.0,0.0,0.0,0.0,0.0,0.0,0.0,0.0,0.0,0.0,0.0,0.0,0.0,0.0,0.0,0.0,0.0,0.0,0.0,0.0,0.0,0.0,0.0,0.0,0.0,0.0,0.0,0.0,0.0,0.0,0.0,0.0,0.0,0.0,0.0,0.0,0.0,0.0,0.0,0.0,0.0,0.0,0.0,0.0,0.0,0.0,0.0,0.0,0.0,0.0,0.0,0.0,0.0,0.0,0.0,0.0,0.0,0.0,0.0,0.0,0.0,0.0,0.0,0.0,0.0,0.0,0.0,0.0,0.0,0.0,0.0,0.0,0.0,0.0,0.0,0.0,0.0,0.0,0.0,0.0,0.0,0.0,0.0,0.0,0.0,0.0,0.0,-3.7584,-3.7844,-3.7371,-3.5984,-3.4382,-3.232,0.0,0.0,0.0,0.0,0.0,0.0,0.0,0.0,0.0,0.0,0.0,0.0,0.0,0.0,0.0,0.0,0.0,0.0,0.0,0.0,0.0,0.0,0.0,0.0,0.0,0.0,0.0,0.0,0.0,0.0,0.0,0.0,0.0,0.0,0.0,0.0,0.0,0.0,0.0,0.0,0.0,0.0,0.0,0.0,0.0,0.0,0.0,0.0,0.0,0.0,0.0,0.0,0.0,0.0,0.0,0.0,0.0,0.0,0.0,0.0,0.0,0.0,0.0,0.0,0.0,0.0,0.0,0.0,0.0,0.0,0.0,0.0,0.0,0.0,0.0,0.0,0.0,0.0,0.0,0.0,0.0,0.0,0.0,0.0,0.0,0.0,0.0,0.0,0.0,0.0,0.0,0.0,0.0,0.0,0.0,0.0,0.0,0.0,0.0,0.0,0.0,0.0,0.0,0.0,0.0,0.0,0.0,0.0,0.0,-3.9422,-3.9398,-3.8796,-3.7475,-3.5708,-3.3444,-3.0727,0.0,0.0,0.0,0.0,0.0,0.0,0.0,0.0,0.0,0.0,0.0,0.0,0.0,0.0,0.0,0.0,0.0,0.0,0.0,0.0,0.0,0.0,0.0,0.0,0.0,0.0,0.0,0.0,0.0,0.0,0.0,0.0,0.0,0.0,0.0,0.0,0.0,0.0,0.0,0.0,0.0,0.0,0.0,0.0,0.0,0.0,0.0,0.0,0.0,0.0,0.0,0.0,0.0,0.0,0.0,0.0,0.0,0.0,0.0,0.0,0.0,0.0,0.0,0.0,0.0,0.0,0.0,0.0,0.0,0.0,0.0,0.0,0.0,0.0,0.0,0.0,0.0,0.0,0.0,0.0,0.0,0.0,0.0,0.0,0.0,0.0,0.0,0.0,0.0,0.0,0.0,0.0,0.0,0.0,0.0,0.0,0.0,0.0,0.0,0.0,0.0,0.0,0.0,0.0,0.0,0.0,0.0,0.0,-4.1923,-4.2032,-4.1632,-4.06,-3.7468,-3.4859,0.0,0.0,0.0,0.0,0.0,0.0,0.0,0.0,0.0,0.0,0.0,0.0,0.0,0.0,0.0,0.0,0.0,0.0,0.0,0.0,0.0,0.0,0.0,0.0,0.0,0.0,0.0,0.0,0.0,0.0,0.0,0.0,0.0,0.0,0.0,0.0,0.0,0.0,0.0,0.0,0.0,0.0,0.0,0.0,0.0,0.0,0.0,0.0,0.0,0.0,0.0,0.0,0.0,0.0,0.0,0.0,0.0,0.0,0.0,0.0,0.0,0.0,0.0,0.0,0.0,0.0,0.0,0.0,0.0,0.0,0.0,0.0,0.0,0.0,0.0,0.0,0.0,0.0,0.0,0.0,0.0,0.0,0.0,0.0,0.0,0.0,0.0,0.0,0.0,0.0,0.0,0.0,0.0,0.0,0.0,0.0,0.0,0.0,0.0,0.0,0.0,0.0,0.0,0.0,0.0,0.0,0.0,0.0,0.0,-4.3573,-4.4914,-4.4248,-4.1562,-3.9415,-3.6888,0.0,0.0,0.0,0.0,0.0,0.0,0.0,0.0,0.0,0.0,0.0,0.0,0.0,0.0,0.0,0.0,0.0,0.0,0.0,0.0,0.0,0.0,0.0,0.0,0.0,0.0,0.0,0.0,0.0,0.0,0.0,0.0,0.0,0.0,0.0,0.0,0.0,0.0,0.0,0.0,0.0,0.0,0.0,0.0,0.0,0.0,0.0,0.0,0.0,0.0,0.0,0.0,0.0,0.0,0.0,0.0,0.0,0.0,0.0,0.0,0.0,0.0,0.0,0.0,0.0,0.0,0.0,0.0,0.0,0.0,0.0,0.0,0.0,0.0,0.0,0.0,0.0,0.0,0.0,0.0,0.0,0.0,0.0,0.0,0.0,0.0,0.0,0.0,0.0,0.0,0.0,0.0,0.0,0.0,0.0,0.0,0.0,0.0,0.0,0.0,0.0,0.0,0.0,0.0,0.0,0.0,0.0,0.0,-4.2159,-4.4718,-4.6511,-4.6308,-4.4008,-4.197,-3.9323,0.0,0.0,0.0,0.0,0.0,0.0,0.0,0.0,0.0,0.0,0.0,0.0,0.0,0.0,0.0,0.0,0.0,0.0,0.0,0.0,0.0,0.0,0.0,0.0,0.0,0.0,0.0,0.0,0.0,0.0,0.0,0.0,0.0,0.0,0.0,0.0,0.0,0.0,0.0,0.0,0.0,0.0,0.0,0.0,0.0,0.0,0.0,0.0,0.0,0.0,0.0,0.0,0.0,0.0,0.0,0.0,0.0,0.0,0.0,0.0,0.0,0.0,0.0,0.0,0.0,0.0,0.0,0.0,0.0,0.0,0.0,0.0,0.0,0.0,0.0,0.0,0.0,0.0,0.0,0.0,0.0,0.0,0.0,0.0,0.0,0.0,0.0,0.0,0.0,0.0,0.0,0.0,0.0,0.0,0.0,0.0,0.0,0.0,0.0,0.0,0.0,0.0,0.0,0.0,0.0,0.0,0.0,0.0,-4.29,-4.5457,-4.7281,-4.7798,-4.6837,-4.4423,-4.1546,0.0,0.0,0.0,0.0,0.0,0.0,0.0,0.0,0.0,0.0,0.0,0.0,0.0,0.0,0.0,0.0,0.0,0.0,0.0,0.0,0.0,0.0,0.0,0.0,0.0,0.0,0.0,0.0,0.0,0.0,0.0,0.0,0.0,0.0,0.0,0.0,0.0,0.0,0.0,0.0,0.0,0.0,0.0,0.0,0.0,0.0,0.0,0.0,0.0,0.0,0.0,0.0,0.0,0.0,0.0,0.0,0.0,0.0,0.0,0.0,0.0,0.0,0.0,0.0,0.0,0.0,0.0,0.0,0.0,0.0,0.0,0.0,0.0,0.0,0.0,0.0,0.0,0.0,0.0,0.0,0.0,0.0,0.0,0.0,0.0,0.0,0.0,0.0,0.0,0.0,0.0,0.0,0.0,0.0,0.0,0.0,0.0,0.0,0.0,0.0,0.0,0.0,0.0,0.0,0.0,0.0,0.0,0.0,-4.3601,-4.6124,-4.7994,-4.8268,-4.6772,-4.4388,-4.1816,0.0,0.0,0.0,0.0,0.0,0.0,0.0,0.0,0.0,0.0,0.0,0.0,0.0,0.0,0.0,0.0,0.0,0.0,0.0,0.0,0.0,0.0,0.0,0.0,0.0,0.0,0.0,0.0,0.0,0.0,0.0,0.0,0.0,0.0,0.0,0.0,0.0,0.0,0.0,0.0,0.0,0.0,0.0,0.0,0.0,0.0,0.0,0.0,-3.096,0.0,0.0,0.0,0.0,0.0,0.0,0.0,0.0,0.0,0.0,0.0,0.0,0.0,0.0,0.0,0.0,0.0,0.0,0.0,0.0,0.0,0.0,0.0,0.0,0.0,0.0,0.0,0.0,0.0,0.0,0.0,0.0,0.0,0.0,0.0,0.0,0.0,0.0,0.0,0.0,0.0,0.0,0.0,0.0,0.0,0.0,0.0,0.0,0.0,0.0,0.0,0.0,0.0,0.0,0.0,0.0,0.0,0.0,0.0,-4.4144,-4.6682,-4.8514,-4.8674,-4.6995,-4.4989,-4.2604,0.0,0.0,0.0,0.0,0.0,0.0,0.0,0.0,0.0,0.0,0.0,0.0,0.0,0.0,0.0,0.0,0.0,0.0,0.0,0.0,0.0,0.0,0.0,0.0,0.0,0.0,0.0,0.0,0.0,0.0,0.0,0.0,0.0,0.0,0.0,0.0,0.0,0.0,0.0,0.0,0.0,0.0,0.0,0.0,0.0,0.0,0.0,0.0,0.0,0.0,0.0,0.0,0.0,0.0,0.0,0.0,0.0,0.0,0.0,0.0,0.0,0.0,0.0,0.0,0.0,0.0,0.0,0.0,0.0,0.0,0.0,0.0,0.0,0.0,0.0,0.0,0.0,0.0,0.0,0.0,0.0,0.0,0.0,0.0,0.0,0.0,0.0,0.0,0.0,0.0,0.0,0.0,0.0,0.0,0.0,0.0,0.0,0.0,0.0,0.0,0.0,0.0,0.0,0.0,0.0,0.0,0.0,-4.2015,-4.4578,-4.7023,-4.8837,-4.8981,-4.7314,-4.5521,-4.3236,-4.0356,0.0,0.0,0.0,0.0,0.0,0.0,0.0,0.0,0.0,0.0,0.0,0.0,0.0,0.0,0.0,0.0,0.0,0.0,0.0,0.0,0.0,0.0,0.0,0.0,0.0,0.0,0.0,0.0,0.0,0.0,0.0,0.0,0.0,0.0,0.0,0.0,0.0,0.0,-3.0501,-3.1403,0.0,0.0,0.0,0.0,0.0,0.0,0.0,0.0,-3.2851,0.0,0.0,0.0,0.0,0.0,0.0,0.0,0.0,0.0,0.0,0.0,0.0,0.0,0.0,0.0,0.0,0.0,0.0,0.0,0.0,0.0,0.0,0.0,0.0,0.0,0.0,0.0,0.0,0.0,0.0,0.0,0.0,0.0,0.0,0.0,0.0,0.0,0.0,0.0,0.0,0.0,0.0,0.0,0.0,0.0,0.0,0.0,0.0,0.0,0.0,0.0,0.0,0.0,0.0,0.0,0.0,-3.9307,-4.2534,-4.5082,-4.692,-4.872,-4.8829,-4.7168,-4.4864,-4.2458,-3.996,0.0,0.0,0.0,0.0,0.0,0.0,0.0,0.0,0.0,0.0,0.0,0.0,0.0,0.0,0.0,0.0,0.0,0.0,0.0,0.0,0.0,0.0,0.0,0.0,0.0,0.0,0.0,0.0,0.0,0.0,0.0,0.0,0.0,0.0,0.0,0.0,0.0,0.0,0.0,-3.1886,-3.2598,0.0,0.0,0.0,0.0,0.0,0.0,0.0,0.0,-3.2332,0.0,0.0,0.0,0.0,0.0,0.0,0.0,0.0,0.0,0.0,0.0,0.0,0.0,0.0,0.0,0.0,0.0,0.0,0.0,0.0,0.0,0.0,0.0,0.0,0.0,0.0,0.0,0.0,0.0,0.0,0.0,0.0,0.0,0.0,0.0,0.0,0.0,0.0,0.0,0.0,0.0,0.0,0.0,0.0,0.0,0.0,0.0,0.0,0.0,0.0,0.0,0.0,0.0,0.0,0.0,-3.9078,-4.2382,-4.4898,-4.6494,-4.7804,-4.7682,-4.6068,-4.3689,-4.1124,0.0,0.0,0.0,0.0,0.0,0.0,0.0,0.0,0.0,0.0,0.0,0.0,0.0,0.0,0.0,0.0,0.0,0.0,0.0,0.0,0.0,0.0,0.0,0.0,0.0,0.0,0.0,0.0,0.0,0.0,0.0,0.0,0.0,0.0,0.0,0.0,0.0,0.0,0.0,0.0,-3.3001,-3.3902,-3.2852,0.0,0.0,0.0,0.0,0.0,0.0,-3.2974,-3.2942,0.0,0.0,0.0,0.0,0.0,0.0,0.0,0.0,0.0,0.0,0.0,0.0,0.0,0.0,0.0,0.0,0.0,0.0,0.0,0.0,0.0,0.0,0.0,0.0,0.0,0.0,0.0,0.0,0.0,0.0,0.0,0.0,0.0,0.0,0.0,0.0,0.0,0.0,0.0,0.0,0.0,0.0,0.0,0.0,0.0,0.0,0.0,0.0,0.0,0.0,0.0,0.0,0.0,0.0,0.0,-3.8796,-4.2078,-4.4529,-4.6079,-4.6927,-4.6593,-4.5036,-4.2522,-3.9888,0.0,0.0,0.0,0.0,0.0,0.0,0.0,0.0,0.0,0.0,0.0,0.0,0.0,0.0,0.0,0.0,0.0,0.0,0.0,0.0,0.0,0.0,0.0,0.0,0.0,0.0,0.0,0.0,0.0,0.0,0.0,0.0,0.0,0.0,0.0,0.0,0.0,0.0,0.0,0.0,0.0,-3.4833,-3.3714,-3.4339,0.0,0.0,0.0,0.0,-3.3293,-3.3618,0.0,0.0,0.0,0.0,0.0,0.0,0.0,0.0,0.0,0.0,0.0,0.0,0.0,0.0,0.0,0.0,0.0,0.0,0.0,0.0,0.0,0.0,0.0,0.0,0.0,0.0,0.0,0.0,0.0,0.0,0.0,0.0,0.0,0.0,0.0,0.0,0.0,0.0,0.0,0.0,0.0,0.0,0.0,0.0,0.0,0.0,0.0,0.0,0.0,0.0,0.0,0.0,0.0,0.0,0.0,0.0,-3.8594,-4.1879,-4.4303,-4.5883,-4.6691,-4.6379,-4.4743,-4.1711,-3.9326,0.0,0.0,0.0,0.0,0.0,0.0,0.0,0.0,0.0,0.0,0.0,0.0,0.0,0.0,0.0,0.0,0.0,0.0,0.0,0.0,0.0,0.0,0.0,0.0,0.0,0.0,0.0,0.0,0.0,0.0,0.0,0.0,0.0,0.0,0.0,0.0,0.0,0.0,0.0,0.0,0.0,-3.4386,-3.4438,-3.4717,-3.4893,0.0,0.0,-3.5014,-3.4147,-3.4068,0.0,0.0,0.0,0.0,0.0,0.0,0.0,0.0,0.0,0.0,0.0,0.0,0.0,0.0,0.0,0.0,0.0,0.0,0.0,0.0,0.0,0.0,0.0,0.0,0.0,0.0,0.0,0.0,0.0,0.0,0.0,0.0,0.0,0.0,0.0,0.0,0.0,0.0,0.0,0.0,0.0,0.0,0.0,0.0,0.0,0.0,0.0,0.0,0.0,0.0,0.0,0.0,0.0,0.0,0.0,-3.4599,-3.7364,-4.051,-4.2446,-4.3172,-4.4384,-4.4041,-4.2087,-4.022,-3.8132,0.0,0.0,0.0,0.0,0.0,0.0,0.0,0.0,0.0,0.0,0.0,0.0,0.0,0.0,0.0,0.0,0.0,0.0,0.0,0.0,0.0,0.0,0.0,0.0,0.0,0.0,0.0,0.0,0.0,0.0,0.0,0.0,0.0,0.0,0.0,0.0,0.0,0.0,0.0,0.0,0.0,0.0,-3.5237,-3.5889,0.0,0.0,0.0,-3.6251,-3.5081,0.0,0.0,0.0,0.0,0.0,0.0,0.0,0.0,0.0,0.0,0.0,0.0,0.0,0.0,0.0,0.0,0.0,0.0,0.0,0.0,0.0,0.0,0.0,0.0,0.0,0.0,0.0,0.0,0.0,0.0,0.0,0.0,0.0,0.0,0.0,0.0,0.0,0.0,0.0,0.0,0.0,0.0,0.0,0.0,0.0,0.0,0.0,0.0,0.0,0.0,0.0,0.0,0.0,0.0,0.0,0.0,0.0,-3.6328,-3.9429,-4.1018,-4.1058,-4.2358,-4.2058,-3.9957,-3.888,0.0,0.0,0.0,0.0,0.0,0.0,0.0,0.0,0.0,0.0,0.0,0.0,0.0,0.0,0.0,0.0,0.0,0.0,0.0,0.0,0.0,0.0,0.0,0.0,0.0,0.0,0.0,-2.4076,0.0,0.0,0.0,0.0,0.0,0.0,0.0,0.0,0.0,0.0,0.0,0.0,0.0,0.0,-3.5317,-3.5739,-3.6701,-3.7176,0.0,0.0,-3.7271,-3.5965,-3.6197,-3.5736,0.0,0.0,0.0,0.0,0.0,0.0,0.0,0.0,0.0,0.0,0.0,0.0,0.0,0.0,0.0,0.0,0.0,0.0,0.0,0.0,0.0,0.0,0.0,0.0,0.0,0.0,0.0,0.0,0.0,0.0,0.0,0.0,0.0,0.0,0.0,0.0,0.0,0.0,0.0,0.0,0.0,0.0,0.0,0.0,0.0,0.0,0.0,0.0,0.0,0.0,0.0,0.0,0.0,0.0,-3.3756,-3.6147,-3.9215,-4.0775,-4.0816,-4.1647,-4.1313,-3.968,-3.8132,-3.6646,0.0,0.0,0.0,0.0,0.0,0.0,0.0,0.0,0.0,0.0,0.0,0.0,0.0,0.0,0.0,0.0,0.0,0.0,0.0,0.0,0.0,0.0,0.0,0.0,0.0,0.0,0.0,0.0,0.0,0.0,0.0,0.0,0.0,0.0,0.0,0.0,0.0,0.0,0.0,0.0,0.0,-3.4709,-3.5595,-3.6643,-3.7364,0.0,-3.7679,-3.7533,-3.6843,-3.6699,-3.586,-3.3467,0.0,0.0,0.0,0.0,0.0,0.0,0.0,0.0,0.0,0.0,0.0,0.0,0.0,0.0,0.0,0.0,0.0,0.0,0.0,0.0,0.0,0.0,0.0,0.0,0.0,0.0,0.0,0.0,0.0,0.0,0.0,0.0,0.0,0.0,0.0,0.0,0.0,0.0,0.0,0.0,0.0,0.0,0.0,0.0,0.0,0.0,0.0,0.0,0.0,0.0,0.0,0.0,0.0,-3.3015,-3.4863,-3.7428,-3.8531,-3.8112,-3.9264,-3.9138,-3.7623,-3.7443,-3.6512,0.0,0.0,0.0,0.0,0.0,0.0,0.0,0.0,0.0,0.0,0.0,0.0,0.0,0.0,0.0,0.0,0.0,0.0,0.0,0.0,0.0,0.0,0.0,0.0,0.0,0.0,0.0,0.0,-2.5788,-2.616,-2.7036,0.0,0.0,0.0,0.0,0.0,0.0,0.0,0.0,0.0,0.0,-3.5367,-3.6296,-3.7272,0.0,0.0,-3.8449,-3.8115,-3.692,-3.721,-3.655,-3.3578,-3.2831,0.0,0.0,0.0,0.0,0.0,0.0,0.0,0.0,0.0,0.0,0.0,0.0,0.0,0.0,0.0,0.0,0.0,0.0,0.0,0.0,0.0,0.0,0.0,0.0,0.0,0.0,0.0,0.0,0.0,0.0,0.0,0.0,0.0,0.0,0.0,0.0,0.0,0.0,0.0,0.0,0.0,0.0,0.0,0.0,0.0,0.0,0.0,0.0,0.0,0.0,0.0,0.0,-3.2559,-3.4096,-3.6374,-3.7098,-3.6318,-3.7616,-3.7629,-3.6387,-3.6857,-3.6229,0.0,0.0,0.0,0.0,0.0,0.0,0.0,0.0,0.0,0.0,0.0,0.0,0.0,0.0,0.0,0.0,0.0,0.0,0.0,0.0,0.0,0.0,0.0,0.0,0.0,0.0,0.0,0.0,-2.63,-2.653,-2.7459,0.0,0.0,0.0,0.0,0.0,0.0,0.0,0.0,0.0,0.0,-3.5529,-3.6696,-3.7466,-3.8169,-3.8883,-3.8728,-3.8193,-3.7171,-3.7441,-3.6652,-3.3583,0.0,0.0,0.0,0.0,0.0,0.0,0.0,0.0,0.0,0.0,0.0,0.0,0.0,0.0,0.0,0.0,0.0,0.0,0.0,0.0,0.0,0.0,0.0,0.0,0.0,0.0,0.0,-2.9483,0.0,0.0,-2.9206,0.0,0.0,0.0,0.0,0.0,0.0,0.0,0.0,0.0,0.0,0.0,0.0,0.0,0.0,0.0,0.0,0.0,0.0,0.0,0.0,0.0,0.0,-3.2559,-3.4076,-3.6318,-3.7077,-3.6353,-3.7077,-3.7111,-3.6353,-3.6318,-3.5669,-3.4233,0.0,0.0,0.0,0.0,0.0,0.0,0.0,0.0,0.0,0.0,0.0,0.0,0.0,0.0,0.0,0.0,0.0,0.0,0.0,0.0,0.0,0.0,0.0,0.0,0.0,0.0,-2.8106,-2.7442,-2.7352,0.0,0.0,0.0,0.0,0.0,0.0,0.0,0.0,0.0,-3.1727,-3.3187,-3.4884,-3.6547,-3.687,-3.7589,-3.9331,-3.8443,-3.7622,-3.7691,-3.7247,-3.5958,0.0,0.0,0.0,0.0,0.0,0.0,0.0,0.0,0.0,0.0,0.0,0.0,0.0,0.0,0.0,0.0,0.0,0.0,0.0,0.0,0.0,0.0,0.0,0.0,0.0,0.0,0.0,-3.1164,-3.0681,0.0,0.0,0.0,0.0,0.0,0.0,0.0,0.0,0.0,0.0,0.0,-3.2254,-3.2503,0.0,0.0,0.0,0.0,0.0,0.0,0.0,0.0,0.0,0.0,0.0,0.0,-3.241,-3.3977,-3.5633,-3.6423,-3.6247,-3.6509,-3.653,-3.6284,-3.6284,-3.5373,-3.3375,0.0,0.0,0.0,0.0,0.0,0.0,0.0,0.0,0.0,0.0,0.0,0.0,0.0,0.0,0.0,0.0,0.0,0.0,0.0,0.0,0.0,0.0,0.0,0.0,0.0,-2.8102,0.0,0.0,0.0,0.0,0.0,0.0,0.0,0.0,0.0,0.0,0.0,-3.1468,-3.2378,-3.3981,-3.5281,-3.5851,-3.6894,-3.7654,0.0,0.0,0.0,0.0,0.0,0.0,0.0,0.0,0.0,0.0,0.0,0.0,0.0,0.0,-3.1231,-3.0716,-2.9726,-2.8695,-2.7921,0.0,0.0,0.0,0.0,0.0,0.0,0.0,0.0,0.0,0.0,0.0,0.0,0.0,0.0,-3.1451,0.0,-3.0183,0.0,0.0,0.0,0.0,0.0,0.0,0.0,0.0,-3.3571,-3.3979,-3.3787,-3.4034,-3.403,0.0,-3.4116,-3.3334,0.0,0.0,0.0,0.0,0.0,0.0,0.0,0.0,-3.2198,-3.37,-3.5138,-3.5888,-3.5975,-3.5975,-3.5997,-3.6062,-3.5788,-3.4747,-3.276,-3.0975,-2.9606,0.0,0.0,0.0,0.0,0.0,0.0,0.0,0.0,0.0,0.0,0.0,0.0,0.0,0.0,0.0,0.0,0.0,0.0,0.0,0.0,0.0,0.0,0.0,-2.8011,0.0,0.0,0.0,0.0,0.0,0.0,0.0,0.0,0.0,-3.01,-3.0944,-3.1765,-3.2674,-3.4105,-3.5268,-3.5826,0.0,0.0,0.0,0.0,0.0,0.0,0.0,-3.5592,-3.4344,-3.4256,-3.4063,-3.3225,-3.3086,-3.3174,-3.3494,0.0,0.0,-3.201,-3.1017,-2.9906,-2.8824,-2.8171,-2.7517,-2.6639,-2.6483,-2.6478,0.0,0.0,0.0,0.0,0.0,0.0,0.0,0.0,-3.1924,-3.1608,0.0,-3.0056,0.0,0.0,0.0,0.0,-3.0549,-3.1702,0.0,0.0,-3.4121,-3.4729,-3.4331,-3.485,-3.4972,-3.4599,-3.5183,-3.4928,-3.3869,-3.2836,0.0,0.0,0.0,0.0,0.0,0.0,-3.1861,-3.3347,-3.4812,-3.5554,-3.5554,-3.5554,-3.5554,-3.5521,-3.4845,-3.3799,-3.2414,-3.1516,-3.0417,-2.9035,-2.8243,0.0,0.0,0.0,0.0,0.0,0.0,0.0,0.0,0.0,0.0,0.0,0.0,0.0,0.0,0.0,0.0,0.0,0.0,0.0,0.0,-2.7437,0.0,0.0,0.0,0.0,0.0,0.0,0.0,0.0,0.0,0.0,-3.0024,-3.0844,-3.1702,-3.276,0.0,0.0,0.0,0.0,-3.7288,-3.883,-3.7866,-3.7003,-3.7099,-3.6036,-3.4903,-3.4136,0.0,0.0,-3.3189,-3.3114,-3.3462,-3.4234,-3.3692,-3.2875,-3.2024,-3.1873,-3.1305,-2.9719,-2.9305,-2.9075,-2.8297,-2.7918,-2.7998,-3.7725,0.0,0.0,0.0,0.0,-3.4711,-3.4526,-3.4418,-3.3401,-3.2707,-3.2201,-3.1629,0.0,0.0,0.0,0.0,0.0,0.0,-3.3306,-3.3757,-3.4328,-3.4842,-3.5272,-3.5124,-3.5278,-3.5707,-3.5584,-3.5149,-3.4454,-3.3806,-3.2474,-3.0538,0.0,0.0,0.0,0.0,-3.098,-3.2451,-3.3806,-3.4496,-3.4616,-3.4592,-3.464,-3.4736,-3.4018,-3.3377,-3.2947,-3.1715,-3.0848,-3.0399,-2.9181,0.0,0.0,0.0,0.0,0.0,0.0,0.0,0.0,0.0,0.0,0.0,0.0,0.0,0.0,0.0,0.0,0.0,0.0,0.0,-2.7282,-2.761,-2.7839,0.0,0.0,0.0,0.0,0.0,0.0,0.0,0.0,0.0,-3.0127,-3.1279,-3.252,0.0,0.0,-3.616,-3.6643,-3.7188,-3.7535,-3.74,-3.7514,0.0,-3.6194,-3.5797,-3.536,-3.4671,-3.4704,-3.4596,-3.3851,-3.4315,-3.4729,-3.4455,-3.4195,-3.377,-3.2914,-3.2247,-3.1357,-2.9803,-2.938,-2.9105,-2.8336,-2.8116,-2.8106,-3.8968,-3.7898,-3.6859,-3.6278,-3.5973,-3.5615,-3.5405,-3.5224,-3.4293,-3.3634,-3.3268,-3.2609,-3.2096,-3.1825,-3.1878,0.0,0.0,0.0,-3.3955,-3.4334,-3.4305,-3.4677,-3.5333,-3.5098,-3.5327,-3.5976,-3.5953,-3.5582,-3.4993,-3.4457,-3.3189,-3.1243,0.0,0.0,-2.9977,-3.0105,-3.0858,-3.2272,-3.3362,-3.391,-3.4011,-3.4011,-3.4036,-3.4136,-3.3632,-3.3251,-3.2959,-3.2134,-3.1496,-3.1182,-2.9824,-2.8726,0.0,0.0,0.0,0.0,0.0,0.0,0.0,0.0,0.0,0.0,0.0,-2.6646,-2.6822,0.0,0.0,0.0,-2.6544,-2.6902,-2.7369,-2.7522,0.0,0.0,0.0,0.0,0.0,0.0,0.0,-2.7697,-2.7831,-2.8417,-2.9627,-3.1029,-3.2596,-3.4219,-3.5444,-3.6196,-3.6222,0.0,-3.7238,-3.6792,-3.6816,-3.6632,-3.5726,-3.5431,-3.5163,-3.4819,-3.4879,-3.478,-3.4098,-3.4745,-3.5155,-3.456,-3.4367,-3.4107,-3.3256,-3.2426,-3.1477,-3.0186,-2.9872,-2.9674,-2.9179,-2.9144,-2.9117,-3.9486,-3.8761,-3.7167,-3.6538,-3.652,-3.6243,-3.5849,-3.5365,-3.4737,-3.445,-3.4308,-3.3053,-3.2707,-3.2969,-3.2674,0.0,-3.3494,-3.398,-3.4197,-3.4225,-3.4096,-3.432,-3.4852,-3.4835,-3.5106,-3.5623,-3.6102,-3.6014,-3.5308,-3.4692,-3.3708,-3.2351,-3.0452,-3.0171,-3.1309,-3.0823,-3.1142,-3.2481,-3.324,-3.3591,-3.3591,-3.3591,-3.3591,-3.3591,-3.3591,-3.3272,-3.264,-3.2577,-3.2233,-3.1532,-3.0226,-2.9143,-2.8401,0.0,0.0,0.0,0.0,0.0,0.0,0.0,0.0,0.0,0.0,0.0,0.0,0.0,0.0,0.0,-2.5631,0.0,-2.7087,-2.7395,0.0,0.0,0.0,-2.7657,-2.7602,-2.8154,-2.8214,-2.7476,0.0,0.0,-2.8876,-3.0395,-3.2014,-3.3478,-3.4787,-3.5588,-3.5578,-3.6333,-3.6792,-3.6718,-3.6123,-3.5628,-3.5603,-3.5002,-3.4555,-3.462,-3.4763,-3.4538,-3.3883,-3.4587,-3.4916,-3.4224,-3.4168,-3.3964,-3.3218,-3.2333,-3.1483,-3.0714,-3.0559,-3.0559,-3.0491,-3.0517,-3.052,-3.9091,-3.8137,-3.7714,-3.7563,-3.7564,-3.6747,-3.6481,-3.6488,-3.5521,-3.4816,-3.4345,-3.3818,-3.358,-3.3664,-3.3826,-3.403,-3.4168,-3.427,-3.4353,-3.4325,-3.3919,-3.3916,-3.4284,-3.4289,-3.4509,-3.4817,-3.4953,-3.4695,-3.4122,-3.3485,-3.2816,-3.2079,-3.1083,-3.0649,-3.0639,-3.0483,-3.085,-3.1685,-3.2369,-3.2683,-3.2711,-3.2683,-3.2711,-3.2711,-3.2711,-3.2621,-3.2435,-3.2435,-3.2124,-3.1441,-3.0608,-2.9645,-2.8458,-2.7181,0.0,0.0,0.0,0.0,0.0,0.0,0.0,0.0,0.0,-2.6044,-2.6119,0.0,-2.5921,0.0,-2.7396,-2.7993,-2.7709,-2.7928,0.0,0.0,-2.7465,-2.7496,-2.7526,-2.7608,-2.7596,-2.7426,-2.7502,-2.8084,-2.9454,-3.0184,-3.1204,-3.3028,-3.5454,-3.6897,-3.6398,-3.7023,-3.7373,-3.6792,-3.6445,-3.6197,-3.5554,-3.4822,-3.4311,-3.4309,-3.4424,-3.4068,-3.2741,-3.3921,-3.4606,-3.3454,-3.3192,-3.3174,-3.3091,-3.1908,-3.0907,-3.0636,-3.0598,-3.0598,-3.0598,-3.066,-3.0697,-3.8945,-3.79,-3.79,-3.7919,-3.7891,-3.7377,-3.7093,-3.6959,-3.6332,-3.5574,-3.4763,-3.4312,-3.4137,-3.414,-3.4312,-3.4403,-3.4403,-3.4364,-3.4364,-3.4376,-3.358,-3.3365,-3.3714,-3.3485,-3.3385,-3.3508,-3.3693,-3.3547,-3.3086,-3.2494,-3.2109,-3.1899,-3.13,-3.0932,-3.0819,-3.0758,-3.1102,-3.1855,-3.2198,-3.2413,-3.2413,-3.2413,-3.2413,-3.2382,-3.2105,-3.1951,-3.1951,-3.1674,-3.1336,-3.0966,-3.0325,-2.9464,-2.8418,-2.7527,-2.6616,0.0,0.0,0.0,0.0,0.0,0.0,0.0,0.0,0.0,0.0,0.0,-2.6678,-2.7073,-2.7957,-2.8367,-2.8114,-2.7957,-2.7777,-2.7503,-2.7275,-2.7184,-2.7263,-2.7329,-2.7345,-2.7345,-2.7313,-2.781,-2.9081,-2.9712,-3.0587,-3.2078,-3.4398,-3.5775,-3.5469,-3.6112,-3.6414,-3.5651,-3.5552,-3.5416,-3.4959,-3.4513,-3.4067,-3.3745,-3.3741,-3.3332,-3.1849,-3.2751,-3.3387,-3.2407,-3.225,-3.2332,-3.2397,-3.1463,-3.0583,-3.0593,-3.0598,-3.0598,-3.0598,-3.0647,-3.0672,-3.8945,-3.79,-3.79,-3.79,-3.79,-3.79,-3.7612,-3.7116,-3.7037,-3.6358,-3.526,-3.4659,-3.4397,-3.4397,-3.4319,-3.4293,-3.4293,-3.4214,-3.4188,-3.411,-3.3064,-3.2791,-3.3155,-3.2607,-3.2231,-3.2117,-3.2466,-3.2491,-3.2173,-3.1575,-3.1351,-3.1537,-3.11,-3.0984,-3.119,-3.1194,-3.161,-3.2382,-3.2413,-3.2413,-3.2413,-3.2413,-3.2413,-3.2382,-3.1736,-3.1424,-3.1393,-3.0755,-3.0356,-3.0263,-2.971,-2.9095,-2.8442,-2.7946,-2.7159,0.0,-2.6052,0.0,0.0,0.0,0.0,0.0,0.0,0.0,0.0,-2.7211,-2.7349,-2.7581,-2.8058,-2.8319,-2.8352,-2.795,-2.7669,-2.7541,-2.7181,-2.6944,-2.6975,-2.7154,-2.7266,-2.7266,-2.7266,-2.7574,-2.843,-2.9257,-3.0155,-3.1177,-3.2712,-3.3797,-3.3763,-3.4587,-3.4967,-3.4153,-3.408,-3.4278,-3.4278,-3.4253,-3.3918,-3.3224,-3.3111,-3.2545,-3.11,-3.1636,-3.2089,-3.1553,-3.1453,-3.1533,-3.1669,-3.1058,-3.0554,-3.0545,-3.0593,-3.0598,-3.0602,-3.0591,-3.0599,-3.8945,-3.79,-3.79,-3.79,-3.79,-3.79,-3.7848,-3.7691,-3.722,-3.6358,-3.526,-3.4659,-3.4397,-3.4371,-3.3927,-3.3744,-3.3718,-3.3221,-3.3012,-3.2986,-3.2306,-3.2109,-3.2287,-3.2075,-3.2001,-3.2063,-3.155,-3.1394,-3.1547,-3.0482,-3.0102,-3.0409,-3.0325,-3.0388,-3.0658,0.0,0.0,0.0,-3.2413,-3.2413,-3.2413,-3.2413,-3.2413,-3.2382,-3.1736,0.0,-3.1366,-3.0782,-3.014,-2.9617,-2.9464,0.0,0.0,0.0,0.0,0.0,0.0,0.0,0.0,0.0,0.0,0.0,-2.7226,-2.7038,-2.6879,-2.7394,-2.7851,-2.8156,-2.8952,-2.9264,-2.8691,-2.8784,-2.8444,-2.7415,-2.7371,-2.7281,-2.6843,-2.6925,-2.7089,-2.7136,-2.7117,-2.7491,-2.838,-2.9207,-3.0055,-3.1008,-3.1984,-3.2662,-3.2898,-3.3876,-3.4346,-3.3853,-3.3887,-3.408,-3.4204,-3.4179,-3.3918,-3.3224,-3.3001,-3.2392,-3.1049,-3.1341,-3.1747,-3.1118,-3.1151,-3.1272,-3.1456,-3.0935,-3.0425,-3.051,-3.0579,-3.0598,-3.0598,-3.0621,-3.0617,-3.8133,-3.718,-3.718,-3.718,0.0,-3.7273,-3.732,-3.7341,-3.7378,-3.6802,-3.5652,-3.4789,-3.4397,-3.4371,-3.411,-3.3849,-3.3587,-3.3273,-3.2986,-3.2672,-3.2058,-3.1874,-3.1925,-3.1574,-3.1299,-3.1116,-3.0708,-3.0362,-3.0038,-2.9509,-2.9265,-2.9188,-2.931,-2.9526,-2.9808,-3.0358,-3.116,-3.2191,-3.2191,-3.2191,-3.2191,-3.2191,-3.2191,-3.2191,-3.1549,0.0,0.0,0.0,0.0,0.0,0.0,0.0,0.0,0.0,0.0,-2.7435,-2.7255,-2.7047,-2.6779,-2.6717,-2.6985,-2.7557,-2.7814,-2.7875,-2.7711,-2.8061,-2.8395,-2.8577,-2.9143,-2.931,-2.9034,-2.8898,-2.8591,-2.8036,-2.7637,-2.7211,-2.697,-2.6808,-2.6759,-2.6825,-2.6907,-2.7313,-2.8199,-2.9057,-2.992,-3.0803,-3.1568,-3.2126,-3.2353,-3.3068,-3.3584,-3.356,-3.3753,-3.3768,-3.3574,-3.3907,-3.3499,-3.2286,-3.2124,-3.1701,-3.0288,-3.0064,-3.0129,-3.019,-3.0081,-3.0067,-3.0675,-3.0522,-3.0334,-3.0436,-3.0479,-3.0505,-3.0559,-3.0593,-3.0625,-3.6997,-3.6102,-3.5978,-3.5953,-3.6001,-3.6166,-3.6332,-3.6474,0.0,0.0,0.0,-3.4871,-3.4376,-3.4272,-3.4168,-3.3871,-3.339,-3.3285,-3.292,-3.2385,-3.1876,-3.1641,-3.1615,-3.1209,-3.0738,-3.0257,-3.0153,-2.9712,-2.9003,-2.8936,-2.8699,-2.8442,-2.8465,-2.8729,-2.9113,-2.9806,-3.0687,-3.1596,-3.1768,-3.1826,-3.1824,-3.1826,-3.1826,-3.1796,-3.1162,-3.0558,-3.0014,-2.9354,-2.8751,-2.8208,-2.8082,-2.7996,-2.8022,-2.8025,-2.7716,-2.7176,-2.7361,-2.7318,-2.6926,-2.704,-2.7364,-2.7976,-2.8466,-2.8706,-2.8604,-2.8668,-2.8732,-2.8873,-2.8998,-2.9114,-2.9198,-2.8803,-2.8564,-2.8683,-2.7903,-2.7367,-2.7114,-2.6788,-2.6551,-2.6538,-2.6657,-2.7046,-2.7776,-2.8802,-2.9713,-3.042,-3.125,-3.1837,-3.1913,-3.2403,-3.2914,-3.3253,-3.3306,-3.3186,-3.2852,-3.3018,-3.2711,-3.0972,-3.1139,-3.101,-2.9768,-2.8869,-2.878,-2.9531,-2.911,-2.923,-2.9863,-3.0082,-3.0105,-3.0087,-3.0136,-3.01,-3.0029,-3.0196,-3.0351,-3.5449,-3.4807,-3.4406,-3.4265,-3.4265,-3.4533,-3.4945,-3.5474,-3.6227,-3.6122,-3.5436,-3.4838,-3.4272,-3.3784,-3.3322,-3.2931,-3.2524,-3.2018,-3.1591,-3.1235,-3.113,-3.1104,-3.1104,-3.1026,-3.0947,-3.0843,-3.0335,-3.0131,-3.0049,-2.9196,-2.8735,-2.8738,-2.8385,-2.8471,-2.9113,-2.9523,-2.9929,-3.0358,-3.0866,-3.1161,-3.1161,-3.1161,-3.1161,-3.1131,-3.0481,-3.0126,-2.998,-2.9359,-2.8948,-2.886,-2.8355,-2.8086,-2.8057,-2.7606,-2.7221,-2.7132,-2.7314,-2.77,-2.8404,-2.8617,-2.9042,-2.9894,-3.0074,-2.9693,-2.8697,-2.8597,-2.8668,-2.8818,-2.8904,-2.8858,-2.8967,-2.8996,-2.8881,-2.8443,-2.8405,-2.8033,-2.6906,-2.6831,-2.6675,-2.629,-2.6435,-2.6674,-2.7097,-2.8391,-2.9472,-2.9851,-3.0938,-3.1802,-3.193,-3.2144,-3.247,-3.2643,-3.2384,-3.2126,-3.2087,-3.179,-3.1359,-3.05,-3.0471,-3.045,-2.9572,-2.9184,-2.9167,-2.9401,-2.9314,-2.9392,-2.9662,-2.9775,-2.9596,-2.9208,-2.9108,-2.8957,-2.8526,-2.8951,-2.9679,-3.4543,-3.3782,-3.3582,-3.3307,-3.3128,-3.3525,-3.4042,-3.4557,-3.5063,-3.5189,-3.494,-3.4159,-3.3633,-3.3358,-3.2807,-3.2382,-3.206,-3.2077,-3.1869,-3.1565,-3.146,-3.1444,-3.1418,-3.113,-3.1011,-3.1011,-3.0738,-3.0487,-3.022,-2.9695,-2.9153,-2.8652,-2.8146,-2.8151,-2.8568,-2.8798,-2.9026,-2.9306,-3.0113,-3.0539,-3.0628,-3.0628,-3.0687,-3.0777,-3.0485,-3.0163,-2.9783,-2.9491,-2.9171,-2.8793,-2.8529,-2.8209,-2.7915,-2.7915,-2.7769,-2.7477,-2.7874,-2.8441,-2.9032,-2.938,-2.9737,-3.0151,-3.0177,-2.9959,-2.9424,-2.9489,-2.9589,-2.9639,-2.9695,-2.9714,-2.9806,-2.9953,-2.9768,-2.9194,-2.9044,-2.8509,-2.7603,-2.6901,-2.6549,-2.6381,-2.6297,-2.6347,-2.6504,-2.8133,-2.9264,-2.9505,-3.0762,-3.1784,-3.1855,-3.1948,-3.2144,-3.2349,-3.203,-3.1556,-3.129,-3.1206,-3.0644,-2.971,-2.9987,-2.9991,-2.9471,-2.9079,-2.8951,-2.9258,-2.9123,-2.9063,-2.9448,-2.9287,-2.8969,-2.8766,-2.8297,-2.8093,-2.83,-2.8824,-2.9327,-3.3482,-3.2713,-3.2581,-3.2303,-3.2015,-3.2448,-3.2951,-3.3499,-3.3796,-3.4074,-3.4197,-3.346,-3.306,-3.2889,-3.2396,-3.1988,-3.1734,-3.2106,-3.2162,-3.1873,-3.1707,-3.1643,-3.1591,-3.1109,-3.0861,-3.0861,-3.0861,-3.0626,-3.0199,-3.0043,-2.9392,-2.8369,-2.8043,-2.7954,-2.7947,-2.8151,-2.8346,-2.8536,-2.9279,-2.9808,-3.0021,-3.0083,-3.0205,-3.0357,-3.0357,-3.0126,-2.9635,-2.9606,-2.9376,-2.8886,-2.8713,-2.8397,-2.7965,-2.8224,-2.8196,-2.7821,-2.8279,-2.8851,-2.9361,-2.9896,-3.0232,-3.0232,-3.0232,-3.0232,-3.0259,-3.0421,-3.0483,-3.037,-3.0299,-3.0381,-3.05,-3.0658,-3.051,-2.9946,-2.9509,-2.891,-2.817,-2.7264,-2.6677,-2.6707,-2.6496,-2.6465,-2.6869,-2.8016,-2.9048,-2.9671,-3.0809,-3.1657,-3.1726,-3.1744,-3.1875,-3.1934,-3.1613,-3.0965,-3.0417,-3.017,-2.9773,-2.8784,-2.9345,-2.9547,-2.9204,-2.8719,-2.8633,-2.92,-2.8944,-2.8882,-2.9371,-2.8933,-2.8398,-2.813,-2.7536,-2.7358,-2.8238,-2.8369,-2.88,-3.203,-3.155,-3.1186,-3.0832,-3.0672,-3.094,-3.1403,-3.1913,-3.237,-3.2773,-3.3063,-3.3126,-3.2875,-3.2442,-3.1958,-3.1516,-3.1247,-3.1667,-3.1689,-3.1411,-3.1272,-3.1253,-3.1227,-3.0727,-3.0444,-3.0444,-3.0444,-3.0355,-3.0252,-2.9753,-2.8995,-2.8004,-2.8161,-2.8072,-2.7668,-2.7947,-2.8112,-2.8145,-2.8379,-2.8707,-2.918,-2.9369,-2.9554,-2.971,-2.971,-2.9682,-2.9569,-2.9594,-2.9597,-2.9454,-2.8977,-2.8667,-2.8554,-2.816,-2.7879,-2.7822,-2.7995,-2.8483,-2.9493,-3.0426,-3.0895,-3.0895,-3.0865,-3.0865,-3.0895,-3.0895,-3.0735,-3.0384,-3.0234,-3.04,-3.0567,-3.068,-3.0514,-3.0024,-2.9855,-2.9272,-2.8323,-2.7955,-2.7739,-2.7179,-2.7322,-2.7555,-2.7709,-2.8238,-2.8986,-2.9829,-3.0757,-3.1481,-3.15,-3.1557,-3.1598,-3.145,-3.0663,-3.0003,-2.9787,-2.882,-2.8507,-2.8398,-2.8585,-2.8858,-2.8973,-2.9082,-2.9206,-2.9164,-2.9312,-2.9248,-2.9157,-2.8721,-2.7875,-2.7391,-2.6837,-2.6414,-2.7236,-2.7332,-2.7555,-3.2023,-3.136,-3.1228,-3.0817,-3.0454,-3.0547,-3.0858,-3.1373,-3.1761,-3.2088,-3.2325,-3.2319,-3.2178,-3.202,-3.1177,-3.0819,-3.0853,-3.1268,-3.152,-3.1467,-3.1414,-3.1198,-3.0863,-3.0363,-2.9963,-2.9677,-2.9626,-2.9613,-2.9551,-2.9024,-2.8487,-2.8025,-2.7727,-2.7494,-2.7472,-2.7444,-2.7556,-2.7723,-2.7921,-2.8183,-2.8509,-2.8858,-2.9145,-2.9303,-2.9303,-2.9334,-2.9303,-2.9303,-2.9334,-2.9275,-2.9084,-2.8809,-2.8568,-2.8652,-2.8629,-2.841,-2.8902,-2.9424,-2.9892,-3.0452,-3.0777,-3.0747,-3.0777,-3.0777,-3.0777,-3.0777,-3.069,-3.0651,-3.0897,-3.1174,-3.1393,-3.1582,-3.1411,-3.0876,-3.0722,-3.037,-2.9626,-2.9217,-2.8834,-2.8288,-2.7993,-2.7721,-2.7676,-2.8221,-2.8973,-2.9713,-3.0454,-3.0985,-3.1078,-3.1176,-3.1293,-3.1291,-3.0583,-2.9988,-2.9694,-2.905,-2.8453,-2.8187,-2.8304,-2.8563,-2.8761,-2.8964,-2.9055,-2.916,-2.9167,-2.9211,-2.9265,-2.8174,-2.7192,-2.6795,-2.6869,-2.6756,-2.7275,-2.7193,-2.7568,-3.2002,-3.1236,-3.105,-3.0722,-3.0308,-3.0287,-3.0547,-3.0961,-3.127,-3.1505,-3.1768,-3.1578,-3.1502,-3.1414,-3.0603,-3.0262,-3.0375,-3.0847,-3.1205,-3.1311,-3.1312,-3.1034,-3.0538,-2.9984,-2.9422,-2.9022,-2.8949,-2.8949,-2.89,-2.8543,-2.8212,-2.8006,-2.7471,-2.7221,-2.7278,-2.7094,-2.7148,-2.7382,-2.7556,-2.7723,-2.7914,-2.8276,-2.8605,-2.8922,-2.8986,-2.8986,-2.8986,-2.8986,-2.8986,-2.8954,-2.899,-2.8892,-2.8632,-2.9115,-2.9264,-2.9026,-2.9579,-2.9958,-2.9958,-3.0203,-3.0326,-3.0326,-3.0326,-3.0326,-3.0326,-3.0326,-3.0387,-3.051,-3.1014,-3.1392,-3.1853,-3.2135,-3.1995,-3.1413,-3.129,-3.1067,-3.0495,-3.0047,-2.9683,-2.9356,-2.885,-2.8149,-2.7686,-2.833,-2.9174,-2.9268,-2.9939,-3.0518,-3.0621,-3.0777,-3.0938,-3.1123,-3.0783,-3.0443,-2.9955,-2.9169,-2.8623,-2.8282,-2.8266,-2.8251,-2.8474,-2.8601,-2.8725,-2.8713,-2.8857,-2.8936,-2.8942,-2.7964,-2.6847,-2.6674,-2.6664,-2.6733,-2.6709,-2.6942,-2.7044,-3.1547,-3.0719,-3.0243,-3.0077,-2.9994,-3.0047,-3.0183,-3.0495,-3.0754,-3.1013,-3.1206,-3.1026,-3.0937,-3.0877,-3.0367,-2.998,-2.9736,-3.0306,-3.0623,-3.0666,-3.0791,-3.0591,-3.0103,-2.9532,-2.8963,-2.8483,-2.8459,-2.8459,-2.8498,-2.8474,-2.821,-2.7729,-2.7714,-2.7469,-2.7074,-2.7091,-2.7142,-2.7122,-2.7275,-2.7341,-2.7374,-2.7482,-2.7881,-2.8411,-2.8633,-2.86,-2.86,-2.8633,-2.86,-2.8633,-2.8702,-2.8839,-2.9026,-2.9275,-2.9401,-2.9498,-2.9588,-2.9617,-2.9617,-2.962,-2.9651,-2.9679,-2.9682,-2.9679,-2.9741,-2.9741,-2.9806,-2.987,-3.0266,-3.0718,-3.1364,-3.1739,-3.1695,-3.1177,-3.1025,-3.0779,-3.0247,-3.022,-3.0252,-3.0243,-2.9732,-2.8979,-2.8149,-2.8869,-2.9155,-2.9092,-2.9619,-3.0172,-3.0194,-3.0342,-3.0572,-3.0764,-3.0884,-3.0987,-3.0607,-2.9591,-2.8773,-2.8394,-2.8087,-2.7847,-2.7954,-2.8106,-2.8192,-2.8324,-2.8502,-2.8567,-2.8614,-2.8066,-2.71,-2.6607,-2.6182,-2.6142,-2.6255,-2.6026,-2.6169,-3.0933,-3.0099,-2.9652,-2.9554,-2.9732,-2.9711,-2.9973,-3.0391,-3.0287,-3.0568,-3.0858,-3.0687,-3.0483,-3.0385,-2.9888,-2.9663,-2.9675,-2.9873,-2.9988,-3.017,-3.0347,-2.9989,-2.9262,-2.8962,-2.8449,-2.7772,-2.7655,-2.7679,-2.7679,-2.7679,-2.7585,-2.7375,-2.7223,-2.7118,-2.7103,-2.7028,-2.7054,-2.7243,-2.7351,-2.7212,-2.6922,-2.6907,-2.693,-2.6892,-2.753,-2.7888,-2.7888,-2.7888,-2.7888,-2.7888,-2.7954,-2.8091,-2.8379,-2.8729,-2.8922,-2.8958,-2.9053,-2.9089,-2.9117,-2.9212,-2.9303,-2.9303,-2.9429,-2.9491,-2.9491,-2.9554,-2.9648,-2.9713,-2.996,-3.0326,-3.0598,-3.1073,-3.1275,-3.1067,-3.1007,-3.0917,-3.0738,-3.0648,-3.0614,-3.0355,-2.9963,-2.9511,-2.9131,-2.931,-2.9344,-2.8861,-2.9107,-2.9393,-2.9515,-2.9694,-2.9968,-3.0246,-3.0477,-3.0677,-3.0813,-2.9881,-2.9039,-2.8481,-2.8068,-2.7817,-2.7803,-2.7861,-2.7954,-2.8024,-2.8161,-2.8347,-2.8382,-2.8162,-2.7206,-2.628,-2.5894,-2.5838,-2.5872,-2.5672,-2.5756,-2.9569,-2.9036,-2.8666,-2.8741,-2.9026,-2.9217,-2.9481,-2.9816,-2.9659,-2.9764,-3.0026,-2.9921,-2.9839,-2.9692,-2.935,-2.9302,-2.9519,-2.9333,-2.9393,-2.9646,-2.9852,-2.9533,-2.8783,-2.8669,-2.8259,-2.7596,-2.7364,-2.7401,-2.7438,-2.7282,-2.719,-2.7185,-2.6961,-2.6946,-2.7152,-2.6975,-2.7028,-2.716,-2.7224,-2.7029,-2.6712,-2.6651,-2.6517,-2.6344,-2.6932,-2.7181,-2.7011,-2.696,-2.6985,-2.696,-2.6994,-2.7196,-2.7537,-2.7861,-2.8091,-2.8157,-2.8352,-2.8454,-2.8578,-2.8771,-2.8958,-2.9022,-2.918,-2.9334,-2.9397,-2.9523,-2.9585,-2.9648,-2.9772,-2.9927,-3.0019,-3.0296,-3.0657,-3.0807,-3.0866,-3.0896,-3.0837,-3.0661,-3.0219,-2.9703,-2.9675,-2.9602,-2.9404,-2.9421,-2.9323,-2.8938,-2.8919,-2.8928,-2.9021,-2.9198,-2.947,-2.9772,-3.0011,-3.0288,-3.0281,-2.9566,-2.909,-2.8596,-2.7748,-2.7558,-2.7572,-2.7632,-2.7657,-2.773,-2.7876,-2.8087,-2.8105,-2.7949,-2.7196,-2.6123,-2.5724,-2.5661,-2.5541,-2.5342,-2.5356,-2.7476,-2.7476,-2.7384,-2.7618,-2.7941,-2.8475,-2.8688,-2.8741,-2.8741,-2.8741,-2.8794,-2.8741,-2.8933,-2.9036,-2.8809,-2.8778,-2.8965,-2.88,-2.8883,-2.9093,-2.9347,-2.9216,-2.8656,-2.8634,-2.841,-2.7938,-2.775,-2.7713,-2.7897,-2.7529,-2.7259,-2.719,-2.7144,-2.7094,-2.7027,-2.7003,-2.6963,-2.6924,-2.6928,-2.6832,-2.6798,-2.6737,-2.6689,-2.6678,-2.6729,-2.6517,-2.5984,-2.6005,-2.6074,-2.6015,-2.607,-2.6252,-2.6603,-2.6841,-2.701,-2.7211,-2.7504,-2.7769,-2.7966,-2.832,-2.8573,-2.8675,-2.8926,-2.9085,-2.918,-2.9369,-2.9491,-2.9491,-2.9523,-2.9554,-2.9554,-2.9588,-2.9867,-3.0447,-3.0507,-3.0538,-3.0364,-2.9958,-2.9287,-2.8739,-2.9098,-2.9369,-2.9213,-2.9205,-2.924,-2.9279,-2.8989,-2.8716,-2.8794,-2.8951,-2.9175,-2.9425,-2.9595,-2.9793,-2.9564,-2.9242,-2.8987,-2.8617,-2.7675,-2.7104,-2.7247,-2.7341,-2.7357,-2.7434,-2.7567,-2.7789,-2.8057,-2.7859,-2.7308,-2.6439,-2.6025,-2.5414,-2.4995,-2.4745,-2.4688,-2.6862,-2.6862,-2.6862,-2.7025,-2.7314,-2.7833,-2.7975,-2.7833,-2.7994,-2.7994,-2.7887,-2.7994,-2.8262,-2.8483,-2.8528,-2.8513,-2.8416,-2.8084,-2.8126,-2.8531,-2.8839,-2.8668,-2.8316,-2.8228,-2.8143,-2.803,-2.8111,-2.8054,-2.797,-2.7786,-2.7598,-2.7259,-2.719,-2.7203,-2.71,-2.714,-2.7128,-2.7092,-2.7069,-2.6946,-2.6659,-2.6613,-2.645,-2.6085,-2.6039,-2.5928,-2.5798,-2.5924,-2.6045,-2.5997,-2.5729,-2.5652,-2.5896,-2.6114,-2.6252,-2.6321,-2.6756,-2.7053,-2.7129,-2.7583,-2.7908,-2.7954,-2.8183,-2.8352,-2.8476,-2.8761,-2.8917,-2.8949,-2.8922,-2.8922,-2.8922,-2.8922,-2.9236,-2.9837,-2.9898,-2.9759,-2.9421,-2.891,-2.8541,-2.8534,-2.8757,-2.9127,-2.9463,-2.9352,-2.9026,-2.9394,-2.8844,-2.8314,-2.8508,-2.8645,-2.8787,-2.8943,-2.9129,-2.9257,-2.9131,-2.8726,-2.8212,-2.7997,-2.7376,-2.6809,-2.6941,-2.7023,-2.7073,-2.717,-2.731,-2.7537,-2.777,-2.7736,-2.7228,-2.6706,-2.6145,-2.5392,-2.4481,-2.4182,-2.4229,-2.5898,-2.5898,-2.5953,-2.6118,-2.6373,-2.6898,-2.706,-2.6971,-2.7114,-2.706,-2.6971,-2.7133,-2.7349,-2.7596,-2.776,-2.774,-2.7558,-2.7022,-2.695,-2.7373,-2.7946,-2.7946,-2.7711,-2.769,-2.7837,-2.794,-2.7988,-2.7965,-2.7957,-2.764,-2.7302,-2.7012,-2.687,-2.688,-2.6921,-2.7026,-2.7108,-2.719,-2.7167,-2.707,-2.6818,-2.6749,-2.6611,-2.6313,-2.6267,-2.629,-2.6283,-2.6285,-2.6042,-2.5641,-2.5181,-2.4969,-2.5076,-2.5158,-2.53,-2.5489,-2.5987,-2.6392,-2.6497,-2.7107,-2.7496,-2.7601,-2.7782,-2.7988,-2.809,-2.8362,-2.8531,-2.8531,-2.8557,-2.8531,-2.8557,-2.8531,-2.8719,-2.9002,-2.9291,-2.9149,-2.8743,-2.8441,-2.8309,-2.8455,-2.8684,-2.9203,-2.949,-2.9247,-2.8847,-2.9268,-2.8583,-2.794,-2.8162,-2.8356,-2.8453,-2.8542,-2.8708,-2.8818,-2.8826,-2.8265,-2.7476,-2.7218,-2.6953,-2.67,-2.6674,-2.6691,-2.6759,-2.6859,-2.7005,-2.7181,-2.7437,-2.7695,-2.7472,-2.6871,-2.6165,-2.5408,-2.4621,-2.405,-2.3966,-2.4864,-2.4847,-2.483,-2.5034,-2.5331,-2.5935,-2.61,-2.6063,-2.6154,-2.61,-2.6063,-2.6154,-2.63,-2.6499,-2.6811,-2.6869,-2.6574,-2.6058,-2.573,-2.601,-2.6574,-2.701,-2.6921,-2.6948,-2.7143,-2.7504,-2.7302,-2.7387,-2.7558,-2.6909,-2.6541,-2.6303,-2.6189,-2.626,-2.6426,-2.6715,-2.6944,-2.7149,-2.719,-2.7167,-2.7121,-2.7185,-2.7144,-2.7098,-2.7075,-2.7052,-2.7001,-2.6645,-2.6,-2.505,-2.4724,-2.4576,-2.4411,-2.4292,-2.4567,-2.4831,-2.5415,-2.5935,-2.6298,-2.6883,-2.7373,-2.747,-2.7628,-2.7912,-2.8005,-2.8119,-2.8227,-2.8252,-2.8278,-2.8293,-2.8303,-2.8267,-2.8286,-2.8273,-2.8666,-2.882,-2.8741,-2.8635,-2.8388,-2.8281,-2.874,-2.9229,-2.9406,-2.9058,-2.8991,-2.9037,-2.8393,-2.7944,-2.7966,-2.8116,-2.8118,-2.8155,-2.8229,-2.835,-2.836,-2.7914,-2.7246,-2.7328,-2.6936,-2.6588,-2.6394,-2.6399,-2.6435,-2.6556,-2.6742,-2.6891,-2.7101,-2.7369,-2.7267,-2.6683,-2.5994,-2.5412,-2.4955,-2.449,-2.4269,-2.5223,-2.5189,-2.4932,-2.4868,-2.4979,-2.5569,-2.5514,-2.5255,-2.5624,-2.5569,-2.5311,-2.5624,-2.5844,-2.5935,-2.6372,-2.6439,-2.609,-2.5869,-2.5592,-2.5404,-2.5601,-2.5683,-2.5586,-2.5732,-2.6003,-2.6252,-2.6323,-2.631,-2.6218,-2.5997,-2.5546,-2.4931,-2.5244,-2.5466,-2.5759,-2.6155,-2.6674,-2.7108,-2.719,-2.7149,-2.7149,-2.7149,-2.719,-2.719,-2.719,-2.7149,-2.7144,-2.6726,-2.6175,-2.5578,-2.5394,-2.5302,-2.5256,-2.5256,-2.5248,-2.537,-2.5826,-2.617,-2.6306,-2.6689,-2.6986,-2.7037,-2.7246,-2.736,-2.7372,-2.7558,-2.7643,-2.768,-2.768,-2.7668,-2.7668,-2.7668,-2.7759,-2.8023,-2.8219,-2.8381,-2.8566,-2.8296,-2.7989,-2.7935,-2.8162,-2.8474,-2.8761,-2.8652,-2.857,-2.8914,-2.8413,-2.7721,-2.7839,-2.7586,-2.7509,-2.7484,-2.756,-2.776,-2.7783,-2.7384,-2.7234,-2.7458,-2.7116,-2.6523,-2.6287,-2.6129,-2.6152,-2.6243,-2.6486,-2.6674,-2.6841,-2.7085,-2.6711,-2.6432,-2.6161,-2.575,-2.5513,-2.5149,-2.5143,-2.5378,-2.54,-2.4967,-2.483,-2.483,-2.52,-2.5145,-2.4923,-2.5145,-2.5145,-2.4923,-2.5145,-2.5311,-2.5366,-2.5679,-2.5682,-2.545,-2.5272,-2.5058,-2.4863,-2.4667,-2.4703,-2.4764,-2.4888,-2.4952,-2.5178,-2.5275,-2.5315,-2.5273,-2.5145,-2.4707,-2.4434,-2.4381,-2.4655,-2.5144,-2.5465,-2.5946,-2.6509,-2.6655,-2.6655,-2.6655,-2.6655,-2.6655,-2.6655,-2.6655,-2.6655,-2.6588,-2.6363,-2.6142,-2.5988,-2.583,-2.5716,-2.5716,-2.5716,-2.5716,-2.5716,-2.6109,-2.6364,-2.645,-2.6745,-2.6964,-2.7003,-2.7081,-2.712,-2.7183,-2.7252,-2.729,-2.7338,-2.729,-2.729,-2.7281,-2.7253,-2.7456,-2.7812,-2.7825,-2.7993,-2.8608,-2.8401,-2.8213,-2.8188,-2.8246,-2.836,-2.8812,-2.84,-2.8498,-2.8651,-2.8082,-2.7787,-2.7769,-2.7299,-2.7003,-2.7091,-2.7163,-2.7395,-2.75,-2.7182,-2.7113,-2.7327,-2.7136,-2.6535,-2.6338,-2.6075,-2.5933,-2.6049,-2.6236,-2.6399,-2.6539,-2.6691,-2.6655,-2.6459,-2.6274,-2.61,-2.5802,-2.5708,-2.5735,-2.5406,-2.5338,-2.4923,-2.4735,-2.4718,-2.4701,-2.4757,-2.4774,-2.4812,-2.483,-2.483,-2.483,-2.4868,-2.483,-2.4979,-2.4868,-2.4834,-2.4651,-2.4476,-2.4287,-2.4153,-2.4158,-2.4455,-2.4176,-2.4126,-2.4251,-2.4282,-2.4393,-2.4361,-2.4149,-2.4029,-2.3814,-2.364,-2.3951,-2.4375,-2.4602,-2.5019,-2.555,-2.5612,-2.5569,-2.5569,-2.5569,-2.5569,-2.5569,-2.5675,-2.5675,-2.5675,-2.5694,-2.581,-2.6262,-2.5926,-2.5874,-2.5867,-2.586,-2.5922,-2.6014,-2.6375,-2.6622,-2.6628,-2.6967,-2.718,-2.7174,-2.7157,-2.719,-2.7174,-2.7209,-2.7209,-2.7227,-2.7208,-2.7215,-2.7186,-2.7109,-2.7316,-2.7631,-2.7618,-2.7931,-2.8298,-2.8514,-2.8563,-2.8675,-2.8652,-2.8803,-2.8821,-2.8671,-2.8407,-2.8827,-2.8247,-2.7997,-2.7881,-2.7563,-2.7273,-2.7128,-2.7115,-2.7065,-2.7119,-2.7021,-2.706,-2.7146,-2.6918,-2.6567,-2.6481,-2.6247,-2.5958,-2.585,-2.5924,-2.6008,-2.6134,-2.6261,-2.6367,-2.6404,-2.6233,-2.6043,-2.59,-2.596,-2.5987,-2.5319,-2.502,-2.467,-2.4355,-2.4161,-2.4384,-2.4496,-2.4552,-2.4701,-2.483,-2.483,-2.483,-2.483,-2.483,-2.483,-2.483,-2.483,-2.471,-2.4693,-2.4641,-2.4282,-2.4012,-2.3896,-2.3565,-2.3234,-2.3175,-2.3038,-2.3088,-2.3085,-2.3164,-2.2807,-2.2606,-2.2943,-2.3136,-2.3529,-2.3693,-2.3949,-2.4463,-2.4415,-2.4358,-2.4337,-2.4337,-2.4317,-2.4296,-2.4445,-2.4488,-2.4531,-2.4701,-2.4914,-2.5271,-2.5848,-2.621,-2.6472,-2.6697,-2.6754,-2.6777,-2.6869,-2.7047,-2.703,-2.7098,-2.719,-2.719,-2.719,-2.719,-2.719,-2.719,-2.719,-2.719,-2.719,-2.719,-2.7208,-2.7319,-2.7362,-2.7426,-2.7546,-2.7589,-2.7712,-2.7892,-2.8028,-2.8047,-2.8118,-2.832,-2.8665,-2.8684,-2.8651,-2.8875,-2.8614,-2.8292,-2.7989,-2.7711,-2.7428,-2.7117,-2.6888,-2.6852,-2.7002,-2.6945,-2.6904,-2.6942,-2.6729,-2.6626,-2.6562,-2.6332,-2.602,-2.5731,-2.554,-2.5672,-2.6026,-2.5942,-2.6122,-2.6155,-2.6182,-2.6151,-2.6117,-2.6179,-2.627,-2.4946,-2.472,-2.4217,-2.3951,-2.3926,-2.4116,-2.4256,-2.4423,-2.4663,-2.483,-2.483,-2.483,-2.483,-2.483,-2.483,-2.483,-2.483,-2.483,-2.4812,-2.4778,-2.4556,-2.4196,-2.3787,-2.3443,-2.3134,-2.2705,-2.2653,-2.2603,-2.2603,-2.2585,-2.2583,-2.2294,-2.2467,-2.2774,-2.3019,-2.3075,-2.3309,-2.3654,-2.3686,-2.3613,-2.3462,-2.3423,-2.3286,-2.3193,-2.326,-2.3304,-2.3347,-2.3454,-2.3671,-2.4186,-2.5061,-2.5975,-2.6531,-2.6962,-2.7149,-2.719,-2.719,-2.719,-2.719,-2.719,-2.719,-2.7213,-2.719,-2.719,-2.719,-2.719,-2.719,-2.719,-2.719,-2.719,-2.7231,-2.7249,-2.7308,-2.7312,-2.7355,-2.7301,-2.7129,-2.7361,-2.7804,-2.7859,-2.7859,-2.8061,-2.8259,-2.8305,-2.832,-2.8282,-2.7945,-2.7612,-2.7693,-2.7456,-2.7294,-2.7019,-2.6717,-2.6638,-2.6889,-2.6903,-2.6759,-2.6722,-2.6664,-2.6639,-2.6647,-2.638,-2.6059,-2.5947,-2.5895,-2.5891,-2.615,-2.6011,-2.5805,-2.5747,-2.5801,-2.6086,-2.6264,-2.6185,-2.6353,-2.4248,-2.4154,-2.3591,-2.3452,-2.3556,-2.3626,-2.3746,-2.4033,-2.4368,-2.4368,-2.4479,-2.4535,-2.4368,-2.4479,-2.4535,-2.459,-2.4646,-2.4663,-2.4552,-2.4573,-2.4501,-2.4221,-2.3798,-2.3542,-2.327,-2.2689,-2.262,-2.2603,-2.2603,-2.2603,-2.2568,-2.2567,-2.2443,-2.26,-2.285,-2.2739,-2.2717,-2.2917,-2.2954,-2.2917,-2.2722,-2.2712,-2.2526,-2.2229,-2.2113,-2.2138,-2.2183,-2.2227,-2.2441,-2.2959,-2.3934,-2.49,-2.5808,-2.6752,-2.719,-2.7194,-2.7201,-2.7182,-2.7163,-2.7179,-2.7198,-2.719,-2.7194,-2.7194,-2.7175,-2.7201,-2.7182,-2.7133,-2.7133,-2.7043,-2.7099,-2.7008,-2.7026,-2.7062,-2.7126,-2.6984,-2.6794,-2.7085,-2.7529,-2.7703,-2.7498,-2.7521,-2.7617,-2.7661,-2.7699,-2.7611,-2.7255,-2.7067,-2.7162,-2.7243,-2.7116,-2.7081,-2.6816,-2.6455,-2.6608,-2.6666,-2.6544,-2.6292,-2.6309,-2.6347,-2.638,-2.6096,-2.584,-2.6377,-2.6459,-2.6366,-2.6115,-2.5851,-2.5624,-2.5392,-2.5438,-2.5705,-2.5957,-2.6137,-2.6314,-2.318,-2.2913,-2.2809,-2.2468,-2.211,-2.247,-2.259,-2.2585,-2.3022,-2.3287,-2.3247,-2.3287,-2.3231,-2.336,-2.3641,-2.3809,-2.396,-2.4033,-2.4033,-2.4089,-2.4072,-2.39,-2.3749,-2.3533,-2.325,-2.2997,-2.2808,-2.2654,-2.2603,-2.2603,-2.2603,-2.2585,-2.2567,-2.2615,-2.2562,-2.2354,-2.2289,-2.2272,-2.2153,-2.203,-2.1925,-2.1854,-2.1743,-2.1391,-2.1309,-2.1212,-2.1158,-2.123,-2.15,-2.208,-2.2836,-2.3615,-2.4606,-2.6119,-2.6933,-2.6998,-2.6976,-2.6889,-2.6911,-2.7042,-2.7151,-2.7173,-2.7085,-2.7107,-2.7107,-2.7107,-2.6998,-2.6976,-2.6821,-2.6667,-2.671,-2.6506,-2.649,-2.6592,-2.6775,-2.694,-2.707,-2.7168,-2.7152,-2.7148,-2.7024,-2.7017,-2.7234,-2.7243,-2.7041,-2.6994,-2.6764,-2.6693,-2.6789,-2.6935,-2.6987,-2.7003,-2.6987,-2.6604,-2.6311,-2.6293,-2.6217,-2.5765,-2.5659,-2.5651,-2.5637,-2.5506,-2.5627,-2.6296,-2.6474,-2.6301,-2.6028,-2.5784,-2.5602,-2.5507,-2.5441,-2.5426,-2.5713,-2.6012,-2.602,-2.1442,-2.1292,-2.1142,-2.0971,-2.0777,-2.0948,-2.1044,-2.1104,-2.139,-2.1544,-2.1544,-2.1544,-2.1658,-2.19,-2.2353,-2.2821,-2.3287,-2.3416,-2.3416,-2.3456,-2.3568,-2.3612,-2.3573,-2.3432,-2.3349,-2.3168,-2.2912,-2.2723,-2.262,-2.2603,-2.2603,-2.2603,-2.2603,-2.2603,-2.2568,-2.2414,-2.2175,-2.2038,-2.197,-2.1884,-2.173,-2.1713,-2.1508,-2.1247,-2.1088,-2.1078,-2.1107,-2.1136,-2.141,-2.1931,-2.2673,-2.3232,-2.3985,-2.4938,-2.6033,-2.6048,-2.6079,-2.6059,-2.5993,-2.5993,-2.5951,-2.6017,-2.6148,-2.6217,-2.6262,-2.6286,-2.6415,-2.6396,-2.629,-2.6059,-2.5848,-2.5787,-2.5913,-2.6115,-2.6385,-2.6738,-2.7067,-2.7149,-2.6967,-2.676,-2.6885,-2.7019,-2.7195,-2.7005,-2.654,-2.6339,-2.6208,-2.6223,-2.6371,-2.6417,-2.6485,-2.6683,-2.6577,-2.6143,-2.5791,-2.5703,-2.5612,-2.5217,-2.5021,-2.5003,-2.5146,-2.5146,-2.5625,-2.6326,-2.6331,-2.6146,-2.6257,-2.6145,-2.5869,-2.566,-2.5853,-2.5956,-2.5823,-2.5798,-2.5779,-1.989,-1.9865,-1.9588,-1.9575,-1.9683,-1.9598,-1.9562,-1.9752,-1.9819,-1.9855,-1.9855,-1.9855,-2.0042,-2.04,-2.0973,-2.1714,-2.2611,-2.2611,-2.2554,-2.2611,-2.278,-2.2943,-2.3155,-2.3163,-2.3062,-2.2895,-2.2749,-2.2774,-2.2671,-2.2603,-2.2603,-2.2603,-2.2603,-2.2603,-2.2585,-2.2551,-2.2379,-2.2362,-2.2414,-2.2414,-2.2225,-2.2021,-2.1867,-2.1542,-2.1456,-2.1371,-2.1367,-2.135,-2.1531,-2.1926,-2.2474,-2.3044,-2.3365,-2.403,-2.4447,-2.4512,-2.4702,-2.4868,-2.4954,-2.4993,-2.5166,-2.5185,-2.5159,-2.5231,-2.5297,-2.549,-2.5568,-2.5533,-2.5386,-2.5265,-2.5067,-2.5047,-2.5286,-2.5552,-2.5847,-2.6223,-2.6636,-2.6779,-2.6738,-2.6666,-2.6829,-2.6853,-2.6862,-2.688,-2.6457,-2.5957,-2.578,-2.5589,-2.566,-2.5535,-2.5658,-2.6002,-2.5995,-2.555,-2.5211,-2.5005,-2.4823,-2.4476,-2.4364,-2.434,-2.4661,-2.4952,-2.5467,-2.5868,-2.6075,-2.595,-2.6213,-2.6366,-2.6066,-2.6001,-2.6371,-2.6262,-2.579,-2.5549,-2.5514,-1.92,-1.92,-1.9164,-1.9018,-1.8775,-1.8778,-1.8676,-1.8498,-1.8517,-1.8622,-1.8551,-1.8551,-1.8609,-1.89,-1.9594,-2.0529,-2.1117,-2.1345,-2.1288,-2.1288,-2.1402,-2.1714,-2.2091,-2.1871,-2.2064,-2.2055,-2.2043,-2.2317,-2.2246,-2.235,-2.2553,-2.2536,-2.2537,-2.2586,-2.2503,-2.2452,-2.2585,-2.2501,-2.2535,-2.2518,-2.2365,-2.2076,-2.1923,-2.1769,-2.1613,-2.1459,-2.1494,-2.1528,-2.1693,-2.1968,-2.2117,-2.2356,-2.2648,-2.2752,-2.287,-2.3263,-2.4018,-2.4879,-2.4773,-2.4706,-2.4714,-2.4695,-2.4879,-2.4946,-2.4976,-2.4976,-2.5024,-2.4957,-2.467,-2.4421,-2.4343,-2.4353,-2.455,-2.4832,-2.5155,-2.5551,-2.5933,-2.5953,-2.5995,-2.5946,-2.5829,-2.6143,-2.6337,-2.6358,-2.6309,-2.58,-2.5399,-2.5219,-2.5065,-2.5074,-2.504,-2.546,-2.5629,-2.5203,-2.4872,-2.4596,-2.4193,-2.3867,-2.3919,-2.3923,-2.4175,-2.4505,-2.4609,-2.4959,-2.5339,-2.5775,-2.6009,-2.6137,-2.6085,-2.6225,-2.6438,-2.6062,-2.5478,-2.5358,-2.5296,-1.7905,-1.7905,-1.7916,-1.7848,-1.7701,-1.7462,-1.7295,-1.7112,-1.6947,-1.682,-1.682,-1.682,-1.7114,-1.7689,-1.8286,-1.8855,-1.9492,-1.9666,-1.9608,-1.9723,-1.9839,-2.0127,-2.043,-2.0544,-2.0712,-2.0773,-2.0667,-2.0471,-2.0955,-2.1707,-2.2196,-2.2163,-2.2196,-2.2176,-2.2078,-2.1982,-2.1917,-2.1835,-2.172,-2.164,-2.1591,-2.1492,-2.1444,-2.1595,-2.1561,-2.1643,-2.1758,-2.2006,-2.2107,-2.2345,-2.2362,-2.2414,-2.2551,-2.2653,-2.2636,-2.2686,-2.317,-2.3609,-2.3806,-2.3892,-2.4065,-2.423,-2.4368,-2.4488,-2.459,-2.4674,-2.4674,-2.4692,-2.4295,-2.3985,-2.3742,-2.3636,-2.3777,-2.4028,-2.442,-2.4702,-2.4962,-2.4945,-2.497,-2.4911,-2.4935,-2.5188,-2.5496,-2.5669,-2.5815,-2.5859,-2.5477,-2.5241,-2.5075,-2.4928,-2.4908,-2.5004,-2.507,-2.4983,-2.4655,-2.4337,-2.3899,-2.3623,-2.3959,-2.3939,-2.3861,-2.4046,-2.4225,-2.4666,-2.5272,-2.5633,-2.5852,-2.6138,-2.6378,-2.6453,-2.6471,-2.6016,-2.5581,-2.522,-2.5078,-1.7066,-1.7001,-1.7001,-1.7001,-1.6969,-1.6571,-1.6428,-1.6258,-1.5931,-1.5715,-1.5612,-1.572,-1.6124,-1.6762,-1.7244,-1.7701,-1.8227,-1.8169,-1.8169,-1.8273,-1.8448,-1.8739,-1.9003,-1.9208,-1.9344,-1.9299,-1.9439,-1.9345,-1.9556,-2.0123,-2.0863,-2.1163,-2.1054,-2.117,-2.1193,-2.0971,-2.0788,-2.0724,-2.055,-2.0462,-2.0431,-2.0447,-2.0621,-2.0893,-2.1267,-2.1623,-2.1928,-2.2367,-2.2568,-2.2568,-2.2551,-2.2568,-2.2603,-2.2603,-2.2603,-2.2653,-2.2837,-2.296,-2.315,-2.3203,-2.3203,-2.353,-2.3807,-2.4088,-2.421,-2.4298,-2.4298,-2.4263,-2.4069,-2.3683,-2.3366,-2.3214,-2.3378,-2.3529,-2.3692,-2.3871,-2.403,-2.4106,-2.4182,-2.4192,-2.4187,-2.4075,-2.4415,-2.4724,-2.5141,-2.5643,-2.5604,-2.5322,-2.5158,-2.496,-2.5024,-2.5051,-2.4706,-2.4649,-2.4387,-2.4014,-2.3565,-2.3393,-2.3726,-2.3816,-2.3624,-2.3829,-2.4138,-2.4642,-2.5143,-2.5317,-2.5385,-2.605,-2.6711,-2.6617,-2.6488,-2.6174,-2.5775,-2.5277,-2.4705,-1.7217,-1.7001,-1.7001,-1.7001,-1.698,-1.6743,-1.6517,-1.6323,-1.6032,-1.5785,-1.5612,-1.5601,-1.5946,-1.6419,-1.6596,-1.6891,-1.7537,-1.7537,-1.7479,-1.7479,-1.7596,-1.7701,-1.7806,-1.7969,-1.8156,-1.8364,-1.8255,-1.8288,-1.8429,-1.8423,-1.9004,-1.9251,-1.9724,-1.9626,-1.9696,-1.978,-1.9552,-1.9427,-1.9295,-1.9307,-1.933,-1.9301,-1.9442,-1.9843,-2.0498,-2.1097,-2.1385,-2.2096,-2.2537,-2.2503,-2.252,-2.2503,-2.2452,-2.2486,-2.2486,-2.2486,-2.2486,-2.2604,-2.2773,-2.286,-2.2895,-2.3151,-2.3581,-2.396,-2.4084,-2.391,-2.3805,-2.3962,-2.3946,-2.3634,-2.3427,-2.3271,-2.3288,-2.3144,-2.3178,-2.3264,-2.3392,-2.342,-2.3457,-2.3531,-2.3445,-2.3309,-2.3364,-2.3737,-2.4467,-2.5018,-2.5492,-2.5244,-2.5318,-2.5188,-2.5287,-2.5203,-2.4622,-2.4305,-2.4112,-2.3711,-2.3176,-2.3119,-2.335,-2.3337,-2.3262,-2.3591,-2.4236,-2.4309,-2.4705,-2.4818,-2.5164,-2.6066,-2.667,-2.6662,-2.6469,-2.5982,-2.5197,-2.4443,-2.3907,-1.7087,-1.7001,-1.7001,-1.7001,-1.699,-1.6764,-1.6614,-1.6463,-1.618,-1.5877,-1.5612,-1.5601,-1.572,-1.5898,-1.5946,-1.6076,-1.6312,-1.6312,-1.6383,-1.6371,-1.636,-1.6419,-1.6478,-1.6631,-1.6654,-1.6912,-1.6854,-1.6807,-1.6862,-1.7054,-1.6972,-1.742,-1.8377,-1.9005,-1.9148,-1.8758,-1.8472,-1.8163,-1.8102,-1.8076,-1.805,-1.8023,-1.8184,-1.8833,-1.9473,-2.0197,-2.0825,-2.1719,-2.2035,-2.2123,-2.2107,-2.2074,-2.2058,-2.2074,-2.2074,-2.2074,-2.2058,-2.2156,-2.2432,-2.2632,-2.3186,-2.3751,-2.4145,-2.4296,-2.4227,-2.435,-2.4367,-2.4333,-2.4145,-2.3871,-2.3615,-2.3341,-2.3116,-2.2885,-2.2821,-2.2841,-2.2863,-2.2913,-2.2907,-2.3033,-2.2774,-2.251,-2.26,-2.2686,-2.3555,-2.438,-2.4868,-2.5198,-2.5183,-2.5085,-2.5063,-2.4975,-2.4421,-2.418,-2.3973,-2.3428,-2.2818,-2.2949,-2.313,-2.3236,-2.3409,-2.3999,-2.4493,-2.4435,-2.4369,-2.4648,-2.5224,-2.6226,-2.6512,-2.627,-2.5951,-2.5577,-2.4689,-2.3702,-2.3356,-1.7066,-1.7012,-1.7087,-1.7066,-1.699,-1.6829,-1.6785,-1.6614,-1.6385,-1.6093,-1.5817,-1.5806,-1.5817,-1.5817,-1.5817,-1.5838,-1.5981,-1.597,-1.5899,-1.5899,-1.597,-1.5774,-1.5731,-1.5829,-1.5992,-1.5877,-1.5731,-1.5818,-1.6025,-1.5899,-1.6068,-1.6571,-1.7227,-1.7889,-1.8167,-1.7973,-1.7438,-1.7013,-1.6918,-1.6894,-1.69,-1.6833,-1.6937,-1.7653,-1.8319,-1.8904,-1.9628,-2.0308,-2.0825,-2.0948,-2.0963,-2.0993,-2.1063,-2.1132,-2.1202,-2.1202,-2.1271,-2.1325,-2.1572,-2.2317,-2.3081,-2.339,-2.3955,-2.4267,-2.4535,-2.4607,-2.4544,-2.4727,-2.4521,-2.4264,-2.3888,-2.3598,-2.3238,-2.3013,-2.2752,-2.2678,-2.2609,-2.2603,-2.2536,-2.2568,-2.2362,-2.2337,-2.2279,-2.2416,-2.2839,-2.3672,-2.4173,-2.4472,-2.4513,-2.4448,-2.4363,-2.4276,-2.4083,-2.3966,-2.3885,-2.3285,-2.2914,-2.3433,-2.3553,-2.3676,-2.3944,-2.4398,-2.4526,-2.429,-2.4335,-2.4568,-2.5056,-2.5614,-2.5724,-2.5652,-2.5391,-2.5137,-2.4255,-2.3391,-2.3134,-1.7217,-1.7044,-1.7249,-1.7206,-1.6947,-1.7001,-1.6872,-1.6763,-1.6677,-1.6452,-1.6237,-1.6237,-1.6237,-1.6226,-1.6183,-1.6172,-1.6183,-1.6215,-1.6215,-1.6183,-1.6151,-1.6108,-1.6039,-1.5953,-1.5828,-1.5645,-1.5612,-1.5623,-1.5677,-1.5731,-1.5806,-1.5974,-1.6436,-1.6641,-1.6738,-1.6602,-1.6235,-1.5848,-1.5898,-1.5898,-1.5931,-1.5954,-1.6168,-1.6666,-1.7266,-1.7867,-1.8417,-1.9098,-1.9556,-1.9597,-1.9528,-1.9528,-1.9513,-1.9665,-1.9706,-1.9692,-1.9938,-2.0033,-2.0168,-2.1548,-2.2135,-2.2522,-2.3079,-2.3626,-2.3931,-2.4211,-2.4636,-2.4872,-2.483,-2.459,-2.4247,-2.3871,-2.3511,-2.3169,-2.2911,-2.2688,-2.262,-2.2465,-2.2481,-2.255,-2.2567,-2.2464,-2.2282,-2.2267,-2.2464,-2.291,-2.3466,-2.3697,-2.3826,-2.3851,-2.375,-2.3569,-2.3491,-2.3453,-2.3307,-2.3101,-2.3026,-2.3577,-2.3869,-2.3841,-2.3885,-2.4099,-2.4135,-2.4053,-2.4129,-2.4225,-2.4496,-2.485,-2.5027,-2.5199,-2.4998,-2.4636,-2.3785,-2.3242,-2.3066,-1.6436,-1.6299,-1.6447,-1.6436,-1.6429,-1.6807,-1.6958,-1.6872,-1.6732,-1.6538,-1.6344,-1.6312,-1.6312,-1.6312,-1.6271,-1.6282,-1.6334,-1.6312,-1.6312,-1.6323,-1.6344,-1.6151,-1.6032,-1.605,-1.5974,-1.5806,-1.572,-1.572,-1.5909,-1.5828,-1.5909,-1.6017,-1.6104,-1.6161,-1.6223,-1.615,-1.5943,-1.5703,-1.5631,-1.5657,-1.5624,-1.5514,-1.5654,-1.6124,-1.662,-1.7053,-1.7461,-1.8135,-1.8407,-1.8477,-1.842,-1.8477,-1.849,-1.866,-1.8687,-1.8757,-1.8941,-1.8954,-1.9021,-1.9713,-2.05,-2.1261,-2.2093,-2.2859,-2.3725,-2.4194,-2.4613,-2.4958,-2.502,-2.4714,-2.4333,-2.4108,-2.38,-2.3528,-2.3254,-2.3032,-2.2877,-2.2688,-2.2585,-2.274,-2.2758,-2.2432,-2.2221,-2.2215,-2.2387,-2.2514,-2.3026,-2.3114,-2.3217,-2.3229,-2.3158,-2.2911,-2.2785,-2.2781,-2.2683,-2.2452,-2.2556,-2.3009,-2.3405,-2.3614,-2.372,-2.3824,-2.3847,-2.3794,-2.3813,-2.3849,-2.4263,-2.4621,-2.4731,-2.4789,-2.4657,-2.4356,-2.3664,-2.3311,-2.3245,-1.5649,-1.5649,-1.5649,-1.5649,-1.5714,-1.6353,-1.6613,-1.6656,-1.653,-1.6371,-1.6202,-1.6181,-1.6192,-1.6181,-1.6171,-1.6308,-1.6371,-1.6371,-1.6497,-1.6486,-1.656,-1.6441,-1.6363,-1.6223,-1.6158,-1.6061,-1.5924,-1.5924,-1.5996,-1.6093,-1.6082,-1.605,-1.6021,-1.5935,-1.5942,-1.5909,-1.5888,-1.5693,-1.5596,-1.5607,-1.5574,-1.5531,-1.5557,-1.5847,-1.6166,-1.6413,-1.6833,-1.7173,-1.7455,-1.7455,-1.7455,-1.7455,-1.7455,-1.7584,-1.7584,-1.7584,-1.7689,-1.7726,-1.7895,-1.8052,-1.8792,-1.9602,-2.0726,-2.1906,-2.2913,-2.3296,-2.4055,-2.4523,-2.482,-2.4611,-2.4172,-2.4005,-2.3606,-2.3237,-2.2975,-2.2722,-2.2426,-2.2193,-2.2249,-2.2417,-2.2656,-2.2332,-2.2244,-2.2259,-2.2351,-2.2456,-2.2606,-2.2666,-2.2676,-2.2575,-2.252,-2.2261,-2.2028,-2.1938,-2.1949,-2.1903,-2.2066,-2.2453,-2.2745,-2.2998,-2.3345,-2.3448,-2.3508,-2.3667,-2.3964,-2.4236,-2.4306,-2.4474,-2.4483,-2.4449,-2.4374,-2.3992,-2.3539,-2.3442,-2.344,-1.4875,-1.4866,-1.4866,-1.4866,-1.4996,-1.5583,-1.5909,-1.5974,-1.5964,-1.5944,-1.5954,-1.5913,-1.5893,-1.5934,-1.5944,-1.6108,-1.6421,-1.6431,-1.6679,-1.6872,-1.6872,-1.6754,-1.6646,-1.6623,-1.6334,-1.6234,-1.6097,-1.6097,-1.6072,-1.614,-1.614,-1.6017,-1.5849,-1.5763,-1.5752,-1.5823,-1.5763,-1.5645,-1.5601,-1.5601,-1.558,-1.558,-1.5558,-1.5698,-1.5795,-1.5784,-1.5957,-1.6005,-1.5946,-1.5898,-1.5839,-1.5779,-1.5779,-1.5957,-1.6028,-1.6194,-1.6478,-1.6651,-1.6883,-1.7023,-1.7288,-1.8151,-1.9185,-2.0355,-2.1324,-2.2135,-2.2871,-2.3466,-2.376,-2.3787,-2.3677,-2.321,-2.2746,-2.2457,-2.2167,-2.189,-2.1565,-2.1522,-2.1593,-2.1837,-2.2181,-2.2215,-2.2449,-2.2482,-2.2331,-2.2512,-2.2554,-2.2446,-2.2337,-2.1854,-2.1761,-2.1549,-2.1331,-2.1111,-2.1139,-2.1448,-2.1532,-2.1884,-2.1927,-2.2189,-2.2613,-2.2957,-2.3052,-2.3384,-2.4303,-2.4559,-2.428,-2.4144,-2.4068,-2.4053,-2.3986,-2.4038,-2.3681,-2.3732,-2.3738,-1.4271,-1.4211,-1.4202,-1.4202,-1.4202,-1.4399,-1.4735,-1.5192,-1.5192,-1.5192,-1.5192,-1.5192,-1.5257,-1.5257,-1.5508,-1.5769,-1.6104,-1.6364,-1.6688,-1.6882,-1.6872,-1.685,-1.6743,-1.6604,-1.6463,-1.6334,-1.6218,-1.6261,-1.6186,-1.6261,-1.6204,-1.6017,-1.5903,-1.5785,-1.5709,-1.5688,-1.5688,-1.5655,-1.5645,-1.5601,-1.5601,-1.5601,-1.5601,-1.5601,-1.5601,-1.5601,-1.5601,-1.5601,-1.5601,-1.5601,-1.5601,-1.5601,-1.5601,-1.572,-1.5779,-1.5779,-1.585,-1.5986,-1.6227,-1.6414,-1.6644,-1.7055,-1.7903,-1.8957,-2.0002,-2.0908,-2.1581,-2.2169,-2.2462,-2.2432,-2.2315,-2.1993,-2.1715,-2.1569,-2.1231,-2.0847,-2.0589,-2.0557,-2.0704,-2.1315,-2.165,-2.2231,-2.2469,-2.2401,-2.2316,-2.2502,-2.2484,-2.2247,-2.2141,-2.1682,-2.1473,-2.1333,-2.1242,-2.1206,-2.1077,-2.1311,-2.1251,-2.1287,-2.1229,-2.1277,-2.1634,-2.202,-2.2431,-2.3001,-2.3649,-2.3928,-2.3935,-2.3785,-2.357,-2.3572,-2.3526,-2.3754,-2.394,-2.3897,-2.3886,-1.3661,-1.3498,-1.349,-1.349,-1.3481,-1.349,-1.3752,-1.408,-1.4342,-1.4539,-1.453,-1.4539,-1.4539,-1.4604,-1.4866,-1.5257,-1.5518,-1.5854,-1.6244,-1.6494,-1.6623,-1.6485,-1.6444,-1.6392,-1.6213,-1.6108,-1.6076,-1.6076,-1.6108,-1.6191,-1.6158,-1.6073,-1.6038,-1.6011,-1.5946,-1.5957,-1.5924,-1.5838,-1.5741,-1.5634,-1.5612,-1.5612,-1.5601,-1.5601,-1.5601,-1.5601,-1.5601,-1.5601,-1.5601,-1.5601,-1.5601,-1.5601,-1.5601,-1.5601,-1.5601,-1.5601,-1.5672,-1.578,-1.6046,-1.6234,-1.6409,-1.6709,-1.7064,-1.7784,-1.8628,-1.946,-2.0344,-2.1016,-2.0989,-2.0921,-2.0759,-2.0672,-2.0693,-2.0625,-2.021,-1.9792,-1.968,-1.957,-2.0062,-2.0764,-2.1406,-2.2012,-2.2275,-2.2177,-2.2094,-2.1991,-2.1857,-2.1641,-2.1712,-2.1792,-2.1735,-2.1662,-2.1593,-2.1569,-2.1414,-2.1171,-2.1031,-2.0739,-2.0039,-2.0212,-2.0618,-2.117,-2.1717,-2.2259,-2.2838,-2.3081,-2.3335,-2.3157,-2.2984,-2.3062,-2.3346,-2.3677,-2.3877,-2.3872,-2.3877,-1.3011,-1.284,-1.2766,-1.2832,-1.2766,-1.2832,-1.2898,-1.2832,-1.3555,-1.3809,-1.3809,-1.3809,-1.3818,-1.3884,-1.4146,-1.4539,-1.4866,-1.5202,-1.5583,-1.5909,-1.5909,-1.5869,-1.5879,-1.5889,-1.5748,-1.5663,-1.5718,-1.5708,-1.5765,-1.5905,-1.6086,-1.6139,-1.6254,-1.628,-1.6204,-1.6194,-1.6172,-1.6129,-1.5924,-1.5752,-1.5677,-1.5645,-1.5612,-1.5601,-1.5601,-1.5601,-1.5601,-1.5601,-1.5601,-1.5601,-1.5601,-1.5601,-1.5601,-1.5655,-1.5655,-1.5698,-1.5731,-1.5903,-1.6086,-1.6301,-1.6484,-1.67,-1.6872,-1.7162,-1.7829,-1.8279,-1.9115,-1.9472,-1.9498,-1.9486,-1.9374,-1.9224,-1.9175,-1.9212,-1.8974,-1.8655,-1.8486,-1.8577,-1.9002,-1.969,-2.0414,-2.1017,-2.1108,-2.0931,-2.0854,-2.1018,-2.0956,-2.0784,-2.0865,-2.1186,-2.1462,-2.1578,-2.1758,-2.1639,-2.1477,-2.1242,-2.0864,-2.0369,-1.9653,-1.9583,-2.0341,-2.0732,-2.0992,-2.1731,-2.2445,-2.2554,-2.2689,-2.2452,-2.2452,-2.2813,-2.3152,-2.3639,-2.3802,-2.3717,-2.3927,-1.3124,-1.284,-1.2766,-1.2766,-1.2766,-1.2766,-1.2774,-1.2766,-1.2972,-1.3104,-1.3095,-1.3095,-1.3095,-1.3227,-1.3564,-1.3892,-1.4211,-1.4539,-1.4866,-1.5062,-1.5192,-1.5192,-1.5192,-1.5183,-1.5144,-1.5154,-1.5154,-1.5284,-1.5485,-1.5788,-1.6049,-1.6096,-1.6318,-1.6402,-1.6263,-1.6252,-1.6252,-1.62,-1.6145,-1.5921,-1.5853,-1.5849,-1.5866,-1.5677,-1.5612,-1.5601,-1.5601,-1.5601,-1.5601,-1.5601,-1.5601,-1.5601,-1.5601,-1.5763,-1.5909,-1.5892,-1.5989,-1.6172,-1.6334,-1.6474,-1.6635,-1.6807,-1.6958,-1.698,-1.713,-1.7389,-1.7647,-1.7905,-1.8098,-1.8098,-1.8086,-1.7953,-1.7832,-1.7846,-1.7834,-1.7553,-1.7338,-1.767,-1.8009,-1.8684,-1.9346,-1.9661,-1.9826,-1.9768,-1.9642,-1.9613,-1.9585,-1.9513,-1.9524,-1.9755,-2.041,-2.0719,-2.1592,-2.1612,-2.1459,-2.1531,-2.1285,-2.0771,-2.0159,-2.0124,-2.0193,-2.0606,-2.1023,-2.1514,-2.2038,-2.1987,-2.1821,-2.1629,-2.179,-2.2302,-2.2611,-2.296,-2.3248,-2.3259,-2.3691,-1.3084,-1.2782,-1.2766,-1.2766,-1.2766,-1.2766,-1.2881,-1.2929,-1.2807,-1.2881,-1.2929,-1.2815,-1.2766,-1.2832,-1.3235,-1.3433,-1.3687,-1.4015,-1.4277,-1.4408,-1.4473,-1.4473,-1.4473,-1.4473,-1.4464,-1.4473,-1.4464,-1.466,-1.4987,-1.5303,-1.555,-1.5856,-1.6157,-1.6296,-1.616,-1.6171,-1.6171,-1.6128,-1.616,-1.6034,-1.5866,-1.5892,-1.5924,-1.5763,-1.5677,-1.5645,-1.5601,-1.5601,-1.5601,-1.5601,-1.5601,-1.5601,-1.5655,-1.5866,-1.5974,-1.6061,-1.614,-1.6377,-1.6506,-1.6635,-1.6732,-1.6861,-1.699,-1.699,-1.7001,-1.7195,-1.726,-1.7453,-1.7453,-1.7453,-1.7518,-1.7345,-1.7345,-1.7332,-1.7196,-1.701,-1.7051,-1.7268,-1.7575,-1.7944,-1.8534,-1.8918,-1.8978,-1.8816,-1.8693,-1.8626,-1.8502,-1.838,-1.8366,-1.8377,-1.9,-1.9681,-2.0406,-2.1261,-2.1444,-2.1627,-2.1867,-2.1302,-2.053,-2.0566,-2.0577,-2.0761,-2.1109,-2.1302,-2.1338,-2.1069,-2.0923,-2.0905,-2.1201,-2.1738,-2.1983,-2.2182,-2.2448,-2.2808,-2.3039,-1.3059,-1.2815,-1.2873,-1.279,-1.2766,-1.2766,-1.2929,-1.3043,-1.2913,-1.2929,-1.3035,-1.2905,-1.2782,-1.2906,-1.3104,-1.3235,-1.3367,-1.3555,-1.3687,-1.3752,-1.3752,-1.3752,-1.3752,-1.3752,-1.3752,-1.3752,-1.3752,-1.4015,-1.4277,-1.4595,-1.4987,-1.5398,-1.5649,-1.5834,-1.5844,-1.5864,-1.5844,-1.5784,-1.5754,-1.5724,-1.5727,-1.5784,-1.5801,-1.5764,-1.5696,-1.5579,-1.5579,-1.5579,-1.5579,-1.56,-1.5594,-1.5724,-1.586,-1.6021,-1.6147,-1.6266,-1.6377,-1.6484,-1.6538,-1.6678,-1.6721,-1.6786,-1.6926,-1.7001,-1.7023,-1.7023,-1.7023,-1.7023,-1.7023,-1.7012,-1.7012,-1.7001,-1.7001,-1.6969,-1.6806,-1.6653,-1.6792,-1.6854,-1.7018,-1.7256,-1.7547,-1.799,-1.7915,-1.7765,-1.774,-1.7608,-1.7546,-1.7365,-1.7284,-1.7293,-1.7616,-1.8258,-1.8958,-1.9841,-2.0767,-2.1242,-2.1478,-2.1276,-2.0581,-2.0715,-2.0849,-2.0832,-2.0781,-2.0691,-2.0629,-2.0514,-2.0466,-2.0472,-2.0846,-2.132,-2.1467,-2.1689,-2.2051,-2.2318,-2.232,-1.3344,-1.3043,-1.3043,-1.297,-1.279,-1.2774,-1.2938,-1.3051,-1.2921,-1.2929,-1.3043,-1.2929,-1.2766,-1.2774,-1.284,-1.2972,-1.3038,-1.3095,-1.303,-1.303,-1.3095,-1.303,-1.303,-1.303,-1.303,-1.303,-1.303,-1.3227,-1.3621,-1.3949,-1.4268,-1.467,-1.4996,-1.5137,-1.5156,-1.5194,-1.5251,-1.5204,-1.5223,-1.5204,-1.518,-1.5312,-1.5491,-1.5483,-1.5381,-1.5361,-1.5361,-1.5361,-1.5361,-1.5422,-1.5576,-1.5873,-1.6132,-1.6312,-1.6431,-1.6547,-1.6657,-1.6797,-1.6872,-1.6904,-1.6947,-1.7001,-1.7109,-1.7098,-1.7098,-1.7098,-1.7098,-1.7098,-1.7087,-1.7044,-1.7033,-1.7012,-1.7001,-1.6947,-1.6861,-1.6644,-1.6582,-1.6453,-1.6353,-1.6306,-1.6301,-1.649,-1.6501,-1.649,-1.6638,-1.6638,-1.6763,-1.6649,-1.6608,-1.6467,-1.6457,-1.7035,-1.7746,-1.8631,-1.9673,-2.0229,-2.0498,-2.0521,-2.0606,-2.0638,-2.0652,-2.0649,-2.0566,-2.0514,-2.0345,-2.0205,-2.018,-2.0348,-2.0629,-2.1084,-2.1077,-2.1257,-2.166,-2.1905,-2.1925]},{"header":{"parameterUnit":"m.s-1","parameterCategory":1,"la1":31.0,"la2":29.5877,"lo1":-88.7671,"lo2":-86.6584,"dy":0.0162,"dx":0.0185,"nx":115,"ny":88,"refTime":"2026-04-06T12:00:00:Z","depth":0,"parameterNumber":3,"parameterNumberName":"V-component_of_WINDS"},"data":[0.0,0.0,0.0,0.0,0.0,0.0,0.0,0.0,0.0,0.0,0.0,0.0,0.0,0.0,0.0,0.0,0.0,0.0,0.0,0.0,0.0,0.0,0.0,0.0,0.0,0.0,0.0,0.0,0.0,0.0,0.0,0.0,0.0,0.0,0.0,0.0,0.0,0.0,0.0,0.0,0.0,0.0,0.0,0.0,0.0,0.0,0.0,0.0,0.0,0.0,0.0,0.0,0.0,0.0,0.0,0.0,0.0,0.0,0.0,0.0,0.0,0.0,0.0,0.0,0.0,0.0,0.0,0.0,0.0,0.0,0.0,0.0,0.0,0.0,0.0,0.0,0.0,0.0,0.0,0.0,0.0,0.0,0.0,0.0,0.0,0.0,0.0,0.0,0.0,0.0,0.0,0.0,0.0,0.0,0.0,0.0,0.0,0.0,0.0,0.0,0.0,0.0,0.0,0.0,0.0,0.0,0.0,0.0,0.0,0.0,0.0,0.0,0.0,0.0,0.0,0.0,0.0,0.0,0.0,0.0,0.0,0.0,0.0,0.0,0.0,0.0,0.0,0.0,0.0,0.0,0.0,0.0,0.0,0.0,0.0,0.0,0.0,0.0,0.0,0.0,0.0,0.0,0.0,0.0,0.0,0.0,0.0,0.0,0.0,0.0,0.0,0.0,0.0,0.0,0.0,0.0,0.0,0.0,0.0,0.0,0.0,0.0,0.0,0.0,0.0,0.0,0.0,0.0,0.0,0.0,0.0,0.0,0.0,0.0,0.0,0.0,0.0,0.0,0.0,0.0,0.0,0.0,0.0,0.0,0.0,0.0,0.0,0.0,0.0,0.0,0.0,0.0,0.0,0.0,0.0,0.0,0.0,0.0,0.0,0.0,0.0,0.0,0.0,0.0,0.0,0.0,0.0,0.0,0.0,0.0,0.0,0.0,0.0,0.0,0.0,0.0,0.0,0.0,0.0,0.0,0.0,0.0,0.0,0.0,0.0,0.0,0.0,0.0,0.0,0.0,0.0,0.0,0.0,0.0,0.0,0.0,0.0,0.0,0.0,0.0,0.0,0.0,0.0,0.0,0.0,0.0,0.0,0.0,0.0,0.0,0.0,0.0,0.0,0.0,0.0,0.0,0.0,0.0,0.0,0.0,0.0,0.0,0.0,0.0,0.0,0.0,0.0,0.0,0.0,0.0,0.0,0.0,0.0,0.0,0.0,0.0,0.0,0.0,0.0,0.0,0.0,0.0,0.0,0.0,0.0,0.0,0.0,0.0,0.0,0.0,0.0,0.0,0.0,0.0,0.0,0.0,0.0,0.0,0.0,0.0,0.0,0.0,0.0,0.0,0.0,0.0,0.0,0.0,0.0,0.0,0.0,0.0,0.0,0.0,0.0,0.0,0.0,0.0,0.0,0.0,0.0,0.0,0.0,0.0,0.0,0.0,0.0,0.0,0.0,0.0,0.0,0.0,0.0,0.0,0.0,0.0,0.0,0.0,0.0,0.0,0.0,0.0,0.0,0.0,0.0,0.0,0.0,0.0,0.0,0.0,0.0,0.0,0.0,0.0,0.0,0.0,0.0,0.0,0.0,0.0,0.0,0.0,0.0,0.0,0.0,0.0,0.0,0.0,0.0,0.0,0.0,0.0,0.0,0.0,0.0,0.0,0.0,0.0,0.0,0.0,0.0,0.0,0.0,0.0,0.0,0.0,0.0,0.0,0.0,0.0,0.0,0.0,0.0,0.0,0.0,0.0,0.0,0.0,0.0,0.0,0.0,0.0,0.0,0.0,0.0,0.0,0.0,0.0,0.0,0.0,0.0,0.0,0.0,0.0,0.0,0.0,0.0,0.0,0.0,0.0,0.0,0.0,0.0,0.0,0.0,0.0,0.0,0.0,0.0,0.0,0.0,0.0,0.0,0.0,0.0,0.0,0.0,0.0,0.0,0.0,0.0,0.0,0.0,0.0,0.0,0.0,0.0,0.0,0.0,0.0,0.0,0.0,0.0,0.0,0.0,0.0,0.0,0.0,0.0,0.0,0.0,0.0,0.0,0.0,0.0,0.0,0.0,0.0,0.0,0.0,0.0,0.0,0.0,0.0,0.0,0.0,0.0,0.0,0.0,0.0,0.0,0.0,0.0,0.0,0.0,0.0,0.0,0.0,0.0,0.0,0.0,0.0,0.0,0.0,0.0,0.0,0.0,0.0,0.0,0.0,0.0,0.0,0.0,0.0,0.0,0.0,0.0,0.0,0.0,0.0,0.0,0.0,0.0,0.0,0.0,0.0,0.0,0.0,0.0,0.0,0.0,0.0,0.0,0.0,0.0,0.0,0.0,0.0,0.0,0.0,0.0,0.0,0.0,0.0,0.0,0.0,0.0,0.0,0.0,0.0,0.0,0.0,0.0,0.0,0.0,0.0,0.0,0.0,0.0,0.0,0.0,0.0,0.0,0.0,0.0,0.0,0.0,0.0,0.0,0.0,0.0,0.0,0.0,0.0,0.0,0.0,0.0,0.0,0.0,0.0,0.0,0.0,0.0,0.0,0.0,0.0,0.0,0.0,0.0,0.0,0.0,0.0,0.0,0.0,0.0,0.0,0.0,0.0,0.0,0.0,0.0,0.0,0.0,0.0,0.0,0.0,0.0,0.0,0.0,0.0,0.0,0.0,0.0,0.0,0.0,0.0,0.0,0.0,0.0,0.0,0.0,0.0,0.0,0.0,0.0,0.0,0.0,0.0,0.0,0.0,0.0,0.0,0.0,0.0,0.0,0.0,0.0,0.0,0.0,0.0,0.0,0.0,0.0,0.0,0.0,0.0,0.0,0.0,0.0,0.0,0.0,0.0,0.0,0.0,0.0,0.0,0.0,0.0,0.0,0.0,0.0,0.0,0.0,0.0,0.0,0.0,0.0,0.0,0.0,0.0,0.0,0.0,0.0,0.0,0.0,0.0,0.0,0.0,0.0,0.0,0.0,0.0,0.0,0.0,0.0,0.0,0.0,0.0,0.0,0.0,0.0,0.0,0.0,0.0,0.0,0.0,0.0,0.0,0.0,0.0,0.0,0.0,0.0,0.0,0.0,0.0,0.0,0.0,0.0,0.0,0.0,0.0,0.0,0.0,0.0,0.0,0.0,0.0,0.0,0.0,0.0,0.0,0.0,0.0,0.0,0.0,0.0,0.0,0.0,0.0,0.0,0.0,0.0,0.0,0.0,0.0,0.0,0.0,0.0,0.0,0.0,0.0,0.0,0.0,0.0,0.0,0.0,0.0,0.0,0.0,0.0,0.0,0.0,0.0,0.0,0.0,0.0,0.0,0.0,0.0,0.0,0.0,0.0,0.0,0.0,0.0,0.0,0.0,0.0,0.0,0.0,0.0,0.0,0.0,0.0,0.0,0.0,0.0,0.0,0.0,0.0,0.0,0.0,0.0,0.0,0.0,0.0,0.0,0.0,0.0,0.0,0.0,0.0,0.0,0.0,0.0,0.0,0.0,0.0,0.0,0.0,0.0,0.0,0.0,0.0,0.0,0.0,0.0,0.0,0.0,0.0,0.0,0.0,0.0,0.0,0.0,0.0,0.0,0.0,0.0,0.0,0.0,0.0,0.0,0.0,0.0,0.0,0.0,0.0,0.0,0.0,0.0,0.0,0.0,0.0,0.0,0.0,0.0,0.0,0.0,0.0,0.0,0.0,0.0,0.0,0.0,0.0,0.0,0.0,0.0,0.0,0.0,0.0,0.0,0.0,0.0,0.0,0.0,0.0,0.0,0.0,0.0,0.0,0.0,0.0,0.0,0.0,0.0,0.0,0.0,0.0,0.0,0.0,0.0,0.0,0.0,0.0,0.0,0.0,0.0,0.0,0.0,0.0,0.0,0.0,0.0,0.0,0.0,0.0,0.0,0.0,0.0,0.0,0.0,0.0,0.0,0.0,0.0,0.0,0.0,0.0,0.0,0.0,0.0,0.0,0.0,0.0,0.0,0.0,0.0,0.0,0.0,0.0,0.0,0.0,0.0,0.0,0.0,0.0,0.0,0.0,0.0,0.0,0.0,0.0,0.0,0.0,0.0,0.0,0.0,0.0,0.0,0.0,0.0,0.0,0.0,0.0,0.0,0.0,0.0,0.0,0.0,0.0,0.0,0.0,0.0,0.0,0.0,0.0,0.0,0.0,0.0,0.0,0.0,0.0,0.0,0.0,0.0,0.0,0.0,0.0,0.0,0.0,0.0,0.0,0.0,0.0,0.0,0.0,0.0,0.0,0.0,0.0,0.0,0.0,0.0,1.3731,0.0,0.0,0.0,0.0,0.0,0.0,0.0,0.0,0.0,0.0,0.0,0.0,0.0,0.0,0.0,0.0,0.0,0.0,0.0,0.0,0.0,0.0,0.0,0.0,0.0,0.0,0.0,0.0,0.0,0.0,0.0,0.0,0.0,0.0,0.0,0.0,0.0,0.0,0.0,0.0,0.0,0.0,0.0,0.0,0.0,0.0,0.0,0.0,0.0,0.0,0.0,0.0,0.0,0.0,0.0,0.0,0.0,0.0,0.0,0.0,0.0,0.0,0.0,0.0,0.0,0.0,0.0,0.0,0.0,0.0,0.0,0.0,0.0,0.0,0.0,0.0,0.0,0.0,0.0,0.0,0.0,0.0,0.0,0.0,0.0,0.0,0.0,0.0,0.0,0.0,0.0,0.0,0.0,0.0,0.0,0.0,0.0,0.0,0.0,0.0,0.0,0.0,0.0,0.0,0.0,0.0,0.0,0.0,0.0,0.0,1.2865,1.2586,1.2586,1.2444,1.2209,0.0,0.0,0.0,0.0,0.0,0.0,0.0,0.0,0.0,0.0,0.0,0.0,0.0,0.0,0.0,0.0,0.0,0.0,0.0,0.0,0.0,0.0,0.0,0.0,0.0,0.0,0.0,0.0,0.0,0.0,0.0,0.0,0.0,0.0,0.0,0.0,0.0,0.0,0.0,0.0,0.0,0.0,0.0,0.0,0.0,0.0,0.0,0.0,0.0,0.0,0.0,0.0,0.0,0.0,0.0,0.0,0.0,0.0,0.0,0.0,0.0,0.0,0.0,0.0,0.0,0.0,0.0,0.0,0.0,0.0,0.0,0.0,0.0,0.0,0.0,0.0,0.0,0.0,0.0,0.0,0.0,0.0,0.0,0.0,0.0,0.0,0.0,0.0,0.0,0.0,0.0,0.0,0.0,0.0,0.0,0.0,0.0,0.0,0.0,0.0,0.0,0.0,0.0,0.0,0.0,0.0,0.0,0.0,0.0,0.0,0.0,0.0,1.0954,1.0775,1.0563,0.0,0.0,0.0,0.0,0.0,0.0,0.0,0.0,0.0,0.0,0.0,0.0,0.0,0.0,0.0,0.0,0.0,0.0,0.0,0.0,0.0,0.0,0.0,0.0,0.0,0.0,0.0,0.0,0.0,0.0,0.0,0.0,0.0,0.0,0.0,0.0,0.0,0.0,0.0,0.0,0.0,0.0,0.0,0.0,0.0,0.0,0.0,0.0,0.0,0.0,0.0,0.0,0.0,0.0,0.0,0.0,0.0,0.0,0.0,0.0,0.0,0.0,0.0,0.0,0.0,0.0,0.0,0.0,0.0,0.0,0.0,0.0,0.0,0.0,0.0,0.0,0.0,0.0,0.0,0.0,0.0,0.0,0.0,0.0,0.0,0.0,0.0,0.0,0.0,0.0,0.0,0.0,0.0,0.0,0.0,0.0,0.0,0.0,0.0,0.0,0.0,0.0,0.0,0.0,0.0,0.0,0.0,0.0,0.0,0.0,1.0886,1.0827,1.0481,0.0,0.8986,0.0,0.0,0.0,0.0,0.0,0.0,0.0,0.0,0.0,0.0,0.0,0.0,0.0,0.0,0.0,0.0,0.0,0.0,0.0,0.0,0.0,0.0,0.0,0.0,0.0,0.0,0.0,0.0,0.0,0.0,0.0,0.0,0.0,0.0,0.0,0.0,0.0,0.0,0.0,0.0,0.0,0.0,0.0,0.0,0.0,0.0,0.0,0.0,0.0,0.0,0.0,0.0,0.0,0.0,0.0,0.0,0.0,0.0,0.0,0.0,0.0,0.0,0.0,0.0,0.0,0.0,0.0,0.0,0.0,0.0,0.0,0.0,0.0,0.0,0.0,0.0,0.0,0.0,0.0,0.0,0.0,0.0,0.0,0.0,0.0,0.0,0.0,0.0,0.0,0.0,0.0,0.0,0.0,0.0,0.0,0.0,0.0,0.0,0.0,0.0,0.0,0.0,0.0,0.0,0.0,0.0,0.0,0.0,0.0,0.0,0.9893,0.9507,0.8599,0.7816,0.0,0.0,0.0,0.0,0.0,0.0,0.0,0.0,0.0,0.0,0.0,0.0,0.0,0.0,0.0,0.0,0.0,0.0,0.0,0.0,0.0,0.0,0.0,0.0,0.0,0.0,0.0,0.0,0.0,0.0,0.0,0.0,0.0,0.0,0.0,0.0,0.0,0.0,0.0,0.0,0.0,0.0,0.0,0.0,0.0,0.0,0.0,0.0,0.0,0.0,0.0,0.0,0.0,0.0,0.0,0.0,0.0,0.0,0.0,0.0,0.0,0.0,0.0,0.0,0.0,0.0,0.0,0.0,0.0,0.0,0.0,0.0,0.0,0.0,0.0,0.0,0.0,0.0,0.0,0.0,0.0,0.0,0.0,0.0,0.0,0.0,0.0,0.0,0.0,0.0,0.0,0.0,0.0,0.0,0.0,0.0,0.0,0.0,0.0,0.0,0.0,0.0,0.0,0.0,0.0,0.0,0.0,0.0,0.0,0.0,0.9589,0.8921,0.8121,0.7054,0.63,0.5995,0.0,0.0,0.0,0.0,0.0,0.0,0.0,0.0,0.0,0.0,0.0,0.0,0.0,0.0,0.0,0.0,0.0,0.0,0.0,0.0,0.0,0.0,0.0,0.0,0.0,0.0,0.0,0.0,0.0,0.0,0.0,0.0,0.0,0.0,0.0,0.0,0.0,0.0,0.0,0.0,0.0,0.0,0.0,0.0,0.0,0.0,0.0,0.0,0.0,0.0,0.0,0.0,0.0,0.0,0.0,0.0,0.0,0.0,0.0,0.0,0.0,0.0,0.0,0.0,0.0,0.0,0.0,0.0,0.0,0.0,0.0,0.0,0.0,0.0,0.0,0.0,0.0,0.0,0.0,0.0,0.0,0.0,0.0,0.0,0.0,0.0,0.0,0.0,0.0,0.0,0.0,0.0,0.0,0.0,0.0,0.0,0.0,0.0,0.0,0.0,0.0,0.0,0.0,0.0,0.0,0.0,0.0,0.0,0.9625,0.8875,0.7949,0.7026,0.622,0.5769,0.0,0.0,0.0,0.0,0.0,0.0,0.0,0.0,0.0,0.0,0.0,0.0,0.0,0.0,0.0,0.0,0.0,0.0,0.0,0.0,0.0,0.0,0.0,0.0,0.0,0.0,0.0,0.0,0.0,0.0,0.0,0.0,0.0,0.0,0.0,0.0,0.0,0.0,0.0,0.0,0.0,0.0,0.0,0.0,0.0,0.0,0.0,0.0,0.0,0.0,0.0,0.0,0.0,0.0,0.0,0.0,0.0,0.0,0.0,0.0,0.0,0.0,0.0,0.0,0.0,0.0,0.0,0.0,0.0,0.0,0.0,0.0,0.0,0.0,0.0,0.0,0.0,0.0,0.0,0.0,0.0,0.0,0.0,0.0,0.0,0.0,0.0,0.0,0.0,0.0,0.0,0.0,0.0,0.0,0.0,0.0,0.0,0.0,0.0,0.0,0.0,0.0,0.0,0.0,0.0,0.0,0.0,0.0,0.0,0.9018,0.8043,0.704,0.6157,0.5395,0.49,0.0,0.0,0.0,0.0,0.0,0.0,0.0,0.0,0.0,0.0,0.0,0.0,0.0,0.0,0.0,0.0,0.0,0.0,0.0,0.0,0.0,0.0,0.0,0.0,0.0,0.0,0.0,0.0,0.0,0.0,0.0,0.0,0.0,0.0,0.0,0.0,0.0,0.0,0.0,0.0,0.0,0.0,0.0,0.0,0.0,0.0,0.0,0.0,0.0,0.0,0.0,0.0,0.0,0.0,0.0,0.0,0.0,0.0,0.0,0.0,0.0,0.0,0.0,0.0,0.0,0.0,0.0,0.0,0.0,0.0,0.0,0.0,0.0,0.0,0.0,0.0,0.0,0.0,0.0,0.0,0.0,0.0,0.0,0.0,0.0,0.0,0.0,0.0,0.0,0.0,0.0,0.0,0.0,0.0,0.0,0.0,0.0,0.0,0.0,0.0,0.0,0.0,0.0,0.0,0.0,0.0,0.0,0.0,0.0,0.819,0.0,0.6504,0.5761,0.4935,0.4444,0.0,0.0,0.0,0.0,0.0,0.0,0.0,0.0,0.0,0.0,0.0,0.0,0.0,0.0,0.0,0.0,0.0,0.0,0.0,0.0,0.0,0.0,0.0,0.0,0.0,0.0,0.0,0.0,0.0,0.0,0.0,0.0,0.0,0.0,0.0,0.0,0.0,0.0,0.0,0.0,0.0,0.0,0.0,0.0,0.0,0.0,0.0,0.0,0.0,0.0,0.0,0.0,0.0,0.0,0.0,0.0,0.0,0.0,0.0,0.0,0.0,0.0,0.0,0.0,0.0,0.0,0.0,0.0,0.0,0.0,0.0,0.0,0.0,0.0,0.0,0.0,0.0,0.0,0.0,0.0,0.0,0.0,0.0,0.0,0.0,0.0,0.0,0.0,0.0,0.0,0.0,0.0,0.0,0.0,0.0,0.0,0.0,0.0,0.0,0.0,0.0,0.0,0.0,0.0,0.0,0.0,0.0,0.0,0.7966,0.715,0.6784,0.6368,0.5898,0.5017,0.4454,0.0,0.0,0.0,0.0,0.0,0.0,0.0,0.0,0.0,0.0,0.0,0.0,0.0,0.0,0.0,0.0,0.0,0.0,0.0,0.0,0.0,0.0,0.0,0.0,0.0,0.0,0.0,0.0,0.0,0.0,0.0,0.0,0.0,0.0,0.0,0.0,0.0,0.0,0.0,0.0,0.0,0.0,0.0,0.0,0.0,0.0,0.0,0.0,0.0,0.0,0.0,0.0,0.0,0.0,0.0,0.0,0.0,0.0,0.0,0.0,0.0,0.0,0.0,0.0,0.0,0.0,0.0,0.0,0.0,0.0,0.0,0.0,0.0,0.0,0.0,0.0,0.0,0.0,0.0,0.0,0.0,0.0,0.0,0.0,0.0,0.0,0.0,0.0,0.0,0.0,0.0,0.0,0.0,0.0,0.0,0.0,0.0,0.0,0.0,0.0,0.0,0.0,0.0,0.0,0.0,0.0,0.0,0.0,0.0,0.6627,0.6503,0.6254,0.578,0.5407,0.4938,0.0,0.0,0.0,0.0,0.0,0.0,0.0,0.0,0.0,0.0,0.0,0.0,0.0,0.0,0.0,0.0,0.0,0.0,0.0,0.0,0.0,0.0,0.0,0.0,0.0,0.0,0.0,0.0,0.0,0.0,0.0,0.0,0.0,0.0,0.0,0.0,0.0,0.0,0.0,0.0,0.0,0.0,0.0,0.0,0.0,0.0,0.0,0.0,0.0,0.0,0.0,0.0,0.0,0.0,0.0,0.0,0.0,0.0,0.0,0.0,0.0,0.0,0.0,0.0,0.0,0.0,0.0,0.0,0.0,0.0,0.0,0.0,0.0,0.0,0.0,0.0,0.0,0.0,0.0,0.0,0.0,0.0,0.0,0.0,0.0,0.0,0.0,0.0,0.0,0.0,0.0,0.0,0.0,0.0,0.0,0.0,0.0,0.0,0.0,0.0,0.0,0.0,0.0,0.0,0.0,0.0,0.0,0.0,0.0,0.6774,0.6681,0.6492,0.6103,0.5775,0.5334,0.4764,0.0,0.0,0.0,0.0,0.0,0.0,0.0,0.0,0.0,0.0,0.0,0.0,0.0,0.0,0.0,0.0,0.0,0.0,0.0,0.0,0.0,0.0,0.0,0.0,0.0,0.0,0.0,0.0,0.0,0.0,0.0,0.0,0.0,0.0,0.0,0.0,0.0,0.0,0.0,0.0,0.0,0.0,0.0,0.0,0.0,0.0,0.0,0.0,0.0,0.0,0.0,0.0,0.0,0.0,0.0,0.0,0.0,0.0,0.0,0.0,0.0,0.0,0.0,0.0,0.0,0.0,0.0,0.0,0.0,0.0,0.0,0.0,0.0,0.0,0.0,0.0,0.0,0.0,0.0,0.0,0.0,0.0,0.0,0.0,0.0,0.0,0.0,0.0,0.0,0.0,0.0,0.0,0.0,0.0,0.0,0.0,0.0,0.0,0.0,0.0,0.0,0.0,0.0,0.0,0.0,0.0,0.0,0.0,0.7439,0.727,0.706,0.684,0.6144,0.5638,0.0,0.0,0.0,0.0,0.0,0.0,0.0,0.0,0.0,0.0,0.0,0.0,0.0,0.0,0.0,0.0,0.0,0.0,0.0,0.0,0.0,0.0,0.0,0.0,0.0,0.0,0.0,0.0,0.0,0.0,0.0,0.0,0.0,0.0,0.0,0.0,0.0,0.0,0.0,0.0,0.0,0.0,0.0,0.0,0.0,0.0,0.0,0.0,0.0,0.0,0.0,0.0,0.0,0.0,0.0,0.0,0.0,0.0,0.0,0.0,0.0,0.0,0.0,0.0,0.0,0.0,0.0,0.0,0.0,0.0,0.0,0.0,0.0,0.0,0.0,0.0,0.0,0.0,0.0,0.0,0.0,0.0,0.0,0.0,0.0,0.0,0.0,0.0,0.0,0.0,0.0,0.0,0.0,0.0,0.0,0.0,0.0,0.0,0.0,0.0,0.0,0.0,0.0,0.0,0.0,0.0,0.0,0.0,0.0,0.7977,0.8021,0.7752,0.7235,0.6817,0.6297,0.0,0.0,0.0,0.0,0.0,0.0,0.0,0.0,0.0,0.0,0.0,0.0,0.0,0.0,0.0,0.0,0.0,0.0,0.0,0.0,0.0,0.0,0.0,0.0,0.0,0.0,0.0,0.0,0.0,0.0,0.0,0.0,0.0,0.0,0.0,0.0,0.0,0.0,0.0,0.0,0.0,0.0,0.0,0.0,0.0,0.0,0.0,0.0,0.0,0.0,0.0,0.0,0.0,0.0,0.0,0.0,0.0,0.0,0.0,0.0,0.0,0.0,0.0,0.0,0.0,0.0,0.0,0.0,0.0,0.0,0.0,0.0,0.0,0.0,0.0,0.0,0.0,0.0,0.0,0.0,0.0,0.0,0.0,0.0,0.0,0.0,0.0,0.0,0.0,0.0,0.0,0.0,0.0,0.0,0.0,0.0,0.0,0.0,0.0,0.0,0.0,0.0,0.0,0.0,0.0,0.0,0.0,0.0,0.8099,0.844,0.8411,0.8217,0.776,0.74,0.6889,0.0,0.0,0.0,0.0,0.0,0.0,0.0,0.0,0.0,0.0,0.0,0.0,0.0,0.0,0.0,0.0,0.0,0.0,0.0,0.0,0.0,0.0,0.0,0.0,0.0,0.0,0.0,0.0,0.0,0.0,0.0,0.0,0.0,0.0,0.0,0.0,0.0,0.0,0.0,0.0,0.0,0.0,0.0,0.0,0.0,0.0,0.0,0.0,0.0,0.0,0.0,0.0,0.0,0.0,0.0,0.0,0.0,0.0,0.0,0.0,0.0,0.0,0.0,0.0,0.0,0.0,0.0,0.0,0.0,0.0,0.0,0.0,0.0,0.0,0.0,0.0,0.0,0.0,0.0,0.0,0.0,0.0,0.0,0.0,0.0,0.0,0.0,0.0,0.0,0.0,0.0,0.0,0.0,0.0,0.0,0.0,0.0,0.0,0.0,0.0,0.0,0.0,0.0,0.0,0.0,0.0,0.0,0.0,0.8777,0.8939,0.8763,0.8536,0.8364,0.7883,0.7326,0.0,0.0,0.0,0.0,0.0,0.0,0.0,0.0,0.0,0.0,0.0,0.0,0.0,0.0,0.0,0.0,0.0,0.0,0.0,0.0,0.0,0.0,0.0,0.0,0.0,0.0,0.0,0.0,0.0,0.0,0.0,0.0,0.0,0.0,0.0,0.0,0.0,0.0,0.0,0.0,0.0,0.0,0.0,0.0,0.0,0.0,0.0,0.0,0.0,0.0,0.0,0.0,0.0,0.0,0.0,0.0,0.0,0.0,0.0,0.0,0.0,0.0,0.0,0.0,0.0,0.0,0.0,0.0,0.0,0.0,0.0,0.0,0.0,0.0,0.0,0.0,0.0,0.0,0.0,0.0,0.0,0.0,0.0,0.0,0.0,0.0,0.0,0.0,0.0,0.0,0.0,0.0,0.0,0.0,0.0,0.0,0.0,0.0,0.0,0.0,0.0,0.0,0.0,0.0,0.0,0.0,0.0,0.0,0.9616,0.9962,0.9601,0.9219,0.8933,0.8077,0.7373,0.0,0.0,0.0,0.0,0.0,0.0,0.0,0.0,0.0,0.0,0.0,0.0,0.0,0.0,0.0,0.0,0.0,0.0,0.0,0.0,0.0,0.0,0.0,0.0,0.0,0.0,0.0,0.0,0.0,0.0,0.0,0.0,0.0,0.0,0.0,0.0,0.0,0.0,0.0,0.0,0.0,0.0,0.0,0.0,0.0,0.0,0.0,0.0,0.6334,0.0,0.0,0.0,0.0,0.0,0.0,0.0,0.0,0.0,0.0,0.0,0.0,0.0,0.0,0.0,0.0,0.0,0.0,0.0,0.0,0.0,0.0,0.0,0.0,0.0,0.0,0.0,0.0,0.0,0.0,0.0,0.0,0.0,0.0,0.0,0.0,0.0,0.0,0.0,0.0,0.0,0.0,0.0,0.0,0.0,0.0,0.0,0.0,0.0,0.0,0.0,0.0,0.0,0.0,0.0,0.0,0.0,0.0,0.0,1.1057,1.1369,1.1089,1.0735,1.0365,0.9665,0.8668,0.0,0.0,0.0,0.0,0.0,0.0,0.0,0.0,0.0,0.0,0.0,0.0,0.0,0.0,0.0,0.0,0.0,0.0,0.0,0.0,0.0,0.0,0.0,0.0,0.0,0.0,0.0,0.0,0.0,0.0,0.0,0.0,0.0,0.0,0.0,0.0,0.0,0.0,0.0,0.0,0.0,0.0,0.0,0.0,0.0,0.0,0.0,0.0,0.0,0.0,0.0,0.0,0.0,0.0,0.0,0.0,0.0,0.0,0.0,0.0,0.0,0.0,0.0,0.0,0.0,0.0,0.0,0.0,0.0,0.0,0.0,0.0,0.0,0.0,0.0,0.0,0.0,0.0,0.0,0.0,0.0,0.0,0.0,0.0,0.0,0.0,0.0,0.0,0.0,0.0,0.0,0.0,0.0,0.0,0.0,0.0,0.0,0.0,0.0,0.0,0.0,0.0,0.0,0.0,0.0,0.0,0.0,1.2197,1.2467,1.271,1.2573,1.2326,1.1906,1.1508,1.033,0.8348,0.0,0.0,0.0,0.0,0.0,0.0,0.0,0.0,0.0,0.0,0.0,0.0,0.0,0.0,0.0,0.0,0.0,0.0,0.0,0.0,0.0,0.0,0.0,0.0,0.0,0.0,0.0,0.0,0.0,0.0,0.0,0.0,0.0,0.0,0.0,0.0,0.0,0.0,0.991,1.0166,0.0,0.0,0.0,0.0,0.0,0.0,0.0,0.0,0.5571,0.0,0.0,0.0,0.0,0.0,0.0,0.0,0.0,0.0,0.0,0.0,0.0,0.0,0.0,0.0,0.0,0.0,0.0,0.0,0.0,0.0,0.0,0.0,0.0,0.0,0.0,0.0,0.0,0.0,0.0,0.0,0.0,0.0,0.0,0.0,0.0,0.0,0.0,0.0,0.0,0.0,0.0,0.0,0.0,0.0,0.0,0.0,0.0,0.0,0.0,0.0,0.0,0.0,0.0,0.0,0.0,1.2252,1.265,1.298,1.3233,1.3169,1.2913,1.2473,1.1864,1.103,0.9917,0.0,0.0,0.0,0.0,0.0,0.0,0.0,0.0,0.0,0.0,0.0,0.0,0.0,0.0,0.0,0.0,0.0,0.0,0.0,0.0,0.0,0.0,0.0,0.0,0.0,0.0,0.0,0.0,0.0,0.0,0.0,0.0,0.0,0.0,0.0,0.0,0.0,0.0,0.0,1.0322,1.0278,0.0,0.0,0.0,0.0,0.0,0.0,0.0,0.0,0.5592,0.0,0.0,0.0,0.0,0.0,0.0,0.0,0.0,0.0,0.0,0.0,0.0,0.0,0.0,0.0,0.0,0.0,0.0,0.0,0.0,0.0,0.0,0.0,0.0,0.0,0.0,0.0,0.0,0.0,0.0,0.0,0.0,0.0,0.0,0.0,0.0,0.0,0.0,0.0,0.0,0.0,0.0,0.0,0.0,0.0,0.0,0.0,0.0,0.0,0.0,0.0,0.0,0.0,0.0,0.0,1.2839,1.3668,1.4264,1.4659,1.4786,1.4521,1.392,1.3149,1.2182,0.0,0.0,0.0,0.0,0.0,0.0,0.0,0.0,0.0,0.0,0.0,0.0,0.0,0.0,0.0,0.0,0.0,0.0,0.0,0.0,0.0,0.0,0.0,0.0,0.0,0.0,0.0,0.0,0.0,0.0,0.0,0.0,0.0,0.0,0.0,0.0,0.0,0.0,0.0,0.0,1.0683,1.0689,0.9575,0.0,0.0,0.0,0.0,0.0,0.0,0.6,0.5957,0.0,0.0,0.0,0.0,0.0,0.0,0.0,0.0,0.0,0.0,0.0,0.0,0.0,0.0,0.0,0.0,0.0,0.0,0.0,0.0,0.0,0.0,0.0,0.0,0.0,0.0,0.0,0.0,0.0,0.0,0.0,0.0,0.0,0.0,0.0,0.0,0.0,0.0,0.0,0.0,0.0,0.0,0.0,0.0,0.0,0.0,0.0,0.0,0.0,0.0,0.0,0.0,0.0,0.0,0.0,1.3548,1.4694,1.5496,1.6035,1.633,1.61,1.5343,1.4486,1.325,0.0,0.0,0.0,0.0,0.0,0.0,0.0,0.0,0.0,0.0,0.0,0.0,0.0,0.0,0.0,0.0,0.0,0.0,0.0,0.0,0.0,0.0,0.0,0.0,0.0,0.0,0.0,0.0,0.0,0.0,0.0,0.0,0.0,0.0,0.0,0.0,0.0,0.0,0.0,0.0,0.0,1.0983,0.9827,0.8881,0.0,0.0,0.0,0.0,0.6208,0.6383,0.0,0.0,0.0,0.0,0.0,0.0,0.0,0.0,0.0,0.0,0.0,0.0,0.0,0.0,0.0,0.0,0.0,0.0,0.0,0.0,0.0,0.0,0.0,0.0,0.0,0.0,0.0,0.0,0.0,0.0,0.0,0.0,0.0,0.0,0.0,0.0,0.0,0.0,0.0,0.0,0.0,0.0,0.0,0.0,0.0,0.0,0.0,0.0,0.0,0.0,0.0,0.0,0.0,0.0,0.0,0.0,1.3999,1.5139,1.6016,1.6587,1.6879,1.6709,1.6064,1.5027,1.3926,0.0,0.0,0.0,0.0,0.0,0.0,0.0,0.0,0.0,0.0,0.0,0.0,0.0,0.0,0.0,0.0,0.0,0.0,0.0,0.0,0.0,0.0,0.0,0.0,0.0,0.0,0.0,0.0,0.0,0.0,0.0,0.0,0.0,0.0,0.0,0.0,0.0,0.0,0.0,0.0,0.0,1.0842,0.9997,0.8978,0.8096,0.0,0.0,0.6569,0.6098,0.6314,0.0,0.0,0.0,0.0,0.0,0.0,0.0,0.0,0.0,0.0,0.0,0.0,0.0,0.0,0.0,0.0,0.0,0.0,0.0,0.0,0.0,0.0,0.0,0.0,0.0,0.0,0.0,0.0,0.0,0.0,0.0,0.0,0.0,0.0,0.0,0.0,0.0,0.0,0.0,0.0,0.0,0.0,0.0,0.0,0.0,0.0,0.0,0.0,0.0,0.0,0.0,0.0,0.0,0.0,0.0,1.4155,1.5238,1.6522,1.7257,1.7443,1.7989,1.7794,1.6791,1.6199,1.5213,0.0,0.0,0.0,0.0,0.0,0.0,0.0,0.0,0.0,0.0,0.0,0.0,0.0,0.0,0.0,0.0,0.0,0.0,0.0,0.0,0.0,0.0,0.0,0.0,0.0,0.0,0.0,0.0,0.0,0.0,0.0,0.0,0.0,0.0,0.0,0.0,0.0,0.0,0.0,0.0,0.0,0.0,1.0187,0.9282,0.0,0.0,0.0,0.6964,0.6423,0.0,0.0,0.0,0.0,0.0,0.0,0.0,0.0,0.0,0.0,0.0,0.0,0.0,0.0,0.0,0.0,0.0,0.0,0.0,0.0,0.0,0.0,0.0,0.0,0.0,0.0,0.0,0.0,0.0,0.0,0.0,0.0,0.0,0.0,0.0,0.0,0.0,0.0,0.0,0.0,0.0,0.0,0.0,0.0,0.0,0.0,0.0,0.0,0.0,0.0,0.0,0.0,0.0,0.0,0.0,0.0,0.0,1.6269,1.7658,1.8316,1.8227,1.8859,1.867,1.7529,1.726,0.0,0.0,0.0,0.0,0.0,0.0,0.0,0.0,0.0,0.0,0.0,0.0,0.0,0.0,0.0,0.0,0.0,0.0,0.0,0.0,0.0,0.0,0.0,0.0,0.0,0.0,0.0,1.0751,0.0,0.0,0.0,0.0,0.0,0.0,0.0,0.0,0.0,0.0,0.0,0.0,0.0,0.0,1.1135,1.0417,0.9577,0.8797,0.0,0.0,0.7245,0.6585,0.6831,0.6744,0.0,0.0,0.0,0.0,0.0,0.0,0.0,0.0,0.0,0.0,0.0,0.0,0.0,0.0,0.0,0.0,0.0,0.0,0.0,0.0,0.0,0.0,0.0,0.0,0.0,0.0,0.0,0.0,0.0,0.0,0.0,0.0,0.0,0.0,0.0,0.0,0.0,0.0,0.0,0.0,0.0,0.0,0.0,0.0,0.0,0.0,0.0,0.0,0.0,0.0,0.0,0.0,0.0,0.0,1.5696,1.676,1.813,1.8851,1.8762,1.9199,1.8991,1.824,1.768,1.6797,0.0,0.0,0.0,0.0,0.0,0.0,0.0,0.0,0.0,0.0,0.0,0.0,0.0,0.0,0.0,0.0,0.0,0.0,0.0,0.0,0.0,0.0,0.0,0.0,0.0,0.0,0.0,0.0,0.0,0.0,0.0,0.0,0.0,0.0,0.0,0.0,0.0,0.0,0.0,0.0,0.0,1.0985,1.0628,0.9947,0.9186,0.0,0.7794,0.7126,0.6331,0.6471,0.6283,0.5188,0.0,0.0,0.0,0.0,0.0,0.0,0.0,0.0,0.0,0.0,0.0,0.0,0.0,0.0,0.0,0.0,0.0,0.0,0.0,0.0,0.0,0.0,0.0,0.0,0.0,0.0,0.0,0.0,0.0,0.0,0.0,0.0,0.0,0.0,0.0,0.0,0.0,0.0,0.0,0.0,0.0,0.0,0.0,0.0,0.0,0.0,0.0,0.0,0.0,0.0,0.0,0.0,0.0,1.6686,1.762,1.8865,1.9368,1.9158,1.9737,1.9727,1.8912,1.8924,1.8254,0.0,0.0,0.0,0.0,0.0,0.0,0.0,0.0,0.0,0.0,0.0,0.0,0.0,0.0,0.0,0.0,0.0,0.0,0.0,0.0,0.0,0.0,0.0,0.0,0.0,0.0,0.0,0.0,1.1515,1.1545,1.1685,0.0,0.0,0.0,0.0,0.0,0.0,0.0,0.0,0.0,0.0,1.1236,1.101,1.06,0.0,0.0,0.8304,0.7409,0.6344,0.6269,0.5952,0.4981,0.4687,0.0,0.0,0.0,0.0,0.0,0.0,0.0,0.0,0.0,0.0,0.0,0.0,0.0,0.0,0.0,0.0,0.0,0.0,0.0,0.0,0.0,0.0,0.0,0.0,0.0,0.0,0.0,0.0,0.0,0.0,0.0,0.0,0.0,0.0,0.0,0.0,0.0,0.0,0.0,0.0,0.0,0.0,0.0,0.0,0.0,0.0,0.0,0.0,0.0,0.0,0.0,0.0,1.7312,1.8081,1.9289,1.9674,1.9311,1.9948,2.0008,1.9347,1.9546,1.9061,0.0,0.0,0.0,0.0,0.0,0.0,0.0,0.0,0.0,0.0,0.0,0.0,0.0,0.0,0.0,0.0,0.0,0.0,0.0,0.0,0.0,0.0,0.0,0.0,0.0,0.0,0.0,0.0,1.171,1.1673,1.1691,0.0,0.0,0.0,0.0,0.0,0.0,0.0,0.0,0.0,0.0,1.1373,1.1307,1.1053,1.0585,0.9875,0.8852,0.7814,0.6722,0.6307,0.5805,0.4944,0.0,0.0,0.0,0.0,0.0,0.0,0.0,0.0,0.0,0.0,0.0,0.0,0.0,0.0,0.0,0.0,0.0,0.0,0.0,0.0,0.0,0.0,0.0,0.0,0.0,0.0,0.0,2.2983,0.0,0.0,2.1074,0.0,0.0,0.0,0.0,0.0,0.0,0.0,0.0,0.0,0.0,0.0,0.0,0.0,0.0,0.0,0.0,0.0,0.0,0.0,0.0,0.0,0.0,1.7312,1.8119,1.9311,1.9714,1.9329,1.9714,1.9732,1.9329,1.9311,1.8866,1.7821,0.0,0.0,0.0,0.0,0.0,0.0,0.0,0.0,0.0,0.0,0.0,0.0,0.0,0.0,0.0,0.0,0.0,0.0,0.0,0.0,0.0,0.0,0.0,0.0,0.0,0.0,1.2551,1.2218,1.2035,0.0,0.0,0.0,0.0,0.0,0.0,0.0,0.0,0.0,1.0309,1.0743,1.1208,1.1523,1.1272,1.0912,1.0631,0.954,0.8427,0.754,0.6735,0.5937,0.0,0.0,0.0,0.0,0.0,0.0,0.0,0.0,0.0,0.0,0.0,0.0,0.0,0.0,0.0,0.0,0.0,0.0,0.0,0.0,0.0,0.0,0.0,0.0,0.0,0.0,0.0,2.5633,2.5236,0.0,0.0,0.0,0.0,0.0,0.0,0.0,0.0,0.0,0.0,0.0,2.2585,2.2706,0.0,0.0,0.0,0.0,0.0,0.0,0.0,0.0,0.0,0.0,0.0,0.0,1.7506,1.8304,1.9347,1.9776,1.9527,1.9617,1.9577,1.9292,1.9292,1.8759,1.7606,0.0,0.0,0.0,0.0,0.0,0.0,0.0,0.0,0.0,0.0,0.0,0.0,0.0,0.0,0.0,0.0,0.0,0.0,0.0,0.0,0.0,0.0,0.0,0.0,0.0,1.2844,0.0,0.0,0.0,0.0,0.0,0.0,0.0,0.0,0.0,0.0,0.0,1.0835,1.0951,1.1205,1.1378,1.1519,1.1721,1.1647,0.0,0.0,0.0,0.0,0.0,0.0,0.0,0.0,0.0,0.0,0.0,0.0,0.0,0.0,0.4285,0.401,0.342,0.2763,0.2197,0.0,0.0,0.0,0.0,0.0,0.0,0.0,0.0,0.0,0.0,0.0,0.0,0.0,0.0,2.7765,0.0,2.595,0.0,0.0,0.0,0.0,0.0,0.0,0.0,0.0,2.4898,2.5201,2.5001,2.5127,2.5066,0.0,2.5015,2.3832,0.0,0.0,0.0,0.0,0.0,0.0,0.0,0.0,1.7894,1.8728,1.9678,2.0098,1.9942,1.9942,1.9902,1.9784,1.9634,1.9014,1.7926,1.7037,1.6284,0.0,0.0,0.0,0.0,0.0,0.0,0.0,0.0,0.0,0.0,0.0,0.0,0.0,0.0,0.0,0.0,0.0,0.0,0.0,0.0,0.0,0.0,0.0,1.295,0.0,0.0,0.0,0.0,0.0,0.0,0.0,0.0,0.0,1.1067,1.1148,1.1288,1.1291,1.1329,1.1417,1.1597,0.0,0.0,0.0,0.0,0.0,0.0,0.0,0.708,0.6327,0.5694,0.5167,0.4965,0.4834,0.4773,0.4744,0.0,0.0,0.4356,0.3808,0.3209,0.2649,0.2496,0.2347,0.2067,0.2055,0.2113,0.0,0.0,0.0,0.0,0.0,0.0,0.0,0.0,3.0427,3.0192,0.0,2.7966,0.0,0.0,0.0,0.0,2.4029,2.5217,0.0,0.0,2.7507,2.7935,2.7308,2.7721,2.7631,2.7031,2.7426,2.6862,2.5349,2.2568,0.0,0.0,0.0,0.0,0.0,0.0,1.8487,1.935,2.0251,2.0683,2.0683,2.0683,2.0683,2.0663,2.027,1.9661,1.8856,1.838,1.7783,1.6975,1.6471,0.0,0.0,0.0,0.0,0.0,0.0,0.0,0.0,0.0,0.0,0.0,0.0,0.0,0.0,0.0,0.0,0.0,0.0,0.0,0.0,1.2977,0.0,0.0,0.0,0.0,0.0,0.0,0.0,0.0,0.0,0.0,1.16,1.1532,1.1578,1.14,0.0,0.0,0.0,0.0,1.2026,1.2336,1.1622,1.0829,1.0201,0.886,0.7698,0.7178,0.0,0.0,0.5442,0.5171,0.4964,0.4811,0.4735,0.4657,0.4536,0.4196,0.3705,0.3124,0.2951,0.2896,0.2818,0.2688,0.2665,3.3819,0.0,0.0,0.0,0.0,3.2653,3.3414,3.4193,3.3111,3.2423,3.1991,3.0677,0.0,0.0,0.0,0.0,0.0,0.0,2.7701,2.8075,2.855,2.8786,2.8755,2.8379,2.825,2.8213,2.7864,2.7215,2.6259,2.4844,2.295,2.0598,0.0,0.0,0.0,0.0,1.9784,2.0673,2.1745,2.2188,2.2,2.2038,2.1962,2.1811,2.1412,2.111,2.0839,2.0156,1.97,1.9459,1.868,0.0,0.0,0.0,0.0,0.0,0.0,0.0,0.0,0.0,0.0,0.0,0.0,0.0,0.0,0.0,0.0,0.0,0.0,0.0,1.3565,1.3429,1.3316,0.0,0.0,0.0,0.0,0.0,0.0,0.0,0.0,0.0,1.3099,1.2677,1.2402,0.0,0.0,1.1706,1.1862,1.2083,1.2151,1.2062,1.1963,0.0,1.0807,0.9927,0.9145,0.8524,0.7694,0.6881,0.6198,0.5819,0.5462,0.4919,0.4806,0.4746,0.4662,0.4353,0.392,0.3429,0.3347,0.3348,0.3197,0.3048,0.2768,3.7304,3.45,3.4073,3.4351,3.512,3.5537,3.6186,3.6957,3.5902,3.5289,3.4828,3.3401,3.2096,3.0868,2.9792,0.0,0.0,0.0,3.024,3.0577,3.0551,3.0545,3.0445,2.9516,2.9057,2.9003,2.8343,2.7675,2.7033,2.632,2.4953,2.2856,0.0,0.0,2.0172,2.0402,2.0962,2.187,2.2768,2.3143,2.2995,2.2995,2.2957,2.2809,2.2578,2.2375,2.2179,2.1726,2.1344,2.1181,2.0259,1.9513,0.0,0.0,0.0,0.0,0.0,0.0,0.0,0.0,0.0,0.0,0.0,1.4694,1.5021,0.0,0.0,0.0,1.4638,1.4304,1.4172,1.3872,0.0,0.0,0.0,0.0,0.0,0.0,0.0,1.3696,1.3952,1.4091,1.4012,1.3572,1.317,1.2879,1.2247,1.1848,1.1769,0.0,1.2054,1.191,1.1962,1.177,1.1136,1.0495,0.9876,0.9208,0.8494,0.7711,0.6976,0.6518,0.6001,0.5281,0.4983,0.4869,0.4748,0.4485,0.4214,0.384,0.3833,0.3841,0.3712,0.3353,0.2868,4.0006,3.9186,3.7411,3.7263,3.815,3.836,3.8781,3.9276,3.858,3.826,3.802,3.5993,3.4768,3.414,3.2179,0.0,3.2063,3.2742,3.3023,3.305,3.3071,3.2782,3.2216,3.0955,3.005,2.9496,2.8846,2.8264,2.771,2.7165,2.6395,2.5276,2.2482,2.1471,2.223,2.1834,2.206,2.3008,2.3492,2.374,2.374,2.374,2.374,2.374,2.374,2.3514,2.3121,2.3076,2.2886,2.2388,2.1461,2.0692,2.0118,0.0,0.0,0.0,0.0,0.0,0.0,0.0,0.0,0.0,0.0,0.0,0.0,0.0,0.0,0.0,1.5211,0.0,1.4784,1.4375,0.0,0.0,0.0,1.3601,1.3799,1.4268,1.4492,1.4303,0.0,0.0,1.4397,1.4214,1.3754,1.2851,1.2233,1.1821,1.1603,1.1805,1.191,1.1886,1.1694,1.1447,1.1268,1.0701,1.0154,0.9642,0.9112,0.8571,0.7784,0.7312,0.6668,0.565,0.5259,0.5038,0.4742,0.458,0.446,0.4317,0.4295,0.4295,0.4217,0.3713,0.2972,4.2381,4.1347,4.0888,4.0281,3.9584,3.9493,3.9899,4.0525,3.945,3.8667,3.8144,3.6987,3.5931,3.4936,3.4122,3.3808,3.3945,3.412,3.4203,3.4176,3.3698,3.3256,3.282,3.1558,3.0733,3.0266,2.9264,2.8473,2.7755,2.7237,2.6574,2.5746,2.4614,2.3838,2.3404,2.3285,2.3512,2.4093,2.4614,2.4909,2.4874,2.4909,2.4874,2.4874,2.4874,2.4862,2.472,2.472,2.4483,2.3962,2.338,2.2645,2.1689,2.0529,0.0,0.0,0.0,0.0,0.0,0.0,0.0,0.0,0.0,1.6038,1.6361,0.0,1.6673,0.0,1.6747,1.6202,1.5677,1.5282,0.0,0.0,1.407,1.401,1.395,1.4219,1.4327,1.4315,1.4508,1.4659,1.4725,1.4478,1.4138,1.3765,1.3256,1.2705,1.2355,1.2208,1.2143,1.191,1.1842,1.1718,1.1424,1.1147,1.0818,1.0694,1.0319,0.9729,0.8811,0.83,0.7593,0.62,0.5666,0.5291,0.4798,0.452,0.4344,0.4306,0.43,0.43,0.43,0.3832,0.3159,4.3253,4.2092,4.2092,4.1654,4.099,4.0879,4.0926,4.1047,4.035,3.9509,3.8609,3.7858,3.7172,3.653,3.6315,3.6174,3.6174,3.6212,3.6212,3.6146,3.5232,3.4626,3.4233,3.2691,3.1612,3.0907,3.0006,2.9226,2.8446,2.7875,2.7303,2.6826,2.6264,2.5669,2.5068,2.4521,2.4464,2.4832,2.5155,2.5324,2.5324,2.5324,2.5324,2.53,2.5083,2.4963,2.4963,2.4747,2.4482,2.4194,2.3746,2.3071,2.2252,2.117,2.0239,0.0,0.0,0.0,0.0,0.0,0.0,0.0,0.0,0.0,0.0,0.0,1.8079,1.8261,1.7768,1.7256,1.6767,1.6263,1.5715,1.5245,1.4848,1.4606,1.4458,1.4417,1.4387,1.4387,1.4446,1.4593,1.4857,1.4733,1.463,1.4576,1.4336,1.3733,1.2647,1.2346,1.2184,1.1756,1.168,1.1593,1.1359,1.1214,1.1069,1.0924,1.0679,1.0151,0.9246,0.8776,0.8016,0.6667,0.605,0.5592,0.495,0.4597,0.44,0.4334,0.43,0.43,0.43,0.3933,0.3393,4.3253,4.2092,4.2092,4.2092,4.2092,4.2092,4.1773,4.1221,4.1134,4.0379,3.916,3.8492,3.8202,3.8202,3.8115,3.8086,3.8086,3.7999,3.797,3.7883,3.6722,3.6021,3.5632,3.3839,3.2513,3.1631,3.0877,3.0166,2.9416,2.8681,2.8229,2.7963,2.7395,2.6994,2.6756,2.5658,2.5144,2.53,2.5324,2.5324,2.5324,2.5324,2.5324,2.53,2.4795,2.4496,2.4472,2.4083,2.377,2.3697,2.3264,2.2782,2.2221,2.1395,2.0559,0.0,1.9234,0.0,0.0,0.0,0.0,0.0,0.0,0.0,0.0,1.9634,1.9508,1.9178,1.8615,1.8216,1.8019,1.7338,1.6749,1.6507,1.5812,1.5283,1.5068,1.4743,1.4536,1.4536,1.4536,1.4623,1.4839,1.5028,1.5158,1.5206,1.5254,1.4651,1.3087,1.2674,1.2425,1.1676,1.1527,1.1428,1.1179,1.1129,1.1021,1.0755,1.0599,1.0184,0.9434,0.8997,0.8374,0.7285,0.665,0.6058,0.53,0.4919,0.46,0.4395,0.4334,0.43,0.4267,0.4061,0.3689,4.3253,4.2092,4.2092,4.2092,4.2092,4.2092,4.2034,4.186,4.1337,4.0379,3.916,3.8492,3.8202,3.8173,3.768,3.7476,3.7447,3.6896,3.6664,3.6635,3.588,3.5427,3.5158,3.4022,3.3283,3.2842,3.1481,3.0583,3.02,2.9053,2.8317,2.7987,2.7848,2.7663,2.7364,0.0,0.0,0.0,2.5324,2.5324,2.5324,2.5324,2.5324,2.53,2.4795,0.0,2.4506,2.4049,2.3601,2.3192,2.3071,0.0,0.0,0.0,0.0,0.0,0.0,0.0,0.0,0.0,0.0,0.0,2.047,2.0329,1.9889,2.0178,2.0281,1.9991,1.9805,1.9553,1.9216,1.8648,1.7947,1.7089,1.6487,1.595,1.5381,1.5079,1.4862,1.4695,1.4647,1.4694,1.4852,1.5123,1.5355,1.546,1.56,1.5361,1.4561,1.3859,1.3313,1.2742,1.2083,1.1527,1.1155,1.1105,1.1021,1.0755,1.0683,1.0408,0.9864,0.9582,0.9178,0.8229,0.7623,0.6933,0.6043,0.542,0.4921,0.4628,0.4434,0.43,0.43,0.4133,0.3861,4.3867,4.2677,4.2677,4.2677,0.0,4.2596,4.2555,4.2485,4.1878,4.0873,3.9596,3.8638,3.8202,3.8173,3.7883,3.7593,3.7302,3.6954,3.6635,3.6286,3.5683,3.5323,3.5224,3.4381,3.3785,3.3368,3.2572,3.1716,3.0834,3.0095,2.9457,2.8871,2.8803,2.8638,2.8287,2.7696,2.679,2.5606,2.5606,2.5606,2.5606,2.5606,2.5606,2.5606,2.5095,0.0,0.0,0.0,0.0,0.0,0.0,0.0,0.0,0.0,0.0,2.129,2.0819,2.0382,2.0088,2.0041,2.0335,2.1003,2.1439,2.1486,2.0929,2.1049,2.1059,2.081,2.0692,2.0523,2.0236,1.9676,1.9014,1.8294,1.7396,1.6675,1.6245,1.5752,1.5371,1.5177,1.503,1.5023,1.5192,1.5409,1.5617,1.5865,1.6171,1.6193,1.5736,1.4852,1.3954,1.3177,1.2452,1.1834,1.1438,1.1304,1.1046,1.0607,1.0476,1.0262,0.9805,0.9479,0.9139,0.8657,0.8025,0.7288,0.6555,0.5933,0.5451,0.5093,0.4827,0.4661,0.4567,0.4334,0.41,4.4881,4.3796,4.3645,4.3615,4.3576,4.3388,4.3299,4.318,0.0,0.0,0.0,3.8984,3.8431,3.8315,3.8198,3.7783,3.7165,3.7048,3.6642,3.5967,3.5479,3.5218,3.5189,3.4661,3.4138,3.3678,3.3561,3.2854,3.1651,3.1234,3.0708,3.0038,2.98,2.9491,2.9113,2.8346,2.739,2.6336,2.6129,2.6119,2.606,2.6119,2.6119,2.6094,2.5574,2.5078,2.4632,2.4144,2.3648,2.3201,2.3046,2.3027,2.2997,2.2745,2.2444,2.2056,2.1764,2.1439,2.099,2.0842,2.0997,2.1612,2.219,2.2327,2.1949,2.18,2.1651,2.1463,2.136,2.1201,2.1019,2.0497,1.9954,1.9576,1.8425,1.7603,1.7273,1.6617,1.6032,1.5749,1.5468,1.5341,1.5476,1.5638,1.584,1.6175,1.6528,1.6839,1.6524,1.5542,1.4525,1.3731,1.3078,1.2408,1.1957,1.1611,1.1184,1.0476,1.0344,1.0113,0.9636,0.9241,0.9005,0.8958,0.8313,0.773,0.7135,0.6704,0.6228,0.5712,0.545,0.5206,0.4924,0.4614,0.4367,4.6408,4.567,4.5042,4.4756,4.4756,4.46,4.4327,4.3905,4.2416,4.1371,4.0674,3.99,3.9253,3.8694,3.8164,3.7468,3.6681,3.619,3.5472,3.469,3.4574,3.4545,3.4545,3.4457,3.437,3.4254,3.3765,3.3318,3.2865,3.1792,3.1154,3.0885,3.0306,2.9741,2.9113,2.8697,2.8216,2.7696,2.7129,2.685,2.685,2.685,2.685,2.6824,2.6322,2.6016,2.5946,2.5409,2.5109,2.5032,2.454,2.4254,2.4229,2.3734,2.3403,2.3327,2.3174,2.314,2.3207,2.307,2.3101,2.3408,2.3496,2.3095,2.202,2.1894,2.18,2.1667,2.1682,2.1549,2.1336,2.1164,2.0791,2.0195,1.9568,1.8864,1.802,1.7424,1.6871,1.6308,1.5845,1.5517,1.5409,1.5656,1.5877,1.5914,1.645,1.6821,1.6577,1.607,1.5401,1.4748,1.4081,1.3389,1.2761,1.2124,1.1491,1.0763,1.0492,1.0188,0.9608,0.9412,0.9336,0.9376,0.8997,0.8602,0.8226,0.7804,0.7242,0.6676,0.622,0.5793,0.5351,0.4975,0.4634,4.7763,4.6819,4.6434,4.6054,4.5701,4.541,4.5073,4.4631,4.3785,4.2878,4.1918,4.089,4.0261,3.9931,3.9272,3.8506,3.7704,3.7227,3.658,3.5756,3.517,3.4922,3.4893,3.4574,3.4366,3.4366,3.4138,3.3786,3.3343,3.2764,3.2095,3.1337,3.0582,2.9991,2.9648,2.9369,2.9089,2.8862,2.802,2.7497,2.7456,2.7456,2.739,2.7289,2.703,2.6745,2.6466,2.6207,2.5979,2.5699,2.5408,2.5122,2.4806,2.4806,2.4676,2.4416,2.4498,2.456,2.4469,2.4112,2.392,2.4091,2.4058,2.3831,2.3248,2.3039,2.291,2.2846,2.2837,2.2749,2.2563,2.2367,2.2027,2.1357,2.0765,2.0101,1.9283,1.8445,1.7781,1.7255,1.6592,1.6066,1.5729,1.5957,1.6096,1.6062,1.6529,1.6855,1.6804,1.6542,1.6158,1.5473,1.4681,1.3926,1.3362,1.2648,1.184,1.0997,1.0692,1.0327,0.979,0.9483,0.9372,0.9436,0.9217,0.8885,0.8688,0.826,0.7796,0.7339,0.6794,0.6292,0.5887,0.5245,0.4612,4.9176,4.8045,4.7852,4.7332,4.6582,4.6234,4.5877,4.5478,4.5258,4.4607,4.3574,4.2065,4.1285,4.1071,4.0365,3.959,3.8841,3.8432,3.7823,3.699,3.5996,3.553,3.5472,3.4855,3.4501,3.4501,3.4501,3.4239,3.3835,3.366,3.2931,3.1646,3.094,3.044,3.0233,2.9991,2.9806,2.9679,2.8835,2.8287,2.8118,2.8052,2.7921,2.7756,2.7756,2.7545,2.7155,2.7129,2.6918,2.6527,2.6369,2.6078,2.5682,2.592,2.5893,2.5493,2.5686,2.5751,2.5467,2.5141,2.4921,2.4921,2.4921,2.4921,2.4888,2.469,2.4302,2.3941,2.3779,2.3737,2.3456,2.3313,2.2991,2.2311,2.1786,2.1149,2.0373,1.9492,1.8767,1.8313,1.7579,1.6982,1.6708,1.6626,1.6561,1.6489,1.6771,1.701,1.7047,1.7012,1.6682,1.614,1.5291,1.4563,1.3982,1.3197,1.2333,1.1447,1.1081,1.0645,1.0091,0.9575,0.9338,0.9488,0.9265,0.9072,0.8945,0.8639,0.8244,0.79,0.741,0.6853,0.6357,0.5547,0.469,5.0643,4.9883,4.9189,4.8396,4.7571,4.7303,4.6997,4.6652,4.6337,4.6052,4.5507,4.3366,4.2078,4.1524,4.0812,4.0067,3.9283,3.8845,3.8271,3.7434,3.6373,3.5874,3.5844,3.5192,3.4868,3.4868,3.4868,3.4843,3.4725,3.4227,3.3282,3.2073,3.1622,3.1177,3.0594,3.0233,3.008,3.005,2.9775,2.9404,2.899,2.8798,2.8665,2.8503,2.8503,2.8476,2.8368,2.8454,2.8395,2.8319,2.78,2.7503,2.7394,2.7016,2.6688,2.6634,2.6566,2.6503,2.6556,2.6683,2.668,2.6739,2.6654,2.6654,2.668,2.668,2.5904,2.455,2.4049,2.3966,2.3561,2.3542,2.3309,2.2728,2.2497,2.1908,2.0958,2.0404,1.9969,1.9342,1.8866,1.8455,1.808,1.7688,1.7288,1.7005,1.7269,1.7495,1.7461,1.7358,1.7201,1.6899,1.6133,1.537,1.4932,1.3979,1.2992,1.2274,1.1731,1.115,1.051,1.0085,0.9843,0.9723,0.9524,0.9468,0.9368,0.9194,0.8889,0.8473,0.8013,0.7512,0.6696,0.5934,0.5231,5.1247,5.0187,4.9855,4.896,4.7803,4.7605,4.7404,4.7064,4.6756,4.658,4.6272,4.4791,4.3686,4.2782,4.1656,4.0899,4.0482,4.0112,3.9715,3.9207,3.8193,3.7511,3.7027,3.6427,3.5947,3.5524,3.5464,3.5527,3.5374,3.4898,3.4329,3.3697,3.2825,3.2049,3.1603,3.0952,3.0538,3.0387,3.0205,2.996,2.9651,2.9366,2.9081,2.8922,2.8922,2.889,2.8922,2.8922,2.889,2.8894,2.8643,2.831,2.783,2.7912,2.7767,2.7375,2.7427,2.7498,2.7511,2.7359,2.7289,2.7323,2.7289,2.7289,2.7289,2.7289,2.6855,2.6063,2.5526,2.5188,2.4915,2.4675,2.4321,2.38,2.368,2.3304,2.2477,2.1917,2.1385,2.0742,2.0152,1.9591,1.911,1.8723,1.828,1.7898,1.8029,1.8206,1.8124,1.7954,1.775,1.7434,1.6778,1.6071,1.5458,1.4484,1.3571,1.2846,1.2197,1.1577,1.1076,1.0649,1.0396,1.0219,1.0079,0.9951,0.9792,0.9359,0.8967,0.8674,0.8311,0.7735,0.7022,0.6372,0.5765,5.1214,4.9988,4.969,4.8928,4.7803,4.777,4.7605,4.7336,4.7132,4.6929,4.6657,4.584,4.4989,4.4143,4.2706,4.1844,4.1521,4.1122,4.0851,4.0622,3.963,3.8754,3.805,3.7443,3.6741,3.6161,3.607,3.607,3.6009,3.5644,3.5309,3.4973,3.4,3.3095,3.2437,3.1723,3.1161,3.0746,3.0538,3.0387,3.0264,2.9927,2.9557,2.9303,2.924,2.924,2.924,2.924,2.924,2.9271,2.918,2.8892,2.8322,2.8611,2.857,2.803,2.8131,2.8243,2.8243,2.798,2.7789,2.7789,2.7789,2.7789,2.7789,2.7789,2.7723,2.7471,2.696,2.6458,2.6025,2.5676,2.5223,2.4764,2.4667,2.4382,2.3718,2.3212,2.2725,2.2121,2.1494,2.0734,1.9977,1.9607,1.9264,1.869,1.8799,1.8977,1.8811,1.863,1.8361,1.7969,1.7461,1.6788,1.5885,1.4942,1.4115,1.3566,1.2956,1.232,1.1794,1.1483,1.117,1.1094,1.0825,1.0496,1.0249,0.9731,0.9015,0.8667,0.8311,0.7951,0.747,0.6905,0.6493,5.0485,4.916,4.8398,4.8133,4.8001,4.7968,4.7836,4.7638,4.7471,4.7302,4.7035,4.6215,4.5758,4.5562,4.3876,4.2717,4.2076,4.1522,4.129,4.116,4.0037,3.9154,3.8444,3.78,3.7154,3.6538,3.6507,3.6507,3.6476,3.6445,3.6107,3.5491,3.5155,3.4302,3.3064,3.2645,3.199,3.1338,3.1101,3.0835,3.0805,3.0657,3.0294,2.9744,2.9585,2.9617,2.9617,2.9585,2.9617,2.9585,2.9463,2.9219,2.9089,2.8894,2.8766,2.861,2.8573,2.86,2.86,2.8541,2.8509,2.8536,2.8476,2.8536,2.8471,2.8471,2.8346,2.8222,2.7855,2.7297,2.6552,2.6164,2.5724,2.5247,2.5124,2.4869,2.4221,2.4254,2.3902,2.3469,2.2917,2.2036,2.0734,2.0403,2.0131,1.9669,1.9512,1.9594,1.9561,1.933,1.8965,1.8576,1.8146,1.7576,1.6489,1.5486,1.4859,1.4312,1.3699,1.3208,1.2887,1.2551,1.2258,1.195,1.1624,1.1253,1.0805,1.0146,0.9364,0.887,0.8539,0.8149,0.7777,0.7586,0.7227,5.0726,4.9359,4.8625,4.8227,4.8164,4.813,4.7968,4.7704,4.777,4.7637,4.7404,4.7142,4.6716,4.6125,4.5049,4.3978,4.2977,4.2171,4.1753,4.1621,4.1105,4.0252,3.9186,3.8874,3.8184,3.7276,3.7119,3.7151,3.7151,3.7151,3.7025,3.6743,3.6126,3.5421,3.4691,3.4055,3.3483,3.2975,3.2886,3.2646,3.2227,3.2137,3.1811,3.1073,3.0509,3.0235,3.0235,3.0235,3.0235,3.0235,3.0174,2.9993,2.9775,2.9491,2.9303,2.9212,2.9117,2.9026,2.9053,2.8958,2.8922,2.8922,2.8794,2.8729,2.8729,2.8665,2.8568,2.8444,2.8183,2.7789,2.749,2.6952,2.6535,2.6358,2.6308,2.6173,2.6022,2.5946,2.5745,2.5079,2.4263,2.3264,2.2353,2.1987,2.1614,2.1017,2.081,2.0677,2.0571,2.0313,1.9835,1.9408,1.9044,1.8569,1.788,1.6351,1.5278,1.4826,1.4263,1.3718,1.3299,1.3177,1.2887,1.2734,1.2428,1.1996,1.1503,1.0564,0.9768,0.8985,0.8664,0.8458,0.8096,0.7818,0.7538,5.045,4.954,4.9032,4.8671,4.8547,4.8386,4.8226,4.8065,4.8163,4.8098,4.7935,4.8,4.7637,4.6945,4.5959,4.5014,4.4075,4.288,4.2174,4.2045,4.1851,4.1118,4.0166,4.0007,3.9436,3.8421,3.8011,3.7888,3.7765,3.7636,3.751,3.7417,3.6855,3.6333,3.5787,3.5234,3.475,3.4298,3.4148,3.3904,3.3507,3.3505,3.3262,3.2751,3.2167,3.1545,3.1073,3.1014,3.1043,3.1014,3.0984,3.0807,3.045,3.0206,2.9993,2.9931,2.9747,2.9594,2.9529,2.9341,2.9212,2.9149,2.899,2.889,2.8826,2.8697,2.8633,2.8568,2.8438,2.8276,2.8177,2.7822,2.7423,2.7255,2.7188,2.7154,2.7162,2.6948,2.6327,2.5369,2.4736,2.4025,2.3337,2.2935,2.2551,2.2155,2.1792,2.1454,2.1328,2.1019,2.0635,2.0128,1.977,1.9342,1.8693,1.7459,1.6249,1.5688,1.4793,1.4231,1.386,1.3739,1.3601,1.345,1.3147,1.2689,1.1966,1.1009,1.0135,0.9315,0.892,0.8742,0.8361,0.796,0.7782,4.9441,4.9441,4.9402,4.9316,4.9135,4.8827,4.8702,4.8671,4.8671,4.8671,4.8639,4.8671,4.8511,4.8085,4.6668,4.572,4.5139,4.3615,4.2619,4.2429,4.2206,4.1725,4.1021,4.0989,4.0574,3.9807,3.9175,3.8674,3.8397,3.7891,3.7605,3.751,3.7447,3.6951,3.6029,3.5998,3.5539,3.4929,3.4778,3.4654,3.4532,3.4531,3.4469,3.4378,3.4289,3.3562,3.2088,3.197,3.1913,3.1912,3.1766,3.1564,3.1217,3.1013,3.0867,3.0689,3.048,3.0238,3.0056,2.9777,2.9588,2.9435,2.9243,2.9085,2.899,2.8798,2.8729,2.8729,2.8697,2.8665,2.8665,2.8573,2.8281,2.7656,2.759,2.7556,2.7399,2.6974,2.6025,2.4873,2.4633,2.4372,2.3762,2.3335,2.3103,2.2927,2.2345,2.1737,2.1698,2.1423,2.1051,2.07,2.0387,2.0096,1.9383,1.8585,1.759,1.6605,1.5578,1.4754,1.4488,1.4309,1.4279,1.413,1.3782,1.3329,1.2565,1.1646,1.0929,1.0149,0.9698,0.9093,0.8637,0.828,0.8081,4.9732,4.9732,4.9732,4.9644,4.953,4.9195,4.907,4.9195,4.9104,4.9104,4.9165,4.9104,4.8951,4.8596,4.7479,4.6529,4.5808,4.4726,4.3727,4.2902,4.2555,4.2104,4.1588,4.1459,4.0949,4.0124,3.9685,3.915,3.8585,3.8332,3.7986,3.7605,3.751,3.7356,3.7044,3.7014,3.6829,3.6613,3.6582,3.6333,3.5864,3.5801,3.5582,3.5172,3.5109,3.4801,3.4313,3.3481,3.3038,3.2977,3.2492,3.2104,3.1908,3.1679,3.1564,3.1507,3.119,3.0984,3.0866,3.0567,3.0323,3.0174,2.996,2.9747,2.9682,2.946,2.9362,2.9331,2.9303,2.9303,2.9303,2.9303,2.9045,2.8314,2.8249,2.8055,2.7616,2.7018,2.6268,2.5636,2.5386,2.532,2.5109,2.4575,2.3927,2.3909,2.3098,2.2321,2.2073,2.1831,2.1643,2.1368,2.1115,2.0869,2.0303,1.9513,1.8453,1.741,1.6327,1.5362,1.5049,1.4902,1.4891,1.4714,1.4369,1.3842,1.3097,1.2421,1.1733,1.096,1.0365,0.9715,0.9031,0.8712,0.858,5.0285,5.0285,5.0257,5.0171,4.9994,4.9669,4.958,4.9674,4.9551,4.958,4.9674,4.9585,4.9466,4.915,4.8203,4.7447,4.6784,4.5875,4.4964,4.4019,4.3239,4.2727,4.2367,4.2334,4.1957,4.1229,4.0818,4.0312,3.965,3.9109,3.8631,3.8309,3.7932,3.7685,3.7655,3.7628,3.7569,3.751,3.7478,3.7259,3.6911,3.6817,3.6627,3.6216,3.6153,3.6184,3.6093,3.512,3.4325,3.3796,3.3115,3.2687,3.2605,3.2492,3.2382,3.2333,3.2235,3.2158,3.2072,3.202,3.1841,3.1751,3.154,3.1358,3.1266,3.102,3.0864,3.0864,3.0893,3.0864,3.0893,3.0864,3.0529,2.9771,2.91,2.852,2.7818,2.7286,2.6689,2.6303,2.6169,2.6295,2.6091,2.548,2.4747,2.4613,2.3667,2.2726,2.2451,2.2204,2.208,2.1901,2.1683,2.1471,2.133,2.0442,1.9329,1.8186,1.7089,1.6162,1.5517,1.541,1.5371,1.5196,1.4854,1.4529,1.3867,1.3433,1.2811,1.1964,1.114,1.0622,1.0073,0.9504,0.929,5.0978,5.0943,5.0908,5.0764,5.053,5.0222,5.0137,5.02,5.0108,5.0137,5.02,5.0108,4.9988,4.9706,4.8871,4.8348,4.8065,4.7011,4.6299,4.5739,4.4778,4.3968,4.361,4.3547,4.3333,4.2966,4.2446,4.1972,4.1439,4.0463,3.9628,3.9458,3.8735,3.8119,3.8004,3.7801,3.7687,3.7539,3.751,3.7478,3.7415,3.7417,3.7447,3.7383,3.7352,3.732,3.7164,3.6506,3.5622,3.4478,3.3797,3.3518,3.3445,3.3435,3.3428,3.3329,3.3575,3.3571,3.3585,3.357,3.3727,3.3547,3.3367,3.3486,3.3154,3.2851,3.2759,3.2788,3.2818,3.2908,3.2847,3.2878,3.2397,3.1469,2.9879,2.8632,2.7876,2.7592,2.7116,2.6604,2.68,2.7078,2.6769,2.6106,2.5593,2.5186,2.4196,2.3396,2.3002,2.2819,2.2567,2.2396,2.2304,2.2149,2.2009,2.1178,2.0115,1.9403,1.8254,1.7225,1.6214,1.598,1.5845,1.5642,1.54,1.5059,1.4677,1.4172,1.3595,1.2835,1.219,1.1682,1.1176,1.0585,1.0208,5.1716,5.1645,5.1119,5.0846,5.0792,5.0453,5.0481,5.0655,5.0425,5.0453,5.0627,5.0425,5.0313,5.0222,4.9729,4.9206,4.8684,4.8271,4.7754,4.7279,4.6906,4.5744,4.4766,4.4457,4.4254,4.4016,4.37,4.3251,4.2575,4.2114,4.1383,4.0386,3.9913,3.9214,3.846,3.8144,3.7831,3.7569,3.751,3.7539,3.7539,3.7539,3.751,3.751,3.751,3.7539,3.7447,3.6785,3.6026,3.5205,3.4952,3.4826,3.4762,3.4762,3.4672,3.468,3.4585,3.4571,3.4516,3.4469,3.4386,3.4296,3.433,3.4089,3.4029,3.3879,3.3759,3.3729,3.3729,3.3789,3.3789,3.3789,3.3156,3.1744,3.0195,2.8629,2.7888,2.7325,2.6911,2.6742,2.69,2.7139,2.7234,2.6894,2.641,2.6206,2.5304,2.4257,2.3882,2.3457,2.3185,2.3215,2.3125,2.2884,2.2548,2.1734,2.1039,2.0551,1.9565,1.8442,1.7399,1.6566,1.6381,1.6161,1.5836,1.5517,1.5147,1.4706,1.4165,1.3687,1.3186,1.2698,1.2203,1.1694,1.1425,5.2032,5.1934,5.1189,5.0908,5.0908,5.0682,5.071,5.0819,5.071,5.071,5.0819,5.071,5.0627,5.0599,5.0397,5.0133,4.9681,4.9333,4.8916,4.8533,4.8151,4.7076,4.5849,4.5247,4.4899,4.4729,4.4674,4.4292,4.3775,4.3443,4.2794,4.2004,4.1083,4.0234,3.9468,3.8748,3.8286,3.7947,3.7892,3.7892,3.7892,3.7892,3.7892,3.7892,3.7892,3.7892,3.7796,3.7476,3.6819,3.6017,3.5552,3.5394,3.5394,3.5394,3.5394,3.5394,3.5446,3.5548,3.5582,3.5654,3.5783,3.5753,3.5694,3.5665,3.5666,3.5515,3.5485,3.5547,3.5485,3.5485,3.5393,3.5119,3.4363,3.3366,3.1658,3.0085,2.8733,2.8278,2.7968,2.7882,2.7879,2.793,2.8251,2.7666,2.734,2.6952,2.6016,2.524,2.4676,2.4205,2.3891,2.3968,2.3769,2.3501,2.3075,2.2357,2.1761,2.1302,2.0588,1.9501,1.8571,1.7505,1.7084,1.6835,1.6394,1.598,1.5671,1.541,1.508,1.4629,1.4154,1.3732,1.3289,1.2783,1.2552,5.2235,5.2094,5.1384,5.0997,5.0962,5.0927,5.09,5.0935,5.0873,5.0908,5.0908,5.0908,5.0846,5.0908,5.0792,5.0846,5.0776,5.0126,4.9907,4.9521,4.8978,4.7928,4.6853,4.6073,4.5614,4.5371,4.531,4.5161,4.4868,4.4361,4.4026,4.352,4.2321,4.1381,4.0769,3.9854,3.9084,3.8786,3.8604,3.8539,3.8539,3.8539,3.8539,3.8539,3.8516,3.8516,3.8516,3.8362,3.7907,3.6734,3.6014,3.5859,3.5767,3.5675,3.5679,3.5805,3.6219,3.6474,3.6566,3.6947,3.7324,3.7231,3.7293,3.751,3.7231,3.7109,3.7109,3.7048,3.7449,3.7202,3.7077,3.6552,3.576,3.4972,3.4182,3.2703,3.0814,2.9916,2.9707,2.9435,2.9348,2.931,2.9073,2.8671,2.8161,2.7899,2.6981,2.6337,2.5773,2.5312,2.4992,2.4804,2.4468,2.3998,2.3522,2.2976,2.2505,2.2031,2.1316,2.0432,1.9639,1.8765,1.8092,1.7559,1.6956,1.6609,1.641,1.6132,1.5882,1.5515,1.5031,1.4734,1.443,1.3912,1.3528,5.3836,5.3199,5.2457,5.1785,5.1229,5.1123,5.107,5.1043,5.0927,5.0908,5.0908,5.0908,5.0908,5.0908,5.0908,5.0908,5.0908,5.0662,5.0627,5.0522,4.9785,4.896,4.8059,4.7264,4.6599,4.6104,4.5955,4.593,4.58,4.5585,4.5371,4.4729,4.4073,4.3398,4.2339,4.1349,4.0658,4.0214,3.9648,3.9362,3.9329,3.9329,3.9295,3.9262,3.9216,3.9189,3.9162,3.9055,3.8827,3.8362,3.7786,3.7345,3.7112,3.6999,3.6909,3.6941,3.7067,3.7227,3.7288,3.7383,3.751,3.751,3.751,3.751,3.751,3.751,3.751,3.751,3.751,3.751,3.7449,3.7174,3.6559,3.5824,3.5337,3.4606,3.3246,3.2015,3.106,3.0407,3.0021,2.9777,2.9554,2.9317,2.8966,2.8687,2.8118,2.7441,2.6911,2.6412,2.6085,2.5789,2.5349,2.493,2.4419,2.3839,2.3233,2.2707,2.1985,2.1369,2.0567,1.9708,1.8948,1.8143,1.739,1.7194,1.7226,1.6928,1.6722,1.6304,1.5887,1.5558,1.5231,1.4811,1.4487,5.474,5.4242,5.314,5.2403,5.1899,5.1423,5.1141,5.1061,5.0989,5.0908,5.0908,5.0908,5.0908,5.0908,5.0908,5.0908,5.0908,5.0908,5.0873,5.0803,5.0346,4.9609,4.8635,4.8064,4.7432,4.6425,4.6189,4.6214,4.6214,4.6179,4.5919,4.5582,4.5061,4.4337,4.3637,4.2721,4.1835,4.1281,4.1128,4.0899,4.0535,4.0468,4.0231,3.9969,3.9885,3.9859,3.9834,3.9817,3.9688,3.9468,3.9243,3.8691,3.7979,3.7626,3.7539,3.751,3.751,3.751,3.751,3.751,3.751,3.7541,3.751,3.751,3.751,3.751,3.751,3.751,3.751,3.751,3.748,3.7419,3.6988,3.6742,3.6466,3.6066,3.5116,3.3788,3.2555,3.1837,3.142,3.1029,3.0637,3.0221,2.9777,2.9543,2.9001,2.8344,2.7936,2.7456,2.7175,2.6842,2.637,2.5893,2.5405,2.476,2.3989,2.3383,2.2673,2.2156,2.153,2.061,1.9681,1.8981,1.8385,1.8256,1.8226,1.7877,1.7487,1.7082,1.6715,1.634,1.5977,1.5578,1.5292,5.5436,5.5222,5.3933,5.3141,5.2753,5.1993,5.1509,5.1246,5.1088,5.1088,5.1034,5.1008,5.1088,5.1034,5.1008,5.0981,5.0954,5.0989,5.1043,5.0946,5.0937,5.0075,4.9064,4.8537,4.7844,4.652,4.6249,4.6214,4.6214,4.6214,4.6144,4.6014,4.5509,4.5082,4.4605,4.3915,4.3178,4.254,4.2609,4.254,4.2068,4.194,4.1597,4.1047,4.0621,4.0563,4.0538,4.0514,4.0485,4.0374,4.0531,3.9945,3.9084,3.8206,3.7943,3.8037,3.8223,3.8285,3.8346,3.8191,3.813,3.7943,3.8037,3.8037,3.8098,3.8223,3.8285,3.8128,3.8128,3.8,3.7816,3.7689,3.7628,3.7506,3.7508,3.7225,3.6542,3.5298,3.4454,3.3457,3.2916,3.2437,3.184,3.1334,3.083,3.033,2.9809,2.9345,2.8937,2.8645,2.8388,2.8043,2.7647,2.6687,2.6091,2.5695,2.4916,2.4039,2.3379,2.2802,2.2283,2.1464,2.06,2.0103,1.9668,1.9466,1.9148,1.8782,1.8362,1.7946,1.7401,1.6933,1.6616,1.6332,1.6046,5.6483,5.5833,5.558,5.4749,5.3544,5.3097,5.2579,5.1943,5.1708,5.1546,5.1607,5.1546,5.1571,5.1556,5.1428,5.135,5.1237,5.1246,5.1246,5.122,5.1184,5.0531,4.9651,4.9062,4.8201,4.7282,4.6635,4.6319,4.6214,4.6214,4.6214,4.6179,4.6014,4.586,4.5625,4.5205,4.4582,4.4066,4.3951,4.3707,4.3498,4.3358,4.3021,4.2323,4.1708,4.1406,4.1302,4.1221,4.1301,4.1747,4.1517,4.1528,4.1359,4.0606,4.0118,3.9839,3.9806,3.9771,3.9803,3.9903,3.9971,4.0003,3.9874,3.9906,3.9906,3.9906,3.9744,3.9712,3.9392,3.9166,3.9137,3.8566,3.8008,3.7889,3.7711,3.7594,3.7259,3.68,3.6032,3.4904,3.4356,3.3813,3.3185,3.2467,3.1871,3.1397,3.0925,3.0572,3.028,3.0046,2.9841,2.9404,2.894,2.7851,2.6775,2.6408,2.582,2.4772,2.4032,2.3351,2.2782,2.2221,2.1599,2.1342,2.087,2.0457,2.0108,1.9785,1.9249,1.8788,1.8147,1.7557,1.7344,1.7177,1.6736,5.7541,5.7138,5.6736,5.609,5.5204,5.4219,5.3595,5.3067,5.2446,5.2172,5.2172,5.2172,5.2125,5.2066,5.1873,5.1712,5.1546,5.1531,5.1531,5.147,5.1418,5.0925,5.0124,4.9543,4.8543,4.7633,4.6976,4.659,4.6249,4.6214,4.6214,4.6214,4.6214,4.6214,4.6144,4.5828,4.5466,4.5185,4.5045,4.4869,4.4553,4.4518,4.4097,4.3442,4.2998,4.2741,4.2683,4.2625,4.2707,4.2925,4.298,4.3124,4.3158,4.2976,4.2275,4.1484,4.1234,4.1201,4.1196,4.1196,4.113,4.1135,4.1144,4.1054,4.1025,4.0964,4.1066,4.0939,4.0775,4.032,3.9898,3.9425,3.8873,3.8266,3.8033,3.7833,3.7599,3.7539,3.6947,3.6082,3.5597,3.5053,3.442,3.3723,3.2994,3.2453,3.2006,3.1741,3.1567,3.1274,3.101,3.0426,2.9842,2.8655,2.7598,2.7145,2.6638,2.5605,2.4696,2.3987,2.3552,2.3092,2.2972,2.2885,2.234,2.1649,2.1453,2.1219,2.0439,1.969,1.9305,1.8902,1.8419,1.798,1.7594,5.8385,5.8311,5.7703,5.7254,5.6762,5.5343,5.4485,5.4084,5.3185,5.2754,5.2754,5.2754,5.2726,5.263,5.2404,5.2101,5.1846,5.1846,5.1871,5.1846,5.1772,5.123,5.0662,5.01,4.9457,4.8544,4.7964,4.7216,4.6354,4.6214,4.6214,4.6214,4.6214,4.6214,4.6179,4.6109,4.5758,4.5723,4.5828,4.5828,4.5442,4.515,4.4834,4.4167,4.3992,4.3816,4.3687,4.3652,4.3781,4.3978,4.4227,4.4505,4.4646,4.4957,4.4331,4.2996,4.2571,4.2429,4.2469,4.2536,4.2616,4.265,4.2393,4.2305,4.2311,4.2423,4.2239,4.2078,4.1938,4.1738,4.131,4.0773,3.9979,3.9159,3.8683,3.8334,3.7953,3.7804,3.7833,3.7213,3.6758,3.6207,3.5566,3.511,3.4401,3.3751,3.3295,3.29,3.2696,3.2247,3.1898,3.1264,3.0504,2.9392,2.8495,2.7893,2.7268,2.642,2.5507,2.4714,2.4394,2.4096,2.4009,2.3808,2.3581,2.2959,2.2837,2.2419,2.1439,2.0775,2.0557,2.006,1.9259,1.8862,1.858,5.8656,5.8656,5.8545,5.8099,5.7357,5.6327,5.5414,5.4691,5.3776,5.3326,5.331,5.331,5.3289,5.3187,5.2935,5.2621,5.2431,5.2338,5.2361,5.2361,5.2315,5.2101,5.173,5.106,5.0593,4.9829,4.9364,4.7995,4.7036,4.6597,4.6369,4.6463,4.6594,4.6309,4.6653,4.6548,4.6179,4.6133,4.6204,4.6168,4.5982,4.5515,4.5198,4.4882,4.4437,4.412,4.4191,4.4261,4.4354,4.4916,4.4973,4.5334,4.58,4.601,4.5995,4.5534,4.5052,4.4538,4.4463,4.4456,4.4585,4.4551,4.4538,4.4545,4.4484,4.4484,4.4456,4.445,4.3939,4.3496,4.3136,4.2502,4.1574,4.0721,4.0062,3.9345,3.8719,3.8659,3.863,3.8286,3.7846,3.7249,3.6584,3.6279,3.588,3.5187,3.4561,3.416,3.3642,3.3049,3.2633,3.2007,3.1369,3.0303,2.951,2.8925,2.8139,2.7336,2.6506,2.5654,2.5364,2.51,2.4502,2.4314,2.4257,2.4194,2.3885,2.3277,2.2328,2.1859,2.1601,2.0824,1.9861,1.9634,1.9586,5.9024,5.9024,5.9061,5.8837,5.8351,5.7117,5.6351,5.5753,5.4578,5.3963,5.3963,5.3963,5.387,5.3643,5.3484,5.3244,5.3014,5.295,5.2972,5.2929,5.2886,5.2777,5.2535,5.2154,5.1751,5.1095,5.0674,5.0037,4.8775,4.8188,4.8008,4.7937,4.8008,4.8103,4.789,4.7547,4.7405,4.7228,4.698,4.6673,4.6566,4.6354,4.6118,4.6047,4.5588,4.5376,4.5234,4.5245,4.5326,4.5688,4.5723,4.5828,4.6109,4.6189,4.6154,4.613,4.5844,4.584,4.6222,4.6265,4.6352,4.6794,4.6811,4.6792,4.6738,4.665,4.665,4.6685,4.6055,4.5468,4.4889,4.4105,4.3005,4.2147,4.156,4.0708,4.0044,3.9824,3.9671,3.9292,3.8952,3.851,3.7978,3.7436,3.6954,3.6253,3.5471,3.4822,3.412,3.3306,3.2979,3.266,3.2016,3.1338,3.0651,3.0054,2.9251,2.8467,2.7928,2.7117,2.6559,2.6127,2.5639,2.5487,2.5661,2.5466,2.502,2.4321,2.3595,2.3097,2.2658,2.1927,2.1228,2.0929,2.0672,5.9515,5.929,5.929,5.929,5.9178,5.7788,5.7057,5.6699,5.533,5.4579,5.4446,5.4375,5.4216,5.3981,5.387,5.368,5.3504,5.3524,5.3524,5.3447,5.3387,5.3285,5.3109,5.2952,5.2611,5.1962,5.1993,5.1569,5.1113,5.0598,5.0213,4.9706,4.9752,4.9873,4.9778,4.9405,4.8974,4.8236,4.7546,4.7201,4.7129,4.7165,4.7004,4.6926,4.6801,4.6637,4.6495,4.6242,4.6144,4.6144,4.6109,4.6144,4.6214,4.6214,4.6214,4.6189,4.6055,4.643,4.6815,4.7051,4.7573,4.7978,4.8408,4.805,4.8032,4.8207,4.8207,4.8006,4.7622,4.6986,4.6358,4.556,4.4551,4.3675,4.2963,4.2192,4.1516,4.1336,4.1156,4.0968,4.0654,4.0266,3.9648,3.8809,3.8073,3.7311,3.6482,3.5582,3.4786,3.3963,3.3818,3.3701,3.2935,3.2342,3.1854,3.1155,3.0366,2.9608,2.904,2.8509,2.7906,2.7473,2.7045,2.701,2.7081,2.6972,2.6692,2.5767,2.4909,2.4551,2.4113,2.3412,2.2803,2.2363,2.1476,6.0041,5.929,5.929,5.929,5.9215,5.8389,5.76,5.6925,5.5911,5.5047,5.4446,5.4409,5.4268,5.4127,5.4073,5.3981,5.3775,5.3775,5.3794,5.3794,5.3756,5.368,5.3604,5.3509,5.3487,5.3333,5.3205,5.3111,5.3145,5.2941,5.1862,5.0644,5.1383,5.1463,5.1478,5.1362,5.0277,4.9319,4.8363,4.7938,4.7844,4.7772,4.7672,4.7464,4.7143,4.6835,4.679,4.6718,4.6594,4.6653,4.6688,4.6653,4.6808,4.6748,4.6748,4.6748,4.6748,4.7125,4.7477,4.7131,4.6941,4.7467,4.8214,4.8855,4.8837,4.8618,4.8539,4.8723,4.8557,4.8057,4.7506,4.693,4.5829,4.4937,4.4171,4.3639,4.3083,4.28,4.2646,4.2561,4.2296,4.1835,4.1401,4.0601,3.9156,3.8341,3.7178,3.6305,3.5824,3.5149,3.5126,3.4849,3.3968,3.3377,3.3035,3.2263,3.125,3.061,3.0089,2.9603,2.9114,2.8746,2.8565,2.84,2.8419,2.8424,2.838,2.7769,2.708,2.6258,2.5505,2.4602,2.3497,2.2644,2.1668,5.9591,5.929,5.929,5.929,5.9253,5.8464,5.7938,5.7413,5.6194,5.5142,5.4446,5.4409,5.4375,5.4323,5.4268,5.4271,5.42,5.42,5.4219,5.4182,5.4145,5.4127,5.4109,5.4185,5.426,5.4466,5.4279,5.4335,5.4727,5.4503,5.4447,5.3813,5.337,5.3854,5.3886,5.3154,5.1805,5.0588,4.9904,4.9664,4.9591,4.9184,4.9125,4.9382,4.8502,4.846,4.8618,4.8354,4.8211,4.8127,4.8092,4.8021,4.7985,4.8021,4.8021,4.8021,4.7985,4.8198,4.8243,4.7717,4.7538,4.8696,4.9504,4.9952,4.9811,4.9925,4.996,4.989,4.9504,4.8942,4.8284,4.7592,4.6745,4.59,4.5277,4.4829,4.451,4.4133,4.4004,4.3894,4.3633,4.3242,4.2842,4.2442,4.0798,3.9302,3.8112,3.7095,3.6727,3.6414,3.6382,3.6254,3.5449,3.4856,3.4477,3.338,3.2137,3.1659,3.1187,3.0766,3.0438,3.0374,3.0179,2.9974,2.9826,2.99,2.9928,2.9839,2.9059,2.7683,2.6581,2.5633,2.4421,2.314,2.2261,5.9515,5.9328,5.9591,5.9515,5.9253,5.8689,5.8296,5.7938,5.6907,5.5893,5.516,5.5122,5.516,5.516,5.516,5.5235,5.5275,5.5238,5.5218,5.5218,5.5238,5.501,5.4859,5.475,5.4865,5.5142,5.4859,5.4712,5.4978,5.5218,5.5128,5.506,5.5268,5.5468,5.5912,5.4907,5.3273,5.1974,5.1306,5.1232,5.1065,5.0676,5.0435,5.0727,4.9991,4.9731,4.9828,4.9639,4.9509,4.95,4.9536,4.9608,4.9621,4.9634,4.9647,4.9647,4.9659,4.9636,4.9317,4.9112,4.8801,4.9735,5.0505,5.0876,5.1008,5.1016,5.0743,5.0697,5.0276,4.975,4.8977,4.8249,4.7512,4.6665,4.601,4.561,4.547,4.5211,4.5201,4.5142,4.4851,4.4558,4.3844,4.3291,4.1738,4.0187,3.9063,3.8321,3.8109,3.7826,3.7695,3.7472,3.7085,3.6555,3.6,3.4522,3.3262,3.3233,3.2716,3.2143,3.1847,3.1796,3.1747,3.1584,3.15,3.1516,3.143,3.128,3.0119,2.8678,2.7649,2.6605,2.5449,2.4275,2.349,6.0041,5.944,6.0154,6.0004,5.9346,5.929,5.884,5.8221,5.792,5.7375,5.6624,5.6624,5.6624,5.6587,5.6436,5.6399,5.6436,5.6549,5.6549,5.6436,5.6324,5.6174,5.5706,5.5405,5.5197,5.4559,5.4446,5.4484,5.4672,5.4859,5.5122,5.548,5.5712,5.6181,5.7659,5.6274,5.459,5.3075,5.2203,5.1999,5.1907,5.1777,5.167,5.1676,5.1231,5.0983,5.112,5.0911,5.0778,5.0721,5.0706,5.0706,5.0669,5.0569,5.0511,5.0474,5.0294,5.0214,5.0075,5.0306,5.0605,5.0733,5.1383,5.1693,5.1466,5.1335,5.1219,5.1279,5.0908,5.0417,4.9714,4.8942,4.8205,4.7503,4.6846,4.6389,4.6249,4.5933,4.5839,4.5979,4.6014,4.5804,4.4935,4.3938,4.2472,4.1119,4.0036,3.9536,3.9458,3.9306,3.9139,3.8746,3.8428,3.7992,3.7209,3.5487,3.446,3.4465,3.4168,3.3423,3.3103,3.3093,3.3066,3.303,3.2683,3.2368,3.2507,3.268,3.1253,2.9899,2.863,2.7542,2.6416,2.5644,2.5117,5.9773,5.9528,5.9811,5.9773,5.9492,5.9345,5.914,5.884,5.8351,5.7676,5.7,5.6887,5.6887,5.6887,5.698,5.7017,5.6962,5.6887,5.6887,5.6925,5.7,5.6324,5.5911,5.5743,5.548,5.5122,5.4822,5.4822,5.5255,5.5197,5.5255,5.563,5.5931,5.6361,5.6344,5.5633,5.492,5.4095,5.3628,5.3498,5.3386,5.3011,5.2847,5.3155,5.2511,5.2289,5.2566,5.2296,5.216,5.2177,5.2197,5.2177,5.2213,5.2153,5.2226,5.2242,5.2218,5.2254,5.2438,5.2724,5.2717,5.2457,5.2366,5.2888,5.2977,5.2936,5.2484,5.1888,5.1728,5.1095,4.989,4.9565,4.8933,4.824,4.7678,4.7222,4.6906,4.6389,4.6179,4.6495,4.666,4.5993,4.5183,4.4924,4.3701,4.3019,4.2081,4.1273,4.1036,4.0849,4.062,4.0086,3.9664,3.926,3.8412,3.6819,3.5836,3.5686,3.5194,3.4439,3.4272,3.4342,3.4136,3.3982,3.3539,3.3129,3.3166,3.3047,3.223,3.1094,3.0045,2.9026,2.8077,2.7658,2.7458,5.9702,5.9702,5.9702,5.9702,5.9685,5.9472,5.94,5.9307,5.8856,5.8291,5.7933,5.7858,5.7895,5.7858,5.782,5.7822,5.7805,5.7805,5.7769,5.7731,5.7751,5.7338,5.6832,5.6344,5.6118,5.5781,5.5535,5.5535,5.5555,5.5893,5.5856,5.5743,5.5873,5.5573,5.5368,5.5255,5.518,5.4504,5.4167,5.4204,5.4091,5.3941,5.3812,5.3931,5.3714,5.3475,5.3795,5.3851,5.372,5.372,5.372,5.372,5.372,5.3719,5.3719,5.3719,5.3643,5.3754,5.4069,5.4346,5.4384,5.4595,5.4346,5.4218,5.4309,5.4061,5.3557,5.3043,5.2775,5.2183,5.1397,5.1043,5.0195,4.9548,4.8851,4.8452,4.7685,4.719,4.6645,4.6998,4.6709,4.6042,4.5607,4.5512,4.5075,4.4673,4.4247,4.3425,4.2536,4.2236,4.1911,4.1429,4.0889,4.0405,3.9597,3.8323,3.7461,3.7002,3.6224,3.5414,3.5607,3.568,3.5266,3.4923,3.4625,3.4292,3.3763,3.3302,3.2712,3.2298,3.1765,3.0777,2.9792,2.947,2.9271,5.9939,5.9902,5.9902,5.9902,5.9869,5.9719,5.9633,5.9616,5.9578,5.9502,5.954,5.9389,5.9314,5.9465,5.9502,5.9337,5.921,5.9248,5.9138,5.9083,5.884,5.8427,5.8051,5.7733,5.6962,5.6381,5.6136,5.6136,5.5818,5.6286,5.6286,5.563,5.5272,5.4972,5.4934,5.4955,5.4972,5.4559,5.4409,5.4409,5.4334,5.4334,5.4259,5.43,5.419,5.4153,5.4306,5.4251,5.4268,5.4323,5.434,5.4357,5.4357,5.4306,5.4326,5.4235,5.4109,5.4464,5.5006,5.5249,5.6108,5.6491,5.6314,5.5735,5.5372,5.5305,5.4878,5.4456,5.4158,5.406,5.381,5.2906,5.2001,5.1189,5.0378,4.9603,4.8722,4.8057,4.7382,4.7098,4.6634,4.6185,4.6028,4.5968,4.5912,4.5649,4.5236,4.4897,4.4077,4.3358,4.3055,4.2637,4.2091,4.1545,4.0608,3.9604,3.8845,3.8289,3.7225,3.6476,3.6721,3.6829,3.6447,3.6095,3.5861,3.5401,3.4595,3.3927,3.3356,3.303,3.2788,3.2264,3.1213,3.0928,3.0727,6.0608,6.006,6.0022,6.0022,6.0022,5.9975,5.9934,5.982,5.982,5.982,5.982,5.982,5.9803,5.9803,5.9698,5.963,5.9581,5.951,5.942,5.9365,5.9327,5.8764,5.8389,5.8144,5.7413,5.6962,5.6792,5.6942,5.6679,5.6942,5.6512,5.563,5.546,5.5047,5.4784,5.4709,5.4709,5.4597,5.4559,5.4409,5.4409,5.4409,5.4409,5.4409,5.4409,5.4409,5.4409,5.4409,5.4409,5.4409,5.4409,5.4409,5.4409,5.4375,5.4357,5.4357,5.4378,5.4623,5.5448,5.6085,5.6872,5.781,5.788,5.7914,5.7478,5.6864,5.6403,5.5922,5.5595,5.5522,5.5233,5.4436,5.3916,5.3385,5.2384,5.1276,5.0326,4.9325,4.8627,4.7593,4.7098,4.687,4.6713,4.6442,4.6396,4.6263,4.6098,4.5866,4.5396,4.4577,4.4027,4.3617,4.3313,4.2765,4.2044,4.1047,4.0285,3.9514,3.8299,3.7511,3.7757,3.7759,3.7517,3.717,3.6854,3.6065,3.5072,3.4607,3.4375,3.3899,3.3598,3.3149,3.2725,3.2369,3.2134,6.0989,6.0264,6.0226,6.0226,6.0188,6.0226,6.0167,6.0091,6.0029,5.9982,5.9944,5.9982,5.9982,5.9966,5.9902,5.9803,5.9736,5.9688,5.9583,5.9474,5.9438,5.9192,5.8798,5.861,5.8214,5.7838,5.7725,5.7968,5.7594,5.7409,5.7053,5.6752,5.6396,5.5836,5.561,5.5648,5.5535,5.5235,5.4897,5.4521,5.4446,5.4446,5.4409,5.4409,5.4409,5.4409,5.4409,5.4409,5.4409,5.4409,5.4409,5.4409,5.4409,5.4409,5.4409,5.4409,5.4429,5.4805,5.55,5.6381,5.7225,5.8033,5.8784,5.8856,5.8635,5.8159,5.7648,5.7157,5.7084,5.6901,5.6461,5.6035,5.5902,5.5719,5.4415,5.3112,5.1944,5.0815,4.9655,4.8474,4.7938,4.7748,4.7497,4.7155,4.6978,4.7026,4.6873,4.6543,4.6035,4.5305,4.4812,4.4413,4.4273,4.398,4.3185,4.2346,4.1499,4.0376,3.8803,3.8316,3.8675,3.8688,3.8384,3.8072,3.7728,3.7028,3.6452,3.5916,3.5563,3.5092,3.4857,3.4775,3.4258,3.3545,3.3397,6.1211,6.0408,6.0384,6.037,6.0384,6.037,6.0356,6.037,6.0212,6.0114,6.0114,6.0114,6.0152,6.0137,6.0076,5.9982,5.9902,5.9857,5.9719,5.9633,5.9633,5.9482,5.952,5.9558,5.9029,5.8971,5.8916,5.8878,5.858,5.8339,5.8249,5.8194,5.7391,5.6774,5.6512,5.6474,5.6399,5.6249,5.5535,5.4934,5.4672,5.4559,5.4446,5.4409,5.4409,5.4409,5.4409,5.4409,5.4409,5.4409,5.4409,5.4409,5.4409,5.4597,5.4597,5.4747,5.4859,5.546,5.6099,5.6849,5.7488,5.8239,5.884,5.9122,5.9006,5.8868,5.8396,5.8196,5.8063,5.8026,5.7693,5.7455,5.7307,5.7006,5.6097,5.4761,5.3498,5.2099,5.0488,4.951,4.9131,4.8918,4.8837,4.8573,4.8393,4.8194,4.8051,4.7657,4.728,4.6623,4.5894,4.5494,4.5234,4.4988,4.4156,4.3313,4.2542,4.1305,3.9742,3.9384,3.9921,3.972,3.9273,3.9003,3.8777,3.8578,3.8136,3.7459,3.6819,3.6597,3.6429,3.6488,3.5961,3.5079,3.4651,6.1745,6.0408,6.0384,6.0384,6.0384,6.0384,6.0422,6.0384,6.038,6.0352,6.0313,6.0313,6.0313,6.0285,6.025,6.0175,6.006,5.9982,5.9902,5.9853,5.982,5.982,5.982,5.9782,5.963,5.9668,5.9668,5.9635,5.9341,5.918,5.8867,5.8287,5.786,5.7674,5.7185,5.7148,5.7148,5.7203,5.6772,5.5983,5.5515,5.5272,5.5105,5.4672,5.4446,5.4409,5.4409,5.4409,5.4409,5.4409,5.4409,5.4409,5.4409,5.4972,5.5255,5.5423,5.5761,5.6399,5.6962,5.745,5.8014,5.8614,5.914,5.9215,5.9253,5.9178,5.9101,5.9024,5.8965,5.8965,5.8927,5.8723,5.8556,5.8143,5.7656,5.6312,5.4988,5.3197,5.1389,5.0815,5.0399,5.0235,5.017,5.0025,4.9864,4.9792,4.9719,4.9537,4.9407,4.8894,4.7649,4.7088,4.6436,4.5953,4.5117,4.439,4.3641,4.2587,4.1104,4.1034,4.1174,4.0882,4.0493,4.0145,3.986,3.9665,3.9266,3.8523,3.8028,3.7956,3.7818,3.7836,3.7476,3.6686,3.6221,6.1554,6.046,6.0384,6.0384,6.0384,6.0384,6.0599,6.0828,6.0575,6.0599,6.0828,6.0613,6.0384,6.037,6.0323,6.0279,6.0182,6.0106,6.0045,6.0013,5.9998,5.9998,5.9998,5.9998,5.996,5.9998,5.996,5.9912,5.9831,5.9711,5.9324,5.8919,5.8756,5.8515,5.8026,5.8064,5.8064,5.8156,5.8026,5.7574,5.6729,5.6113,5.5535,5.4972,5.4672,5.4559,5.4409,5.4409,5.4409,5.4409,5.4409,5.4409,5.4597,5.5105,5.548,5.5781,5.6286,5.7112,5.7563,5.8014,5.8351,5.8802,5.9253,5.9253,5.929,5.9234,5.9215,5.9159,5.9159,5.9159,5.914,5.9028,5.9028,5.8747,5.8053,5.6968,5.5772,5.4354,5.3105,5.2486,5.2156,5.1977,5.1789,5.1348,5.1185,5.1002,5.1006,5.0842,5.0805,5.1009,4.982,4.8713,4.8075,4.7061,4.6118,4.547,4.4834,4.3676,4.2444,4.2166,4.2073,4.1983,4.1766,4.136,4.099,4.0689,4.0193,3.9629,3.956,3.9624,3.9354,3.9108,3.8685,3.8337,3.8154,6.144,6.0613,6.0561,6.0499,6.0384,6.0384,6.0828,6.1363,6.0752,6.0828,6.1325,6.0714,6.046,6.0394,6.0352,6.0323,6.0294,6.0212,6.0182,6.0167,6.0167,6.0167,6.0167,6.0167,6.0167,6.0167,6.0167,6.0106,6.0045,5.9928,5.9831,5.9807,5.9702,5.9613,5.965,5.9726,5.965,5.9424,5.9311,5.9197,5.8185,5.6914,5.6261,5.5662,5.5194,5.4781,5.4781,5.4781,5.4781,5.4856,5.5061,5.5064,5.531,5.5873,5.6081,5.6494,5.7112,5.7488,5.7676,5.8164,5.8314,5.8539,5.9027,5.929,5.9365,5.9365,5.9365,5.9365,5.9365,5.9328,5.9328,5.929,5.929,5.9178,5.8371,5.7602,5.6462,5.5342,5.4597,5.3907,5.3607,5.3378,5.3156,5.2712,5.2638,5.2435,5.225,5.1898,5.1843,5.2252,5.1896,5.0679,4.9711,4.8649,4.7196,4.6211,4.5541,4.4858,4.3761,4.3308,4.2984,4.2949,4.2843,4.254,4.2179,4.1713,4.1388,4.0949,4.1023,4.0955,4.048,4.0051,3.9987,3.9749,4.0061,6.2777,6.1363,6.1363,6.1019,6.0499,6.0422,6.0867,6.1402,6.079,6.0828,6.1363,6.0828,6.0384,6.0422,6.0408,6.038,6.0366,6.0313,6.0328,6.0328,6.0313,6.0328,6.0328,6.0328,6.0328,6.0328,6.0328,6.0285,6.0197,6.0122,6.0007,5.995,5.9869,5.9874,5.995,6.0101,6.0328,6.0139,6.0215,6.0139,5.95,5.8417,5.7561,5.7037,5.666,5.6585,5.6585,5.6585,5.6585,5.6568,5.6404,5.6281,5.6492,5.6887,5.73,5.747,5.8089,5.8577,5.884,5.8952,5.9102,5.929,5.9666,5.9628,5.9628,5.9628,5.9628,5.9628,5.9591,5.944,5.9403,5.9328,5.929,5.9102,5.8558,5.7808,5.689,5.5992,5.5207,5.461,5.4163,5.4146,5.4184,5.4146,5.4632,5.4632,5.5043,5.4669,5.411,5.4072,5.3829,5.2624,5.1356,4.9501,4.7789,4.6663,4.5905,4.5423,4.5085,4.464,4.4289,4.4031,4.3854,4.362,4.3138,4.26,4.2309,4.2185,4.1831,4.1603,4.1256,4.0943,4.0953,4.1088,4.1343]}]]